GFSCGP_sfc_rhum_000.txt.gz
RH
8 8 8 8 9 9 10 13 14 13 17 22 21 20 21 30 27 27 31 34 34 33 33 35 39 40 42 46 54 59 62 65 63 66 53 51 47 49 54 45 62 62 58 60
8 8 6 6 8 9 11 12 13 12 18 20 18 21 20 22 30 27 28 31 34 32 32 38 40 39 40 47 54 61 64 67 68 53 60 53 58 43 48 46 58 57 58 63
9 6 5 6 7 10 11 12 13 15 20 19 18 22 21 18 25 28 25 26 29 32 32 37 39 40 40 46 54 59 66 67 69 66 59 61 64 62 53 55 59 61 63 64
7 5 6 7 9 9 12 9 11 14 18 23 19 21 18 16 24 27 28 27 25 30 32 34 36 40 39 43 47 57 64 68 66 70 62 74 55 49 41 45 41 49 61 61
9 6 7 7 7 7 11 9 11 12 16 19 21 23 18 18 19 22 25 26 24 24 29 33 35 37 38 40 44 50 63 70 69 70 71 60 67 45 42 43 58 66 63 64
9 6 5 6 5 6 8 10 12 12 13 21 19 19 16 14 19 15 17 22 25 23 25 30 32 34 37 37 41 46 62 73 69 68 70 72 65 62 46 53 50 46 44 52
10 8 5 4 7 6 8 12 19 21 19 20 16 18 18 11 10 11 10 15 23 23 24 27 32 34 38 41 43 46 58 70 67 67 68 70 70 68 66 61 52 50 42 43
13 12 8 6 6 8 10 11 15 27 18 16 16 20 14 11 10 9 9 12 18 22 20 24 29 32 38 39 43 47 54 67 65 65 72 74 72 58 56 58 46 44 41 40
12 13 6 6 6 6 10 12 9 12 12 12 11 15 12 10 12 11 12 14 16 20 21 22 26 30 34 39 44 51 59 62 61 59 68 72 71 70 56 59 60 49 55 40
12 16 9 7 6 6 7 8 13 12 25 24 15 15 15 15 12 9 12 15 16 19 21 19 22 27 30 33 37 44 50 58 57 56 60 61 64 67 65 62 68 61 56 59
10 14 11 9 8 8 8 9 12 11 13 18 19 14 11 13 13 11 8 14 14 17 22 21 20 22 27 29 32 38 45 52 54 54 59 60 57 58 64 63 74 69 68 64
12 12 16 9 6 5 6 10 11 14 24 14 14 12 7 9 9 9 8 8 8 15 20 22 21 22 25 30 29 32 37 42 47 51 60 58 57 58 61 70 73 75 74 66
12 15 19 16 7 6 7 7 9 10 12 22 17 14 8 9 10 10 14 13 13 20 22 24 22 26 27 28 32 30 34 34 36 46 49 54 56 59 64 83 86 77 68 78
26 12 18 14 15 8 10 7 7 8 12 15 13 13 11 10 11 10 11 15 16 24 27 28 27 31 32 33 39 40 33 32 34 36 45 54 57 60 68 76 87 74 69 72
23 29 18 13 10 9 9 7 7 8 10 14 12 12 12 12 11 10 8 10 16 26 29 32 31 39 45 44 44 43 38 39 37 42 43 52 60 70 75 76 75 74 74 77
16 30 24 21 13 12 11 9 7 7 7 8 9 11 8 9 10 10 9 9 16 26 28 31 34 37 42 43 45 45 46 43 45 49 50 54 75 76 85 80 76 75 75 68
24 25 33 29 16 16 18 13 10 8 7 8 10 10 8 9 10 11 10 14 17 23 27 31 34 35 40 41 46 47 49 48 51 58 57 63 79 80 85 78 75 73 70 73
32 39 31 28 28 34 14 10 10 9 7 7 10 10 9 10 12 14 14 13 16 21 25 30 27 33 40 35 36 42 47 55 58 64 64 70 82 80 84 81 77 74 63 67
24 32 31 31 27 23 19 17 12 12 11 7 10 11 10 11 17 24 23 22 21 22 25 29 28 36 43 36 41 45 48 54 59 65 68 76 78 80 81 80 80 71 67 65
23 31 30 31 33 36 34 36 34 32 27 10 9 13 12 16 20 11 30 23 21 24 27 31 31 37 38 38 38 46 48 55 61 64 67 76 76 79 81 78 79 78 73 69
36 36 29 31 36 30 42 36 32 42 24 11 17 20 21 23 26 37 32 31 28 32 36 36 36 37 42 40 40 46 49 53 54 60 69 76 76 78 82 82 81 75 74 78
42 38 29 34 46 43 42 33 47 48 39 34 32 29 30 37 37 38 37 39 38 37 33 30 38 45 44 43 44 52 56 57 62 66 79 84 80 75 69 86 86 86 84 80
33 27 29 35 30 54 46 54 44 36 39 35 36 33 33 33 36 35 35 34 32 31 30 29 38 49 52 53 52 59 71 70 71 84 89 87 85 80 78 86 86 79 76 64
36 31 36 48 49 50 51 45 40 34 34 31 31 28 29 32 31 34 35 36 40 40 39 36 41 49 61 66 63 70 74 74 76 86 89 91 87 85 82 79 76 76 75 69
46 44 47 50 60 46 48 49 45 40 37 36 34 33 35 39 43 51 55 48 47 49 46 43 46 54 65 68 71 68 73 75 78 87 86 83 81 82 80 81 79 63 78 72
85 80 46 43 64 77 74 51 41 41 38 36 36 38 38 39 44 55 60 57 62 57 56 57 58 64 68 70 72 72 79 79 78 80 71 69 68 67 71 70 73 97 90 100

GFSCGP_sfc_rhum_003.txt.gz
RH
7 6 7 8 8 9 9 10 10 10 10 14 16 16 17 18 18 18 18 20 23 25 25 26 30 30 32 37 45 53 58 66 59 57 65 59 54 49 44 40 57 60 58 60
7 7 6 6 7 8 9 10 11 10 11 12 14 16 14 20 20 18 18 18 20 22 23 28 31 31 32 40 46 57 62 68 67 57 67 53 59 45 38 39 50 53 66 62
6 5 5 6 8 9 9 10 10 11 15 14 14 19 15 14 19 20 17 17 18 20 21 28 31 33 33 40 48 57 66 69 68 67 60 64 62 52 52 44 48 53 57 57
6 4 4 6 8 8 10 8 9 10 16 21 12 19 18 14 15 20 19 18 17 19 20 23 30 34 33 38 44 54 64 68 67 72 62 73 59 49 38 40 37 47 59 58
7 5 6 6 6 7 9 7 9 10 13 26 14 15 18 13 15 16 18 19 17 17 19 22 27 31 32 34 39 47 64 71 69 72 71 56 64 41 37 34 57 56 64 53
6 4 4 5 5 6 6 8 9 9 11 17 15 17 18 18 14 13 14 17 19 18 18 23 24 28 32 32 36 43 64 73 72 70 72 74 73 62 41 45 46 44 43 49
8 6 5 4 6 6 7 9 14 16 15 16 12 16 29 13 10 11 11 11 16 18 18 21 26 28 33 37 39 43 60 74 70 66 68 71 71 71 64 57 48 50 39 39
10 10 7 5 5 7 8 8 12 25 17 14 12 16 13 10 9 8 8 8 10 16 17 18 24 28 34 36 41 45 55 70 70 66 71 72 72 52 49 57 45 42 40 40
10 11 6 5 4 5 7 9 7 11 11 12 11 11 9 10 10 9 8 8 8 14 17 19 20 25 31 34 42 47 55 64 64 58 69 72 71 69 53 61 62 45 56 40
9 12 7 5 4 4 5 5 10 10 23 21 13 13 12 14 12 10 10 8 9 10 17 17 18 22 27 29 34 41 48 59 58 57 61 61 65 68 65 62 64 60 56 56
7 10 10 7 7 7 6 6 8 9 11 16 16 13 9 12 13 11 10 8 8 11 15 17 17 19 23 25 29 35 42 52 56 55 56 59 59 60 64 62 62 64 61 66
8 9 14 10 6 5 5 6 7 12 21 12 13 11 7 8 8 9 9 8 8 11 14 16 16 17 20 25 25 29 33 37 46 51 58 59 60 60 61 65 64 70 71 68
9 12 15 14 8 7 7 6 6 6 10 21 15 12 7 8 8 9 9 9 9 11 12 16 15 18 19 22 26 23 29 28 32 46 48 54 57 60 63 67 67 75 73 73
22 11 16 14 15 8 9 7 6 6 9 12 12 13 11 10 10 10 10 9 10 10 18 16 17 20 20 24 30 30 26 24 28 35 40 54 59 59 59 68 73 73 76 74
13 19 14 11 10 9 7 6 5 7 8 11 11 11 11 11 10 9 8 9 10 10 16 21 21 26 30 30 34 34 28 31 30 40 40 52 62 62 64 71 79 78 75 72
12 22 18 15 10 9 9 8 6 6 6 7 8 9 7 8 10 9 9 10 10 10 10 20 25 26 33 33 36 37 37 34 37 47 45 54 66 70 71 80 83 80 74 68
20 21 27 27 16 15 16 11 9 9 7 6 8 9 7 9 10 11 10 9 11 12 11 16 23 27 30 31 38 38 42 39 45 52 52 58 70 77 85 79 83 82 78 70
21 26 22 23 23 30 15 14 10 10 9 8 8 8 8 10 11 10 8 9 11 12 12 13 18 26 32 28 29 35 39 51 54 60 59 63 76 82 87 84 84 81 74 72
19 24 26 28 26 32 23 23 23 27 20 10 10 8 6 7 7 11 9 8 10 10 10 13 20 24 37 34 39 43 45 52 56 60 64 66 76 82 85 83 79 76 76 72
17 26 28 29 31 31 18 26 23 21 25 12 11 11 7 7 11 10 10 12 15 15 12 17 23 26 34 38 36 45 45 52 57 60 63 69 77 82 80 80 82 80 75 70
20 24 27 28 29 21 30 25 24 33 30 34 28 25 17 9 11 24 22 19 20 17 22 27 28 38 42 39 37 50 49 52 51 54 59 68 74 81 77 80 83 83 80 81
23 26 24 26 30 31 29 25 31 43 35 31 30 27 27 11 22 29 28 28 24 24 28 28 36 40 40 41 46 54 58 56 59 62 65 73 77 74 75 84 82 82 86 79
22 20 22 22 26 43 36 38 36 32 33 32 31 25 24 28 30 31 34 35 34 34 34 31 35 44 43 48 51 58 65 64 67 70 78 81 82 83 82 78 81 83 77 64
32 20 23 30 43 43 38 34 31 30 31 28 28 27 28 32 31 31 30 28 29 30 35 34 39 47 54 52 51 59 63 65 70 87 87 86 86 82 83 71 73 76 69 65
80 41 35 47 48 45 43 41 39 37 32 32 40 40 48 41 40 42 49 46 38 38 37 40 47 53 58 60 65 61 66 67 80 88 87 89 80 80 79 72 74 78 76 94
92 92 58 41 46 48 49 39 35 38 38 35 37 42 41 45 50 51 51 47 47 47 48 52 53 57 62 63 66 67 69 69 79 81 77 74 68 74 86 73 67 97 96 99

GFSCGP_sfc_rhum_006.txt.gz
RH
10 10 11 10 9 9 9 10 10 10 12 12 18 54 60 33 19 16 19 20 22 25 25 27 29 30 33 43 53 61 64 72 70 74 70 70 69 77 69 65 72 71 71 74
8 10 7 7 8 9 9 11 11 10 12 13 13 35 38 28 19 17 16 18 19 19 23 28 31 30 33 43 54 65 68 74 73 69 74 70 70 62 65 64 73 72 72 78
9 6 5 6 8 10 10 10 11 11 11 11 12 15 20 19 16 16 15 16 16 19 20 30 32 33 34 44 55 63 72 74 75 73 74 83 85 82 76 67 69 70 71 77
8 6 5 6 8 8 11 8 9 9 14 19 14 22 26 20 21 18 16 16 16 18 20 24 30 35 34 42 50 63 71 75 76 77 76 78 69 72 66 69 64 68 70 71
8 7 6 6 6 7 10 8 9 9 11 18 19 22 21 20 22 21 18 17 16 17 18 21 29 33 34 38 48 56 72 77 77 78 77 74 73 64 61 58 75 80 83 75
8 5 5 4 4 5 6 8 8 9 10 18 16 20 19 19 22 18 18 17 17 17 18 21 26 32 36 36 45 53 72 79 77 79 79 80 77 72 62 67 70 68 70 70
8 7 4 4 5 5 6 8 15 16 15 17 12 20 24 18 16 15 27 22 18 18 18 21 26 32 38 41 45 53 69 78 78 77 79 78 77 78 79 76 66 68 62 65
11 11 6 5 5 6 6 7 13 25 18 15 13 16 15 15 15 17 19 25 15 17 16 19 25 30 38 40 46 51 66 76 77 75 81 81 78 68 68 70 62 64 62 62
9 10 6 5 5 4 6 8 6 11 11 13 12 11 9 10 15 18 13 10 11 16 18 19 24 28 36 40 46 53 66 74 75 73 78 82 80 76 69 72 73 65 71 62
9 12 6 6 5 5 5 5 8 9 22 23 14 17 15 15 16 17 17 15 10 11 18 18 20 27 32 35 40 48 56 69 73 72 73 73 76 76 72 72 76 70 68 69
7 10 9 7 8 8 6 6 7 7 10 17 20 16 12 19 18 16 14 11 10 11 17 16 20 22 30 33 38 43 50 63 69 70 71 72 72 73 74 73 74 72 72 72
8 8 13 9 6 5 6 7 7 10 21 12 14 13 8 15 13 11 12 11 11 12 14 16 19 21 27 32 35 40 45 51 60 66 70 71 73 74 73 74 73 73 77 74
8 11 16 12 8 7 7 6 6 6 9 19 16 14 9 12 16 15 12 12 15 16 19 18 17 23 25 29 34 36 41 43 51 61 62 66 69 72 74 76 72 75 75 76
19 10 17 13 15 10 12 8 7 7 9 12 11 14 13 14 15 13 15 14 14 20 27 20 20 24 25 30 37 40 39 38 44 52 56 64 66 68 68 73 76 72 75 77
10 20 14 10 9 9 9 8 7 9 10 12 10 11 14 13 15 15 12 15 16 18 24 25 25 32 34 37 40 39 36 40 39 52 55 62 67 68 71 73 76 75 77 79
9 21 18 16 10 10 10 9 7 7 8 9 9 10 7 9 11 19 14 15 17 18 16 25 28 33 38 37 40 39 38 39 41 50 53 60 67 72 73 75 78 80 82 84
17 15 25 24 14 13 15 12 10 8 6 7 10 10 10 10 14 15 20 16 17 16 17 22 29 31 32 34 39 39 40 40 44 54 55 60 68 74 75 75 78 83 85 85
21 26 22 23 23 29 13 9 8 9 9 7 8 10 10 12 12 12 11 15 18 16 16 18 12 28 36 27 27 36 38 48 50 62 59 62 69 75 76 78 81 86 86 86
16 25 26 29 28 22 17 13 14 14 15 11 10 12 8 9 9 12 10 10 13 13 18 18 12 17 39 34 36 42 42 45 56 56 64 64 71 77 80 83 88 86 88 86
17 35 28 29 32 35 24 21 18 19 26 24 25 24 20 15 12 11 12 10 9 9 11 21 21 22 38 41 34 43 46 49 51 58 63 70 78 83 88 87 89 87 84 84
28 34 31 30 29 22 31 24 20 34 32 31 28 28 27 26 26 30 26 32 28 15 18 23 33 38 46 45 40 51 51 56 53 61 65 74 83 87 88 89 86 85 85 86
33 28 29 34 40 45 24 33 35 38 31 28 27 27 28 29 27 23 22 28 30 28 23 27 44 51 50 49 54 62 67 66 68 71 73 82 87 79 81 88 90 89 88 88
28 22 24 27 27 33 32 39 33 28 33 35 37 29 25 23 23 26 29 30 31 27 33 31 44 56 56 63 63 69 76 72 73 75 81 84 86 82 85 89 90 86 87 77
25 47 27 30 28 33 32 28 28 29 44 46 50 54 56 35 28 30 32 34 39 40 45 45 50 58 66 67 66 72 73 75 77 84 86 86 85 87 87 87 82 75 76 75
86 72 67 36 49 44 41 37 35 39 40 44 49 52 61 65 69 56 57 58 52 56 60 61 62 66 69 74 74 71 76 80 84 85 85 88 88 87 90 84 85 75 89 91
84 93 96 89 50 54 54 40 37 37 36 36 42 48 61 67 71 77 77 73 66 67 66 70 67 71 76 74 75 76 82 83 83 83 83 86 92 90 85 77 76 98 97 96

GFSCGP_sfc_rhum_009.txt.gz
RH
12 17 17 14 10 11 12 12 13 11 14 17 33 37 32 23 27 30 31 31 32 34 32 37 38 37 48 58 61 62 68 79 75 77 84 91 92 88 82 76 82 80 87 87
13 16 13 11 11 10 11 13 13 11 13 18 35 34 25 20 21 23 25 30 31 32 32 37 37 38 43 55 60 66 63 84 74 78 79 86 84 83 81 80 82 78 85 85
14 15 11 10 11 12 12 13 13 14 13 16 32 47 42 27 26 26 24 24 28 30 32 35 36 38 40 53 67 66 65 74 81 81 79 94 93 92 87 86 88 78 81 86
12 10 10 10 9 10 15 11 11 12 13 22 21 38 50 34 39 38 31 22 24 28 29 32 35 38 40 53 58 66 70 73 78 84 79 87 89 87 81 82 68 77 86 87
11 12 11 10 7 7 12 11 11 11 14 26 22 29 35 34 42 45 33 20 21 22 26 32 36 36 38 45 57 70 70 71 74 76 80 82 86 72 78 84 81 88 92 83
11 8 7 9 8 6 6 10 12 12 15 20 24 24 34 33 41 43 25 21 20 20 23 30 32 36 37 45 54 65 76 78 78 76 87 85 84 80 74 86 94 80 79 84
9 9 9 6 9 7 6 11 17 21 22 25 18 25 33 20 21 21 22 21 21 20 21 25 34 38 39 47 54 67 75 79 80 80 78 86 76 77 86 87 82 81 79 93
14 14 10 8 8 9 8 8 14 29 25 22 18 19 20 17 19 18 22 20 20 22 20 24 33 35 40 43 56 63 74 76 79 81 82 75 86 66 71 83 83 74 74 75
13 14 10 8 7 7 9 9 8 15 20 25 18 17 13 18 18 18 20 22 21 19 22 22 28 33 40 43 56 59 75 76 77 80 81 80 78 75 76 86 86 80 67 73
13 22 10 8 7 7 6 9 11 9 17 23 17 20 21 22 21 24 24 23 20 21 21 22 26 33 40 41 49 56 66 75 76 74 81 80 79 71 74 87 82 81 76 79
9 12 12 12 10 9 9 8 9 11 11 18 25 19 17 20 25 26 21 18 19 21 20 22 25 30 38 40 46 54 65 73 76 76 77 78 80 77 72 86 80 79 78 82
9 11 15 12 9 8 7 10 9 17 18 20 15 16 13 10 23 20 18 20 16 23 20 21 23 28 39 42 43 51 66 70 72 73 75 78 79 79 78 72 80 83 74 76
11 11 18 18 12 9 9 8 10 7 17 18 29 16 8 8 17 16 18 20 19 23 25 23 23 31 37 40 42 47 55 68 69 72 74 77 76 80 80 75 81 84 70 80
28 13 14 17 18 15 18 10 9 9 10 11 11 11 13 15 21 21 18 18 18 21 31 27 26 32 34 39 42 43 50 58 66 71 73 74 74 75 76 76 74 85 81 84
17 16 13 13 12 11 10 12 9 10 9 13 11 10 11 11 23 25 20 24 22 22 35 33 28 30 35 38 42 44 45 49 58 66 70 71 71 72 75 77 80 75 87 87
30 29 27 26 14 11 11 11 11 8 8 10 10 11 14 12 12 25 22 18 15 26 34 34 35 30 33 37 43 43 46 47 49 63 66 66 70 72 76 79 82 86 80 91
36 40 40 26 21 20 19 12 12 13 9 10 12 9 12 13 15 23 23 21 15 22 28 30 36 49 31 36 38 43 45 44 49 56 64 65 66 74 75 79 82 90 85 94
32 35 41 28 34 41 22 15 13 13 15 11 12 14 17 17 20 21 18 16 16 16 24 32 30 41 53 35 37 38 42 47 50 55 63 63 69 70 77 79 83 88 88 94
24 30 41 37 34 30 23 17 19 18 17 23 35 34 27 25 21 18 18 21 14 14 14 24 31 36 42 39 38 38 42 48 48 53 57 62 66 72 77 79 85 93 94 93
20 34 45 39 39 36 29 23 24 25 44 40 40 42 38 35 40 31 40 37 28 23 21 18 26 32 48 45 37 40 42 45 48 46 54 60 62 70 83 83 95 97 97 97
41 42 45 47 35 36 42 35 26 45 60 44 38 40 41 47 48 43 38 44 42 42 34 25 29 35 49 53 39 42 41 42 45 45 71 77 80 85 94 97 98 97 96 96
71 80 44 51 52 50 42 38 43 66 52 57 58 59 46 46 42 38 40 41 44 57 36 62 52 57 64 62 49 52 45 52 73 71 90 94 96 95 96 96 94 94 95 95
71 73 76 43 55 58 50 54 63 63 73 71 74 71 70 78 72 66 50 48 46 58 66 68 78 88 89 77 62 78 90 80 79 94 96 96 96 95 97 97 98 97 96 92
53 70 55 62 35 48 57 43 70 75 74 60 69 72 72 81 82 84 80 82 74 72 75 75 77 84 88 86 83 86 84 82 88 97 96 91 93 94 95 96 91 92 98 96
89 82 87 81 67 68 77 79 59 62 60 59 61 66 73 75 81 82 84 91 92 90 87 81 79 88 93 86 87 82 84 87 94 97 96 95 94 95 99 98 100 97 99 98
89 95 97 98 95 96 79 61 56 58 55 56 58 69 76 81 89 84 91 92 94 96 93 84 84 88 93 94 96 96 94 94 95 97 98 98 95 93 92 90 90 93 96 94

GFSCGP_sfc_rhum_012.txt.gz
RH
16 20 22 20 17 14 15 16 17 13 13 28 28 28 27 36 44 47 48 47 45 42 41 42 42 43 48 58 67 70 71 72 77 85 89 97 93 91 91 89 80 82 86 88
18 19 17 15 14 13 12 14 14 13 12 24 34 28 26 31 35 40 42 44 45 43 41 44 41 46 50 63 66 69 70 72 73 74 74 86 96 92 87 85 87 83 86 88
17 16 12 14 15 14 13 13 13 16 14 24 34 41 35 29 28 31 34 35 38 41 42 42 42 45 49 61 66 66 74 74 74 75 82 96 95 94 94 91 92 88 85 86
18 12 13 13 15 15 20 12 11 12 18 23 29 46 46 38 36 30 32 33 34 36 36 40 42 42 49 55 59 62 71 79 76 79 78 79 79 84 76 88 86 90 78 85
18 14 13 16 15 13 14 12 14 14 18 25 24 42 40 38 39 42 33 30 32 32 34 36 40 40 40 48 59 59 64 83 80 80 76 79 81 76 89 89 88 88 95 88
15 11 12 12 11 11 10 12 15 19 19 30 31 32 37 50 34 32 27 29 27 30 31 33 36 37 41 44 54 61 66 69 82 80 78 80 79 82 83 93 93 92 91 91
18 15 12 10 13 12 11 14 18 24 23 27 20 33 29 30 28 27 25 29 28 27 30 32 36 38 40 45 54 64 70 69 72 81 80 79 79 78 83 89 90 87 88 97
20 20 12 10 12 13 14 11 14 24 29 26 21 30 26 25 24 25 22 24 28 23 26 29 33 37 38 44 55 63 72 70 72 76 79 79 77 74 78 86 93 83 78 75
19 16 12 8 8 11 13 14 9 17 46 29 24 21 18 18 24 26 26 28 26 22 23 25 32 35 38 43 54 63 73 70 73 77 74 78 80 76 74 92 84 80 76 73
12 20 12 8 8 9 11 10 18 19 18 19 20 24 19 19 20 28 25 27 24 22 21 22 26 33 38 39 51 60 69 70 74 77 74 75 75 79 77 88 87 84 80 79
9 17 14 13 12 14 13 12 16 13 13 15 26 15 16 18 20 26 26 23 22 22 23 21 23 31 37 39 52 61 68 68 74 76 74 76 77 74 78 85 84 85 77 76
10 11 15 14 11 10 10 11 12 12 18 17 11 12 14 14 15 25 26 22 22 22 23 24 23 30 36 42 51 58 67 68 69 74 76 76 79 79 76 77 78 85 80 76
30 16 18 18 14 16 15 11 9 17 16 13 21 17 12 11 12 24 27 25 27 22 27 28 27 31 36 42 47 56 63 67 68 71 75 80 80 83 81 74 74 84 80 80
40 31 18 17 14 14 17 13 10 10 11 13 13 19 14 17 20 21 26 25 23 24 24 23 29 30 37 42 46 54 59 65 67 71 75 79 81 82 82 77 76 75 82 85
53 55 31 26 15 11 12 13 11 12 10 11 10 13 12 12 14 12 14 23 24 18 30 25 28 32 42 45 46 50 58 63 66 71 75 77 78 79 82 82 80 77 86 81
55 55 44 39 20 11 12 13 12 13 10 10 12 12 10 9 12 18 19 22 24 24 31 30 27 32 40 43 47 47 55 64 65 72 74 74 79 81 83 85 86 82 90 94
62 57 49 54 28 16 19 12 12 12 12 11 13 12 14 14 16 17 16 18 23 28 35 35 29 32 34 40 43 47 52 59 66 71 74 76 78 82 84 84 87 91 85 97
53 54 53 52 44 33 23 12 12 14 15 14 10 12 13 12 10 19 21 19 23 18 28 31 33 30 33 35 41 44 46 55 65 69 73 76 79 81 82 86 87 93 89 96
33 44 49 57 56 31 25 23 18 17 21 32 19 22 16 17 18 25 25 20 18 22 23 26 36 42 41 36 40 45 49 51 57 64 70 73 76 78 84 86 87 90 93 94
43 30 38 44 49 45 29 29 25 26 66 46 50 43 34 30 21 34 39 42 22 24 21 23 24 46 48 36 36 43 48 52 55 56 61 68 72 75 81 83 85 93 95 97
80 82 48 48 53 40 52 47 31 38 44 50 51 51 47 48 45 41 47 43 45 40 29 26 28 28 44 47 40 42 45 50 49 51 54 63 69 73 82 92 94 97 98 98
93 93 85 58 74 76 36 46 37 54 86 76 81 82 82 88 86 71 60 51 45 38 36 52 37 38 35 47 42 43 46 44 47 51 56 66 72 79 93 95 98 98 98 99
93 90 81 61 87 61 52 79 80 85 87 90 92 89 87 87 90 90 96 95 90 90 81 87 78 72 91 71 44 44 43 45 53 56 66 74 82 93 95 98 99 99 99 99
84 85 74 72 67 82 96 84 78 77 83 77 78 81 84 90 88 90 94 98 97 94 89 81 86 96 93 91 73 50 54 54 61 81 92 94 95 97 96 99 97 98 99 98
89 88 89 84 80 88 80 88 83 69 67 71 75 80 86 85 93 94 97 97 97 95 89 88 89 86 85 93 94 87 77 84 89 96 98 98 99 98 100 100 99 99 98 95
90 98 99 98 97 98 90 86 83 73 72 68 72 81 88 88 95 94 98 97 92 89 91 88 86 84 84 92 92 96 94 94 97 98 99 99 99 99 99 99 100 97 98 100

GFSCGP_sfc_rhum_015.txt.gz
RH
22 28 30 23 20 18 18 19 19 16 16 31 31 39 56 54 56 62 62 61 62 62 57 54 52 50 54 60 66 69 70 74 79 86 92 95 88 94 95 92 86 90 90 92
22 24 22 19 19 18 17 18 17 14 14 20 30 35 51 52 52 55 59 60 60 58 58 55 54 52 50 62 67 72 70 73 76 75 76 80 94 95 90 91 88 88 90 92
21 19 16 17 19 18 19 19 16 16 17 21 38 47 42 52 48 48 48 48 52 52 59 58 52 52 50 60 69 73 72 71 74 73 77 97 97 97 97 96 94 89 86 88
20 14 15 17 18 19 25 16 14 14 20 23 36 51 51 44 55 51 50 49 47 45 45 50 51 50 50 58 65 69 71 71 72 76 76 76 80 79 84 94 95 88 87 85
21 18 16 17 15 17 18 16 16 19 21 27 24 39 38 40 46 45 44 44 45 44 43 44 48 46 47 52 63 68 72 72 71 76 72 75 75 75 93 96 92 94 95 90
17 15 14 16 14 13 16 18 16 24 26 31 19 27 24 53 36 35 34 36 38 40 41 42 41 43 48 50 60 66 74 75 73 77 75 76 76 85 94 96 90 94 98 97
21 16 14 13 17 18 18 19 28 25 30 24 19 34 20 28 33 28 31 31 32 33 36 39 41 42 44 52 60 66 72 78 77 80 78 78 76 80 84 87 88 96 98 99
27 28 18 14 16 18 19 18 30 28 34 24 24 31 25 20 25 27 23 26 27 30 31 34 36 39 43 46 58 64 70 73 80 83 80 78 76 77 76 83 80 83 90 88
27 25 15 13 13 13 17 19 14 20 43 27 28 23 20 18 22 29 28 24 27 28 30 31 33 35 39 44 51 63 67 65 73 80 79 80 79 77 79 88 81 81 85 84
18 22 15 12 13 13 13 13 22 24 24 24 23 24 22 22 19 30 33 30 27 30 28 29 31 32 36 39 44 56 62 63 63 71 73 75 79 78 78 85 86 83 85 86
22 18 16 14 15 15 18 15 19 18 19 19 20 17 15 19 21 23 29 30 29 30 28 25 28 30 32 36 43 54 61 62 61 64 68 70 76 78 79 82 85 85 86 85
45 27 18 15 14 9 10 12 18 18 21 20 16 16 16 14 15 20 20 27 27 27 27 24 24 27 33 38 42 53 58 63 60 64 68 70 72 76 82 80 82 84 85 86
56 51 28 20 24 18 15 14 13 15 19 16 18 18 13 14 16 18 22 28 28 32 29 26 23 28 34 39 42 52 57 61 60 65 69 72 75 78 80 80 78 87 82 85
51 59 43 33 24 21 19 15 13 14 17 15 14 15 17 15 15 14 20 24 32 35 31 30 34 31 36 39 43 53 57 59 59 65 70 74 76 80 77 74 77 78 85 86
61 70 53 44 34 30 23 16 12 15 13 15 13 14 12 16 16 14 14 18 31 32 30 27 30 32 37 41 45 53 56 62 59 66 71 74 74 77 81 80 78 78 85 84
65 66 58 46 30 28 26 16 14 12 12 12 12 16 12 11 15 14 12 15 19 26 27 28 22 25 32 38 45 49 57 61 62 67 70 71 76 80 84 84 84 83 86 87
67 69 66 63 40 38 31 19 15 12 13 12 14 13 12 11 12 13 12 18 19 18 24 26 31 28 33 38 42 48 56 58 67 69 71 73 76 83 86 86 87 88 88 92
69 70 68 65 57 50 24 22 13 13 15 15 14 14 15 12 10 13 15 16 19 22 27 36 31 29 33 37 41 43 52 61 68 71 72 75 79 81 85 88 89 90 88 95
57 58 69 61 69 46 27 28 26 15 17 22 15 15 15 16 20 18 22 23 20 22 25 33 37 34 35 39 42 46 52 60 69 72 73 75 78 81 85 89 90 88 89 95
51 50 50 62 65 56 42 48 51 48 19 47 35 22 17 21 19 14 37 37 24 21 26 33 46 48 46 41 41 47 52 59 69 70 70 72 76 79 84 86 87 90 91 95
65 75 72 57 60 52 61 82 57 47 26 49 48 48 39 25 21 29 46 47 52 39 39 37 31 52 47 48 49 52 52 55 56 62 65 69 74 78 80 89 92 94 95 95
79 82 92 61 71 78 78 79 89 90 92 78 73 83 85 87 89 93 96 98 98 97 95 96 94 87 76 56 58 51 54 51 52 56 61 71 72 78 84 93 95 96 95 91
85 78 92 64 74 74 80 76 89 91 97 95 91 92 87 92 98 99 99 98 94 91 82 78 82 91 88 98 90 64 50 50 52 55 59 64 73 82 86 96 95 92 93 95
74 94 80 80 64 80 84 80 84 85 89 86 88 91 91 97 97 96 95 94 88 85 79 75 66 68 74 87 87 90 93 64 60 56 59 64 74 81 86 95 89 95 99 99
88 91 74 86 80 80 85 85 87 86 75 78 87 90 95 91 96 95 96 96 95 93 89 86 84 84 78 85 84 78 77 81 69 74 84 90 90 94 98 100 99 98 98 99
90 87 92 83 92 90 98 94 79 81 83 74 86 90 92 90 94 92 96 97 97 96 96 94 92 87 85 91 96 94 86 79 93 93 97 97 98 99 99 99 99 100 100 100

GFSCGP_sfc_rhum_018.txt.gz
RH
28 32 31 29 24 22 23 22 22 22 16 27 35 50 68 61 62 65 66 67 67 66 62 60 61 61 64 72 78 80 83 86 86 90 95 96 91 92 91 90 89 92 91 91
28 31 28 21 21 20 20 22 21 20 15 19 20 26 61 63 63 60 62 66 65 64 64 63 62 60 62 69 74 79 81 83 86 84 85 89 91 92 87 89 89 90 91 90
25 24 23 23 24 22 24 22 22 21 19 20 34 43 47 60 60 57 56 57 59 62 64 64 63 61 59 67 72 75 79 81 83 83 85 96 96 96 94 92 91 88 89 90
24 19 20 24 23 21 31 19 17 16 20 23 35 40 54 63 66 59 59 60 59 59 59 61 61 61 58 61 67 72 77 79 81 84 84 87 82 84 81 88 87 88 88 88
24 21 19 20 19 20 22 17 18 18 21 26 31 30 34 61 74 64 56 55 56 55 56 59 59 57 56 56 61 70 78 80 81 83 80 83 82 78 88 93 92 91 93 89
21 18 16 17 16 17 18 19 20 29 29 33 23 26 33 58 60 60 53 51 49 48 50 52 55 56 55 54 58 66 79 81 80 82 82 83 82 86 89 94 90 90 92 88
24 20 19 16 19 21 20 24 35 33 34 28 24 29 20 30 35 38 46 46 46 46 46 47 50 55 56 57 61 68 78 83 80 82 83 81 82 85 86 87 84 91 92 96
27 31 19 16 18 21 24 24 37 38 35 27 29 28 25 17 29 29 28 32 36 40 42 44 45 48 53 55 60 68 76 82 80 81 83 82 82 78 77 82 81 82 82 83
32 29 19 16 16 15 24 23 19 26 52 29 30 27 22 23 21 34 30 28 31 33 37 41 42 44 48 52 58 67 74 78 79 78 81 82 81 81 80 82 84 81 86 83
26 33 19 17 14 17 17 18 23 31 35 36 30 28 26 29 22 25 36 36 30 29 32 33 36 40 43 44 52 60 66 73 74 78 78 77 80 81 80 81 86 85 85 88
50 24 23 17 21 19 21 21 25 22 29 31 31 23 22 22 26 22 21 32 31 29 30 30 33 34 38 40 46 56 63 68 70 77 80 78 79 80 80 81 84 85 86 89
66 46 28 22 17 15 14 16 20 22 27 27 28 20 18 17 15 21 21 30 34 36 35 32 30 32 35 40 42 49 58 60 64 70 79 79 79 81 81 84 83 86 87 88
57 55 36 23 24 20 19 17 18 19 25 22 24 21 11 17 19 19 23 25 32 40 42 39 33 33 36 37 42 45 52 55 57 64 71 76 77 80 83 83 81 87 88 89
51 66 49 43 40 41 35 23 17 17 20 18 18 16 20 21 20 19 22 26 28 34 39 42 40 34 35 40 45 49 51 53 57 59 65 74 75 77 79 82 82 86 87 90
58 60 60 52 42 37 34 30 26 21 15 18 16 15 18 19 21 19 17 22 26 28 36 47 43 40 43 46 49 50 52 59 59 65 66 71 74 76 79 84 84 85 87 87
69 62 66 57 37 34 37 31 29 24 20 19 15 19 16 15 19 21 20 22 25 27 33 43 46 46 50 47 52 50 57 61 62 68 69 72 76 80 82 84 85 87 90 88
71 76 70 64 46 44 39 24 22 21 19 17 19 17 16 16 20 19 16 20 21 24 30 39 42 42 39 42 48 51 55 59 67 70 72 76 79 83 85 85 86 88 88 90
70 78 75 72 64 55 30 31 31 22 16 17 16 19 18 15 13 15 15 14 18 21 28 33 30 36 40 38 38 48 58 68 73 74 75 78 81 83 84 88 88 88 86 90
58 73 73 71 69 42 30 52 66 68 56 24 17 18 20 16 18 20 21 21 19 20 26 28 35 40 44 45 44 53 61 68 73 75 77 78 80 83 85 89 89 87 87 90
70 56 62 74 70 61 54 62 59 68 79 77 52 19 17 22 23 22 24 36 27 34 33 36 46 56 54 60 58 58 62 68 73 75 75 77 80 82 84 87 88 87 88 92
84 88 80 67 73 56 57 73 73 62 64 88 90 83 23 22 20 43 83 96 97 97 89 55 63 62 59 64 64 70 71 69 67 70 74 78 80 83 82 86 87 91 92 91
87 91 94 79 85 72 60 76 87 88 89 86 94 93 68 75 95 97 94 94 91 92 94 91 94 98 99 84 72 76 77 72 71 78 79 81 82 78 78 89 92 93 92 90
80 83 90 71 73 63 79 77 87 89 90 89 97 94 96 97 96 91 94 92 87 82 79 75 71 81 88 93 89 90 94 90 76 79 84 83 83 81 85 92 94 91 89 90
74 86 87 81 64 72 82 86 88 88 92 86 94 96 93 96 93 93 90 87 84 81 79 73 73 77 81 84 82 82 80 90 86 80 84 85 85 85 86 87 86 86 94 95
85 92 90 88 72 82 89 91 88 86 85 84 87 91 94 88 93 89 93 95 94 92 91 89 87 85 86 86 89 87 86 83 85 92 88 89 83 89 92 94 95 92 92 93
90 90 93 85 79 86 91 93 89 90 91 88 91 92 93 94 98 97 98 99 99 99 98 97 98 96 96 95 95 94 94 92 90 92 96 92 90 94 96 99 100 100 100 100

GFSCGP_sfc_rhum_021.txt.gz
RH
22 21 24 20 17 14 13 13 15 13 12 18 22 26 31 42 43 45 50 50 51 50 46 49 52 51 55 61 67 72 74 78 74 71 68 66 64 62 63 61 68 73 72 75
25 23 17 16 18 16 14 14 15 14 12 13 15 18 18 37 46 44 48 49 49 47 48 52 52 52 54 61 67 74 76 80 78 68 70 63 65 58 62 61 67 70 71 75
20 17 16 20 19 18 15 13 14 15 13 12 15 16 21 37 39 42 43 44 45 45 48 52 54 52 53 60 68 73 79 79 78 75 70 71 70 71 69 66 64 67 71 73
14 14 19 20 20 16 14 11 12 15 16 18 17 20 26 25 42 45 44 45 45 44 46 48 52 54 52 58 62 70 75 79 76 80 74 82 68 66 61 62 61 63 70 69
17 19 20 22 19 16 14 12 13 14 15 16 15 20 18 34 39 43 42 42 43 41 44 47 50 50 50 52 56 63 75 80 79 82 79 74 74 60 57 59 73 79 73 71
13 14 15 16 16 17 14 16 16 18 15 22 18 17 17 19 26 31 37 40 42 41 40 45 46 48 50 49 52 58 74 81 80 80 81 83 80 73 64 69 64 62 60 61
16 16 13 13 15 15 15 15 20 20 20 20 15 18 19 15 21 17 29 37 39 41 41 42 48 49 53 55 56 58 72 80 79 78 79 79 80 80 79 75 65 66 60 59
19 22 15 13 15 16 17 14 14 24 17 15 20 21 16 14 13 19 20 25 32 37 38 40 43 49 54 54 58 59 66 77 77 76 81 81 80 66 66 70 59 59 57 59
18 17 14 12 12 12 17 19 11 14 18 16 13 14 15 15 14 16 18 20 26 30 34 38 41 43 50 53 58 61 66 72 73 71 77 80 79 77 69 73 73 61 69 56
20 23 14 14 12 12 14 12 17 14 22 21 15 20 14 20 17 17 19 18 20 22 28 32 36 39 43 45 50 55 60 67 69 70 70 71 74 76 73 73 76 72 67 69
27 20 18 16 16 16 16 16 15 13 14 14 14 11 17 20 23 19 17 17 18 20 23 25 31 36 39 41 44 49 56 64 67 69 71 72 71 72 74 72 74 75 72 73
38 20 21 18 13 11 13 15 15 16 27 16 13 11 12 13 14 18 15 16 18 24 26 26 25 30 35 40 42 44 49 53 59 66 72 72 72 72 71 73 73 75 77 74
35 32 28 22 15 14 16 14 14 12 14 26 16 12 9 13 15 14 14 15 21 26 30 30 25 28 34 36 42 40 45 44 48 61 64 68 70 72 74 75 72 75 77 77
38 35 33 23 23 26 26 17 15 14 17 18 17 14 13 14 16 16 17 19 19 23 28 32 33 36 35 38 44 46 43 43 46 52 59 69 71 70 70 74 75 74 77 78
36 38 37 32 30 27 27 23 20 20 18 20 16 15 15 15 16 15 14 18 21 21 21 27 32 44 48 45 47 48 44 49 48 58 59 66 71 71 73 76 77 76 77 76
37 37 44 36 26 24 27 24 23 21 20 19 17 17 12 15 16 18 15 16 19 22 20 22 28 37 43 46 49 48 49 48 54 62 62 66 72 76 77 78 80 80 79 79
46 41 42 36 31 30 30 24 21 20 19 18 20 17 14 14 16 19 19 19 20 19 20 22 25 32 40 41 47 47 51 51 60 66 65 67 73 77 79 78 80 81 81 79
50 51 38 32 35 40 21 19 24 23 19 15 16 16 15 16 18 19 17 17 20 20 20 24 18 25 42 34 30 43 46 60 65 67 68 69 73 76 78 79 81 82 78 81
47 46 34 31 32 28 24 21 39 46 25 31 42 22 14 13 14 21 16 17 21 20 21 22 19 22 40 42 42 49 50 58 63 66 70 70 72 75 76 80 81 78 78 79
40 50 44 36 30 33 26 24 41 51 39 55 63 59 48 17 17 15 18 16 16 17 19 23 25 30 36 41 36 48 48 56 63 64 66 68 72 74 76 78 81 79 78 76
59 57 54 46 43 28 23 37 58 61 38 63 63 68 70 63 24 27 35 33 46 46 31 28 38 43 48 50 42 54 52 58 55 57 62 70 73 77 77 81 80 80 80 78
54 65 68 48 47 47 24 29 39 62 65 65 66 72 81 72 65 39 50 60 64 63 57 50 58 63 62 56 55 58 64 58 61 64 67 74 77 69 67 82 82 82 83 86
57 45 64 40 34 35 36 49 57 67 71 69 72 71 79 79 62 58 65 67 64 61 64 64 65 70 69 66 62 69 75 66 65 69 74 75 76 76 76 81 82 79 84 81
53 56 66 52 37 39 39 40 44 62 69 66 70 82 80 80 73 68 65 60 56 54 54 50 53 60 70 69 69 71 70 76 70 70 74 74 76 79 77 68 68 72 74 83
63 61 61 61 55 52 41 39 47 62 63 71 75 77 75 72 68 64 66 69 65 65 63 64 68 70 75 73 74 69 71 69 63 70 72 71 65 74 73 73 66 69 71 69
60 68 70 54 53 69 67 60 61 62 68 74 81 80 86 81 88 88 90 91 89 89 85 85 83 84 85 76 79 79 81 77 73 69 58 54 54 55 61 64 90 100 96 100

GFSCGP_sfc_rhum_024.txt.gz
RH
14 14 15 11 12 11 11 12 13 12 12 13 14 14 14 18 24 24 31 35 35 35 34 34 37 37 40 44 52 58 61 66 61 57 55 50 45 45 43 41 50 56 58 61
15 16 10 9 9 11 12 12 12 12 11 12 13 13 13 15 24 24 29 32 33 32 33 37 38 37 38 45 52 61 64 68 67 56 56 47 46 40 42 42 52 56 57 63
14 12 10 10 12 13 12 13 12 13 12 11 12 14 14 11 15 21 23 27 29 32 33 36 38 38 38 44 53 59 66 67 68 62 55 55 50 48 46 46 48 53 58 60
11 10 12 12 12 11 13 9 10 10 12 16 12 18 16 13 15 18 20 24 27 30 31 33 35 37 37 42 47 56 63 68 66 69 61 71 53 51 45 48 44 46 58 58
14 12 12 13 13 11 11 6 8 10 11 13 14 15 15 13 15 14 17 19 24 26 29 32 34 35 34 39 43 50 63 71 69 71 68 59 63 48 44 43 58 67 62 60
11 8 9 11 10 10 9 9 9 10 10 15 15 14 15 13 16 14 16 19 24 26 27 30 32 32 34 36 41 47 64 76 73 71 72 73 71 63 49 53 47 47 47 49
12 10 10 9 12 11 11 11 14 14 13 14 12 14 16 12 11 12 12 14 22 25 27 28 33 34 35 39 42 47 60 74 70 68 69 71 71 71 68 61 53 55 44 42
14 15 11 10 12 13 13 11 10 20 11 10 12 15 13 10 10 10 10 10 16 23 24 26 31 34 38 38 44 48 57 70 69 68 74 75 75 56 56 59 48 48 42 43
14 14 8 9 10 10 14 14 7 8 10 10 8 10 9 10 10 10 10 10 11 20 24 27 27 31 36 40 45 51 58 67 65 61 70 74 73 71 57 64 62 48 57 42
14 17 10 9 9 9 10 10 11 9 19 18 10 12 11 13 13 12 11 10 11 15 22 23 25 27 31 34 38 46 52 61 62 60 62 62 65 70 68 65 67 64 55 59
15 14 13 11 12 12 11 11 11 8 9 12 12 8 9 12 13 12 11 11 10 13 16 19 21 24 25 29 34 40 46 54 55 57 61 63 60 61 66 64 66 68 62 63
17 15 18 13 9 8 9 12 12 12 19 11 11 8 6 8 8 10 10 10 10 11 13 14 15 19 24 28 30 34 38 42 48 52 63 63 63 63 60 67 66 68 69 65
22 19 20 17 12 11 11 11 10 10 10 19 13 9 8 10 11 12 12 11 12 14 17 17 15 17 21 24 31 30 32 34 36 49 51 56 58 61 63 67 66 68 70 70
34 21 21 17 18 14 16 12 11 11 13 13 12 11 10 9 11 11 10 11 11 15 17 16 17 18 20 25 33 37 31 30 32 36 44 55 60 61 60 66 70 67 70 71
25 30 27 20 21 18 13 12 12 13 14 15 12 12 11 11 11 11 10 11 11 12 14 16 20 24 29 29 35 40 36 34 33 42 42 52 61 63 64 68 70 69 70 70
23 32 30 28 21 20 19 17 14 13 12 13 12 13 9 10 12 12 12 12 13 13 11 11 13 22 25 29 34 34 40 36 40 46 47 53 63 68 69 71 73 74 72 72
32 27 33 30 21 21 25 19 18 16 15 15 17 16 13 13 13 13 12 12 12 13 13 13 13 15 19 19 28 32 38 39 44 52 54 58 65 70 72 70 74 76 76 73
36 35 28 25 29 38 19 13 14 16 15 14 15 15 14 14 14 13 12 12 12 11 12 14 10 10 12 14 12 25 31 49 51 58 58 62 68 69 70 73 75 77 73 74
26 33 28 30 28 22 18 17 18 20 19 14 15 16 13 13 12 14 11 10 13 13 13 12 10 12 18 17 19 24 33 42 49 56 61 62 63 66 69 74 76 74 73 73
23 35 30 27 32 32 20 14 22 21 29 18 28 27 27 29 23 14 12 9 10 11 12 13 13 14 16 22 20 27 31 38 50 53 56 60 64 67 69 72 77 74 73 71
26 35 37 30 29 22 16 23 33 37 47 39 36 38 42 44 34 37 38 31 25 21 21 20 21 21 24 27 26 31 35 39 43 47 48 57 63 69 70 74 74 74 73 67
31 32 29 30 32 32 15 18 32 47 47 41 41 44 50 50 52 52 48 45 35 28 26 31 28 28 33 39 40 41 52 44 48 50 52 60 66 58 54 76 75 75 74 78
34 26 27 26 25 26 20 24 27 28 35 43 41 37 45 51 56 54 49 44 37 37 38 36 32 43 48 50 48 52 54 52 53 56 60 60 63 63 65 73 76 67 76 63
35 30 35 33 28 30 28 25 24 28 33 31 35 35 43 49 57 59 50 45 46 45 46 43 47 51 61 61 58 62 62 59 61 64 66 64 65 68 65 55 56 57 54 61
32 37 43 44 38 31 27 30 30 30 34 38 36 42 51 58 68 55 51 54 50 51 51 52 53 57 61 62 62 58 60 57 60 62 60 62 56 64 61 64 51 51 56 51
40 45 44 41 33 36 37 31 42 44 45 44 42 48 56 82 76 73 78 80 74 74 72 75 76 72 64 64 68 70 70 67 61 54 43 39 37 38 45 48 54 97 95 100

GFSCGP_sfc_rhum_027.txt.gz
RH
19 21 24 16 18 15 12 11 11 10 10 11 14 15 13 14 15 17 23 26 27 27 26 26 29 29 31 36 44 52 56 64 57 52 51 47 43 43 38 36 43 49 51 58
17 21 14 12 10 12 12 12 11 10 9 11 13 14 11 12 14 16 19 23 26 26 26 28 30 29 31 36 45 57 61 67 64 53 56 48 47 37 38 37 49 49 53 58
14 11 10 8 8 9 10 11 11 10 10 9 12 14 14 11 12 16 16 20 22 25 27 30 31 31 31 38 46 57 66 68 68 64 56 55 49 46 41 41 41 48 53 54
13 8 9 8 8 7 9 7 8 9 11 14 11 17 16 12 12 16 16 18 21 22 25 29 29 31 31 36 41 55 65 69 67 71 58 67 50 46 38 42 39 44 56 53
15 10 9 10 8 7 8 6 8 9 10 12 12 15 14 12 13 11 12 16 18 20 22 26 29 30 29 32 37 47 65 71 69 72 70 56 60 41 38 37 56 60 64 57
10 7 7 8 8 7 7 8 7 8 8 14 13 13 15 12 13 11 11 12 15 17 20 24 27 28 29 29 33 43 65 75 73 72 74 72 68 57 44 48 43 42 42 50
11 9 8 7 9 8 9 9 11 11 10 12 10 12 14 10 9 10 10 11 12 14 18 23 27 28 30 33 36 42 62 74 73 70 71 71 69 70 67 61 45 49 39 38
12 14 9 7 9 10 10 9 10 19 11 8 9 13 11 9 8 8 9 9 12 13 16 20 25 28 31 33 39 43 56 71 72 70 74 75 73 53 52 56 42 42 37 38
12 13 8 8 7 8 11 11 6 7 6 7 6 8 7 8 8 9 9 9 10 13 16 20 23 26 30 32 40 46 55 66 68 65 71 74 74 70 55 62 61 46 54 37
12 15 9 8 7 8 9 8 9 8 16 15 8 10 9 11 11 10 10 10 10 10 15 18 20 24 27 28 32 40 48 60 64 62 65 65 68 72 66 63 66 61 54 58
11 12 12 9 10 11 10 10 10 7 8 11 12 9 7 10 11 11 10 9 9 9 14 17 20 20 24 26 29 34 42 52 59 60 63 64 64 64 68 64 64 66 62 62
12 13 17 11 8 8 8 10 10 11 18 8 8 8 6 6 6 9 10 9 9 9 12 16 17 18 20 25 27 30 35 39 49 55 62 63 62 63 63 68 64 66 68 64
16 18 21 16 10 9 10 8 8 9 8 16 10 9 7 8 8 9 9 9 10 11 12 13 15 17 18 20 26 26 31 32 35 48 50 57 60 60 62 66 66 67 69 68
35 21 22 17 15 11 13 9 8 9 11 11 10 9 10 10 11 11 11 10 10 12 14 13 12 13 16 21 28 31 27 28 31 35 41 52 58 59 58 62 68 66 69 70
22 31 22 16 12 10 10 10 9 11 11 12 10 10 10 10 12 11 10 11 11 13 14 14 14 17 20 24 30 33 28 30 30 38 39 48 57 60 62 66 66 68 68 69
20 30 26 22 14 16 15 11 10 9 10 10 9 9 8 9 9 10 10 10 11 12 11 12 13 16 20 22 28 31 36 32 33 41 42 48 57 64 67 69 71 72 71 71
31 25 29 30 20 19 23 15 12 10 10 10 12 11 9 10 11 11 12 12 12 11 10 11 11 11 16 18 22 26 35 36 39 44 47 50 58 64 69 69 71 74 75 72
32 36 31 27 27 35 18 12 12 13 11 10 11 12 11 12 12 12 11 12 12 12 12 11 8 10 12 9 8 20 22 43 46 49 50 53 57 62 68 72 74 75 72 75
21 29 30 30 25 21 17 14 14 16 16 12 13 13 12 11 12 14 11 11 12 12 11 10 9 9 15 12 12 14 22 33 45 50 54 54 56 62 67 73 75 72 73 74
18 24 29 29 31 32 18 14 12 14 20 13 13 13 13 13 16 17 26 25 20 13 13 13 10 10 11 15 12 14 17 27 44 48 51 57 59 64 67 71 76 73 72 72
24 28 30 29 32 22 17 18 15 29 51 33 18 20 22 26 29 38 35 36 33 32 28 23 23 23 21 20 17 28 25 27 34 40 46 58 61 67 69 73 73 75 74 69
28 28 29 28 32 34 14 14 29 42 37 40 38 36 40 38 38 37 37 40 38 35 29 22 25 28 27 25 27 39 43 39 42 46 51 60 65 57 54 75 75 75 76 79
30 27 23 24 24 24 20 22 18 21 29 30 34 31 31 30 35 36 41 46 42 35 34 30 30 31 32 41 44 46 54 48 49 55 61 61 64 64 65 71 76 66 74 63
31 26 24 28 25 23 21 19 20 22 23 24 25 24 30 32 37 41 43 44 40 38 42 36 39 40 49 55 49 49 55 51 52 58 62 61 62 66 65 53 54 56 52 54
28 28 30 29 27 26 24 24 22 21 22 25 28 34 34 33 38 49 50 54 47 46 45 46 48 53 59 61 61 58 59 60 58 60 59 61 54 63 62 63 48 48 55 50
26 32 34 33 29 31 32 26 24 24 27 32 35 36 34 35 43 56 59 59 64 70 74 75 67 59 60 64 71 67 63 60 55 59 52 46 41 45 51 48 56 80 89 99

GFSCGP_sfc_rhum_030.txt.gz
RH
19 21 21 17 17 17 17 15 14 12 12 14 14 16 17 24 57 39 27 29 28 29 28 31 30 30 34 42 52 57 62 72 67 66 66 64 60 61 60 60 64 73 70 73
22 24 18 14 14 16 16 16 13 10 9 11 13 13 15 24 46 42 28 41 28 26 28 32 33 31 32 44 55 62 65 72 70 66 70 63 64 57 57 60 66 66 67 78
24 19 15 16 16 15 16 17 14 12 9 9 13 15 15 17 16 18 20 28 23 26 27 31 35 33 34 46 55 64 69 74 72 70 69 71 70 69 61 60 62 63 67 70
21 15 15 17 16 14 15 13 11 12 12 13 10 17 19 15 14 15 16 21 22 26 27 30 33 34 35 42 51 64 69 74 73 74 70 76 65 61 59 61 60 62 67 69
22 16 14 14 14 10 10 7 10 10 11 12 11 14 14 15 15 14 16 19 28 23 25 29 31 34 33 38 47 59 71 75 76 75 77 68 70 60 56 57 70 73 75 71
17 13 10 8 8 7 6 7 7 8 9 16 13 13 16 14 17 13 14 14 19 21 24 29 30 33 34 36 44 54 73 78 77 78 76 80 75 69 59 62 60 64 66 68
16 16 12 8 9 8 7 8 12 14 13 14 11 13 16 12 14 12 12 13 15 20 22 28 34 33 36 39 46 52 72 79 77 77 75 78 76 74 78 73 60 63 58 62
17 17 13 8 8 10 9 8 12 23 15 11 10 14 12 10 9 11 10 11 13 15 17 24 32 34 38 38 45 52 69 78 77 74 80 77 80 66 63 70 55 59 56 56
15 15 9 8 7 8 10 11 7 9 8 9 8 9 8 9 9 9 8 10 12 13 15 22 28 32 37 37 45 51 65 74 75 73 77 80 78 76 65 71 70 62 68 53
13 16 9 8 7 7 9 8 11 10 20 18 10 12 11 13 12 11 11 9 11 13 15 20 25 30 34 33 38 45 56 70 73 73 72 73 75 76 72 68 75 68 66 67
10 13 11 9 11 11 9 10 10 9 10 13 14 9 9 14 13 13 11 11 11 13 16 18 24 26 31 32 35 40 47 62 69 71 73 73 73 73 72 70 71 73 69 75
11 11 16 13 8 8 8 10 11 14 21 11 12 10 7 9 10 10 11 11 11 13 17 17 20 24 29 32 33 38 42 48 60 68 73 73 73 74 73 72 69 72 75 70
25 20 20 19 11 9 10 9 10 10 10 20 14 10 8 9 10 12 11 12 14 16 16 17 19 23 27 30 34 34 39 40 48 62 65 68 70 72 73 75 70 71 73 75
34 27 24 20 18 12 14 10 10 10 13 14 11 12 11 10 10 12 14 14 14 19 19 19 20 25 25 31 37 38 36 36 40 50 58 67 69 69 69 72 75 71 73 74
23 34 24 16 13 11 10 10 10 12 12 15 11 10 14 15 14 13 13 16 16 18 19 22 21 30 33 36 39 40 35 39 38 46 54 61 67 68 70 72 73 74 73 72
26 34 28 26 16 14 15 10 10 9 9 10 10 9 10 13 15 15 17 16 17 18 17 19 22 25 28 36 40 40 40 38 41 49 49 57 65 69 72 73 75 76 76 76
34 34 35 35 23 20 20 14 11 10 9 9 12 12 12 14 15 16 15 14 15 13 13 17 20 24 28 28 40 41 42 41 47 51 53 56 64 68 72 72 75 76 78 77
32 38 37 35 31 39 19 13 12 10 9 8 10 11 13 15 15 14 13 13 14 13 17 21 12 18 26 16 17 31 38 52 53 59 58 61 64 68 71 74 76 77 76 78
22 30 35 37 33 26 19 16 15 15 13 9 10 10 12 12 12 16 12 12 13 17 18 18 13 16 30 23 26 30 33 47 52 54 59 60 64 66 70 74 77 76 76 78
19 26 31 36 37 37 23 14 11 12 20 28 16 13 12 12 15 32 38 33 32 30 32 34 30 27 21 30 21 30 32 42 52 52 55 60 61 67 68 72 77 77 77 77
27 30 31 32 37 28 33 18 13 24 57 40 33 23 20 29 41 40 34 37 37 37 35 34 36 38 43 43 37 49 42 40 45 50 52 62 66 67 70 75 77 78 79 77
28 34 32 30 36 44 23 23 38 49 39 35 37 35 37 35 34 35 36 41 43 42 36 31 37 39 39 41 47 54 57 56 55 59 59 67 70 61 59 77 80 80 81 84
34 29 29 28 28 39 26 27 24 23 30 29 33 28 29 32 34 37 43 46 49 43 40 38 41 46 48 50 59 63 70 62 61 64 71 70 73 71 72 78 81 77 82 79
44 31 30 33 29 30 23 19 19 21 23 27 23 25 33 37 34 36 44 49 57 50 50 45 49 49 66 68 66 66 67 63 64 69 74 74 76 77 74 67 69 71 72 74
29 32 38 36 28 26 24 23 22 22 22 24 24 25 33 35 36 38 44 56 57 63 69 68 64 58 63 66 68 65 67 71 65 67 70 73 67 76 74 73 64 69 69 66
27 32 31 34 34 42 42 30 23 24 24 24 26 29 34 34 40 41 52 63 67 66 67 73 70 62 72 76 75 70 68 69 72 72 64 60 58 61 64 67 70 86 94 100

GFSCGP_sfc_rhum_036.txt.gz
RH
26 26 30 25 23 25 30 34 37 29 22 23 26 40 58 53 55 63 68 66 60 56 50 50 49 46 46 58 55 55 56 68 72 85 88 84 78 80 84 80 74 82 84 84
40 33 23 23 21 22 25 29 34 28 25 26 27 42 49 52 54 57 60 60 56 52 51 48 51 48 46 58 57 58 58 64 69 67 72 80 84 85 80 78 80 81 84 87
34 33 24 24 24 24 25 28 27 34 26 23 22 46 41 45 51 51 53 50 51 46 45 48 48 49 46 57 59 60 61 63 63 71 80 93 91 87 84 83 93 82 85 87
26 25 24 28 26 22 29 20 21 23 29 36 21 45 63 56 57 52 47 50 52 47 40 43 44 48 45 55 54 62 64 66 65 74 71 71 70 76 82 78 88 87 86 87
23 24 29 28 28 23 24 20 21 22 30 38 27 31 66 57 63 57 50 48 45 50 41 42 39 41 44 50 56 61 70 68 68 76 68 68 71 72 88 79 81 86 86 86
16 21 23 26 22 23 21 23 25 24 31 40 27 26 29 64 55 48 41 43 40 45 40 37 38 37 45 48 54 60 75 73 70 76 72 70 72 86 83 86 76 86 79 81
21 19 18 23 29 25 26 34 42 41 36 35 24 26 22 40 39 40 41 40 42 43 39 37 41 39 43 54 56 60 69 80 75 74 76 75 73 80 81 80 78 94 87 89
29 29 20 18 30 31 29 29 43 51 41 29 22 26 20 16 26 26 36 36 42 42 41 38 39 38 40 54 57 58 66 71 76 74 74 74 74 72 69 80 78 74 80 77
34 25 17 17 19 24 28 31 22 24 49 25 21 17 14 12 13 23 38 40 42 42 43 37 38 38 40 52 58 60 63 63 74 71 73 79 82 73 73 75 82 80 84 77
62 49 17 16 17 20 22 18 25 26 32 38 25 20 15 13 11 14 33 39 41 44 37 34 37 38 38 46 53 60 62 62 70 71 68 70 77 84 73 72 84 91 81 78
60 69 30 20 20 22 26 19 21 21 25 26 30 18 14 14 15 11 28 30 38 39 36 35 36 37 37 40 50 62 66 65 71 73 73 71 70 70 87 77 72 72 85 79
60 80 84 29 16 16 19 20 17 18 24 29 28 18 16 10 11 10 12 35 35 34 35 34 35 36 38 39 47 58 68 68 69 73 75 76 75 73 74 87 78 73 75 86
89 86 96 39 24 18 18 21 15 20 21 22 20 17 14 13 16 16 10 15 28 31 32 33 34 36 38 38 45 54 64 69 68 71 73 76 78 80 76 75 81 79 74 78
86 92 92 76 42 35 24 18 17 13 19 18 17 18 16 15 17 18 11 18 23 26 33 33 36 36 38 38 42 51 54 67 68 72 75 76 79 80 78 75 72 80 84 74
84 86 60 50 40 40 38 21 17 17 15 17 16 18 16 19 28 26 23 24 27 31 32 33 37 38 40 41 40 48 51 60 67 74 76 78 76 77 80 83 77 75 76 86
63 72 57 52 40 37 28 23 22 13 14 18 19 17 16 19 30 30 33 32 31 33 33 35 36 37 41 41 41 46 49 55 64 72 75 74 79 79 80 82 85 80 79 75
64 68 73 73 48 32 41 34 25 14 14 14 23 18 27 34 52 56 26 24 35 36 34 36 36 36 39 40 39 44 46 48 60 69 70 74 76 82 82 80 83 85 86 82
59 74 69 71 57 54 42 33 36 46 47 46 54 44 49 61 61 62 61 46 41 40 38 37 42 43 48 42 39 40 44 48 52 59 69 71 77 79 80 82 81 82 80 86
45 55 69 70 62 49 49 47 39 51 59 45 51 48 53 51 53 63 62 66 64 57 57 54 51 46 46 43 42 42 45 47 51 54 56 67 71 77 79 81 82 78 80 79
60 41 57 58 75 75 64 44 36 42 69 43 52 62 53 41 82 84 73 77 80 66 58 53 48 53 52 57 59 44 45 48 50 50 54 57 67 71 76 77 77 77 75 77
84 53 48 55 76 70 53 46 32 72 68 43 50 54 62 81 80 79 69 73 81 79 75 71 73 73 58 53 58 66 61 51 48 51 51 60 59 67 68 71 73 73 77 75
98 94 85 75 91 97 61 56 61 49 39 37 47 56 54 50 51 67 72 73 75 80 83 84 90 90 90 85 71 86 83 78 68 75 80 75 68 62 65 71 73 74 74 80
96 94 98 93 94 75 83 87 53 49 44 46 42 52 52 49 46 46 82 74 72 76 79 80 89 92 89 89 90 93 95 95 85 82 82 80 83 84 87 85 83 81 81 79
63 51 83 66 73 60 80 78 62 50 52 41 41 39 53 52 48 46 50 84 77 78 83 85 86 96 97 96 91 94 92 91 92 92 88 92 95 96 94 86 88 84 91 93
61 61 72 65 68 57 60 55 62 53 48 46 44 48 54 48 47 48 53 61 87 86 88 91 96 97 96 94 90 88 90 91 93 93 95 95 97 96 98 99 99 97 95 93
67 86 92 86 75 88 71 55 55 58 52 52 55 52 54 52 51 64 68 73 95 94 95 96 97 96 95 94 93 92 90 94 94 95 97 97 98 98 98 99 94 92 95 100

GFSCGP_sfc_rhum_039.txt.gz
RH
28 29 28 21 25 29 33 40 41 36 30 36 44 42 73 69 70 74 75 71 66 63 58 57 55 53 53 57 56 61 64 70 75 90 88 89 85 87 88 87 82 85 87 89
36 31 21 20 24 27 26 32 38 31 27 31 34 40 64 69 71 71 73 70 66 61 59 56 55 54 53 59 57 59 61 67 75 69 71 80 82 85 82 83 83 82 85 89
36 33 21 24 23 27 27 28 31 33 30 31 36 51 47 67 64 65 66 63 62 60 60 58 56 54 52 57 62 60 60 64 70 68 85 95 89 88 89 87 90 84 85 88
33 25 26 25 29 25 32 23 24 26 30 43 30 71 79 70 70 64 68 66 61 58 54 56 56 54 51 52 60 60 59 60 65 72 74 74 70 68 78 88 89 89 87 88
28 28 28 30 26 25 29 24 26 26 36 43 33 38 69 63 77 66 61 60 58 58 53 54 52 53 51 49 58 61 62 61 61 74 63 69 74 75 96 90 86 94 95 89
23 18 22 24 24 24 24 27 30 35 39 41 31 36 38 60 63 62 57 55 52 50 49 48 48 48 51 49 56 61 66 65 62 71 68 70 71 91 94 94 89 96 97 91
35 23 22 22 28 28 30 37 55 52 52 42 32 37 29 43 46 49 52 49 46 45 48 44 49 50 51 52 58 61 68 68 66 72 71 72 71 82 82 89 89 95 95 97
79 40 25 17 29 31 34 37 58 66 56 40 33 40 30 27 38 40 42 41 39 41 45 44 44 45 49 50 58 59 69 69 69 72 73 71 70 73 74 78 84 81 79 82
91 69 42 18 17 26 39 39 34 40 45 36 33 24 16 19 30 42 40 39 37 37 40 44 41 42 46 50 57 60 67 68 70 71 72 73 73 74 75 84 76 77 82 79
72 93 52 29 16 21 32 29 41 39 46 43 32 24 26 21 23 31 42 41 37 35 38 39 39 40 40 47 53 56 61 65 70 71 70 72 73 75 74 79 85 83 83 84
80 73 67 51 25 22 27 33 40 37 35 36 33 23 18 16 17 17 34 32 34 36 38 40 40 38 39 41 52 55 58 61 68 70 69 71 75 77 73 79 83 84 87 89
74 94 92 73 43 40 19 30 27 34 43 34 33 24 15 14 15 12 18 29 36 39 38 38 39 37 40 40 51 56 56 59 60 68 68 71 74 80 80 79 79 79 90 88
86 97 95 54 40 25 23 23 26 25 31 30 33 29 15 17 17 15 16 26 32 39 40 38 38 38 40 40 48 56 59 60 57 65 69 70 71 75 80 86 82 82 82 86
89 97 96 85 69 55 53 42 25 20 26 26 21 20 15 12 19 19 21 21 25 35 40 40 37 36 39 40 43 53 61 61 59 64 70 75 76 78 75 74 81 86 84 80
95 98 86 74 63 55 49 44 40 26 20 19 18 18 13 13 19 32 34 24 18 28 39 40 37 36 39 42 42 52 60 65 63 68 74 77 80 78 80 78 79 82 90 81
90 90 72 66 46 46 45 39 39 38 18 18 18 18 17 36 65 67 51 28 27 33 35 36 36 36 38 40 42 48 58 68 67 72 74 75 78 81 84 83 84 82 83 89
93 92 84 84 52 45 53 50 48 39 58 43 23 36 31 70 75 82 87 48 22 29 33 33 34 36 37 39 40 48 54 61 70 74 74 76 79 82 84 85 88 88 84 80
69 98 83 86 62 60 55 52 46 54 52 56 66 64 64 78 82 82 84 93 66 36 31 34 33 36 36 37 40 44 52 58 70 75 77 78 81 84 83 85 89 91 88 86
44 96 78 88 63 55 57 60 69 63 64 50 63 70 66 71 64 81 77 87 80 70 64 48 37 39 40 42 42 47 52 56 66 72 75 77 78 83 85 88 86 86 87 90
80 86 96 72 87 83 72 70 52 44 76 38 56 60 82 76 93 90 78 83 95 92 84 62 54 57 54 51 44 49 52 54 60 65 70 73 77 79 82 84 86 82 83 84
99 94 86 75 95 79 70 72 42 74 66 46 45 50 57 80 79 76 75 77 83 91 96 89 74 70 63 61 43 46 49 52 49 55 59 68 73 75 76 80 80 83 84 83
99 100 99 97 98 97 66 71 77 73 54 53 49 48 47 45 51 77 80 78 82 88 91 93 94 96 95 87 73 84 91 93 71 65 63 66 68 72 72 76 80 82 84 88
98 98 100 99 96 79 86 91 67 54 54 54 52 45 47 44 55 69 74 86 86 89 90 91 97 95 96 95 94 94 95 95 85 83 77 74 76 69 67 77 79 83 82 82
75 75 96 77 73 73 72 78 70 62 61 51 51 50 47 49 53 71 85 91 92 94 96 95 96 96 96 96 93 95 94 93 94 94 91 92 95 96 82 75 74 78 82 84
85 77 92 76 69 68 59 64 74 79 65 63 52 53 52 58 71 80 89 94 93 90 94 95 98 98 98 96 95 95 94 93 94 94 96 96 97 98 99 98 99 94 93 90
96 98 98 94 75 82 76 70 68 83 86 71 67 60 57 59 69 75 81 92 91 93 90 96 98 97 98 96 95 96 95 93 93 94 94 96 98 99 98 96 96 97 98 100

GFSCGP_sfc_rhum_042.txt.gz
RH
33 36 30 25 36 38 40 46 46 40 32 48 50 52 85 79 76 81 79 73 65 64 61 63 63 61 65 68 73 78 80 90 88 95 94 92 89 89 89 88 87 88 88 90
38 36 26 20 22 31 33 36 39 35 29 40 46 49 77 80 78 76 78 75 70 65 63 64 64 60 62 66 69 76 77 86 83 80 88 86 88 87 85 86 88 87 87 90
41 30 22 22 27 26 29 37 33 40 29 30 40 50 79 77 74 71 70 68 67 67 64 64 66 62 59 67 67 72 76 81 81 84 90 92 89 89 87 87 88 86 87 88
39 26 26 23 25 28 38 26 28 27 37 44 38 55 76 84 81 75 74 71 67 64 61 60 63 63 60 62 66 68 73 78 78 84 85 87 84 82 86 86 87 87 87 87
41 36 32 33 23 24 24 25 28 28 39 44 31 43 58 79 92 81 74 70 66 63 59 60 59 59 58 58 64 66 73 76 78 81 80 79 80 81 88 88 86 90 91 88
31 21 27 29 25 21 26 34 35 39 42 45 36 33 44 89 76 74 67 66 64 61 59 57 56 57 57 56 60 66 75 76 78 80 79 82 82 88 90 91 88 90 90 90
58 39 22 19 33 26 32 34 61 60 57 46 39 34 38 36 61 60 63 59 59 60 58 57 57 57 58 59 60 67 74 76 76 78 80 80 79 86 85 88 86 92 93 93
94 50 32 24 27 36 33 37 57 68 62 42 43 48 36 23 42 51 52 51 52 55 55 56 54 55 57 59 60 65 72 74 75 76 81 79 78 77 76 84 86 84 86 87
95 81 50 37 30 25 40 42 35 52 57 54 32 39 23 27 26 45 47 48 51 51 52 53 51 52 54 57 60 66 70 71 73 72 76 79 78 79 80 86 85 85 88 81
76 92 60 46 39 28 32 32 46 54 62 56 47 34 36 29 31 34 43 45 47 47 48 47 49 48 50 50 54 61 64 69 70 72 72 72 76 79 80 84 86 88 87 85
86 93 69 57 52 33 33 39 42 39 47 50 44 36 28 28 25 30 30 45 42 44 43 42 43 44 47 48 52 58 62 68 68 71 74 74 75 77 78 81 84 85 86 86
75 99 94 73 52 50 59 39 44 43 50 47 46 35 22 19 22 22 20 41 43 42 39 38 37 43 45 49 52 58 60 64 66 71 74 74 77 78 78 82 85 86 86 85
85 97 92 81 48 43 48 34 34 38 41 42 46 46 21 20 20 20 20 24 39 43 41 38 37 40 43 46 52 56 59 61 62 70 70 73 75 79 81 81 85 87 87 86
78 97 96 90 67 64 66 52 32 38 35 42 37 36 30 28 25 25 22 23 32 50 47 42 41 44 43 46 56 60 59 58 60 66 70 74 75 78 80 82 85 86 86 87
91 98 88 77 80 74 68 59 48 50 39 36 32 30 26 26 26 24 24 26 26 36 47 49 44 47 49 51 54 62 60 61 60 67 71 73 76 79 82 85 88 89 85 82
92 97 95 93 65 60 60 46 44 42 39 28 24 25 48 29 55 80 85 82 55 35 28 43 46 45 47 49 52 60 65 64 64 69 72 75 79 82 84 85 86 90 91 87
99 100 96 93 56 52 61 51 59 63 67 64 32 53 69 68 93 97 91 90 94 62 30 26 44 43 43 45 48 58 65 66 70 72 74 78 83 86 86 86 87 88 88 90
96 100 98 90 69 71 72 61 51 55 53 60 68 69 78 75 90 90 82 84 89 92 48 33 39 41 41 40 42 52 62 74 76 78 79 81 85 87 88 90 90 90 87 88
78 100 94 93 74 66 61 69 78 79 63 53 56 63 68 79 76 87 75 75 83 94 76 49 42 42 45 44 50 58 66 75 78 80 82 82 83 86 88 91 91 90 90 89
84 96 99 96 94 93 88 71 65 63 80 55 58 53 63 82 95 87 78 79 85 87 93 61 58 56 54 55 49 61 64 73 79 78 79 81 83 85 87 87 89 88 88 89
100 100 97 98 95 95 81 78 58 75 79 59 58 52 54 73 75 77 80 85 86 89 95 83 70 64 65 59 54 64 66 68 70 73 78 82 83 85 86 88 87 87 88 88
100 100 100 99 98 99 80 69 82 75 56 55 58 59 52 62 78 84 81 83 88 92 92 90 95 95 87 69 60 68 72 75 76 76 79 83 84 79 79 89 89 89 90 92
99 100 100 100 99 89 87 87 74 64 64 64 61 58 60 69 77 82 88 82 81 87 91 91 89 91 92 92 82 87 94 92 81 78 80 82 85 84 83 88 90 88 91 89
96 90 99 98 86 86 80 73 64 66 71 62 61 58 58 70 74 77 79 84 80 79 89 91 94 94 95 94 92 94 92 92 89 89 88 86 82 85 83 81 80 83 86 88
97 93 99 93 73 79 71 70 71 69 68 70 65 61 61 60 64 68 71 78 77 77 84 93 96 97 96 94 95 93 92 90 91 94 95 94 93 93 96 96 96 90 91 88
96 98 99 98 84 90 91 78 71 78 75 73 76 70 64 62 66 68 67 77 76 79 85 93 97 98 96 94 96 95 94 91 90 90 89 97 97 98 96 93 94 99 99 100

GFSCGP_sfc_rhum_045.txt.gz
RH
24 21 25 19 22 18 28 31 23 32 28 32 33 34 52 60 59 59 57 54 50 49 47 49 51 53 57 62 66 70 71 74 71 68 64 60 55 56 57 59 68 70 67 71
24 23 17 16 17 23 21 29 29 28 28 31 33 34 33 57 60 59 56 52 50 47 48 52 53 52 54 62 67 72 72 76 74 64 67 58 60 57 56 61 68 67 67 72
27 21 17 19 18 19 21 21 27 28 23 24 28 32 32 52 54 56 54 50 47 46 47 53 55 54 53 60 67 70 74 75 74 71 67 70 68 67 62 63 61 65 67 69
31 25 21 20 19 17 18 15 20 26 28 31 27 40 35 34 58 58 54 55 51 48 47 48 52 55 53 56 60 68 72 74 72 76 70 77 60 59 56 58 57 62 68 68
30 30 30 29 23 18 18 14 16 16 26 30 28 34 32 38 46 53 53 52 50 51 48 49 49 52 50 53 56 60 72 78 75 78 75 68 68 56 57 57 68 72 73 69
28 25 23 25 22 18 16 18 19 17 15 26 31 31 31 32 43 44 46 49 50 50 49 49 48 49 51 49 54 58 73 79 77 77 76 80 76 69 62 64 59 56 58 61
30 21 20 17 23 21 22 24 30 30 29 21 17 31 30 24 32 32 40 48 48 48 49 49 51 50 54 54 56 60 71 77 76 74 74 75 76 77 76 72 59 60 53 57
39 11 32 36 22 23 26 24 26 37 27 16 17 32 28 21 20 27 31 36 44 47 45 47 48 50 55 56 58 60 68 74 74 73 77 78 77 59 58 66 54 55 51 52
45 45 36 29 33 31 23 30 19 22 30 26 15 18 20 21 20 19 28 35 42 46 45 46 46 48 52 54 58 62 68 71 70 66 73 77 76 73 63 70 69 56 66 52
55 27 35 38 32 25 30 18 32 28 37 34 22 21 18 24 22 22 22 30 37 40 44 43 44 45 47 48 51 55 61 69 68 66 67 67 71 74 70 71 73 69 63 67
49 45 22 28 34 29 26 29 26 25 28 28 26 21 17 19 24 23 22 22 28 36 40 42 43 43 45 44 48 51 56 63 65 65 67 67 66 67 69 68 69 71 67 70
54 78 64 29 20 25 32 48 27 32 42 31 29 20 16 16 17 17 17 20 21 32 36 39 40 43 42 45 46 49 50 52 58 62 68 67 68 68 66 70 68 71 73 68
64 75 46 18 17 26 34 32 37 26 26 39 35 28 16 19 20 20 19 18 28 33 35 37 36 42 43 44 48 46 50 46 48 58 59 63 64 66 69 71 69 72 73 71
59 72 51 34 26 41 55 42 40 34 30 36 31 27 21 21 20 18 18 20 20 32 39 38 38 42 44 48 52 52 49 46 47 50 54 64 66 66 65 71 73 71 74 73
66 71 54 50 45 45 47 48 45 48 34 33 31 30 25 24 23 21 20 19 22 22 30 40 40 45 51 52 54 55 51 53 50 59 57 63 68 68 70 74 75 73 73 72
72 66 60 57 35 43 55 47 44 42 38 30 27 26 30 31 27 24 27 43 44 42 32 33 41 44 47 49 55 56 57 56 57 65 63 66 72 74 75 77 78 78 76 75
80 84 73 52 36 50 56 44 40 39 32 28 28 25 47 45 56 65 65 64 64 63 60 54 35 42 44 44 52 56 59 57 63 68 67 70 74 77 78 76 79 81 80 76
79 95 83 62 57 88 37 39 30 46 54 47 42 52 55 59 65 71 73 76 73 67 65 63 51 34 44 38 38 50 53 65 67 70 71 72 76 76 78 79 80 82 77 79
56 97 87 89 90 83 68 56 44 48 64 55 55 56 59 64 67 66 74 77 82 79 73 69 58 30 42 43 46 54 57 63 65 69 71 73 74 76 77 80 81 78 76 77
67 81 97 93 96 98 88 64 56 53 69 58 56 58 64 60 66 74 81 82 85 82 69 63 48 28 40 46 44 54 58 63 67 66 68 72 74 77 78 80 82 80 77 75
99 100 97 87 93 93 81 64 50 73 75 58 60 64 78 87 84 87 81 81 85 87 76 56 41 45 49 49 48 60 61 65 61 61 64 73 75 78 79 82 80 79 78 75
95 98 99 93 97 97 81 65 69 66 63 64 68 66 76 70 68 69 69 77 81 88 82 65 57 52 53 53 57 64 69 66 68 70 71 77 78 68 67 83 81 80 81 83
100 100 100 100 100 97 82 75 62 63 70 71 68 62 63 59 61 62 65 64 70 84 85 75 68 73 64 58 63 65 76 73 74 76 78 78 77 75 75 81 82 74 80 70
96 95 100 99 96 94 79 70 62 64 69 68 68 61 62 66 61 59 64 65 59 70 90 79 76 81 83 79 77 81 75 70 74 78 79 78 78 78 74 69 67 66 66 68
98 95 99 97 92 87 78 75 78 75 69 68 69 69 65 67 66 60 63 64 69 70 70 85 88 84 85 81 81 76 77 75 68 70 71 73 68 76 74 70 68 64 70 66
97 99 100 100 95 98 92 83 80 80 78 71 74 75 75 69 68 60 59 62 65 70 71 70 80 90 83 82 80 80 80 77 76 74 66 59 56 64 64 75 81 98 96 100

GFSCGP_sfc_rhum_048.txt.gz
RH
14 17 17 12 12 10 14 12 13 17 18 29 29 26 29 36 34 40 42 43 42 40 37 36 37 36 37 41 48 53 55 59 55 49 46 45 44 45 44 42 52 58 54 59
17 17 12 12 11 13 12 18 19 16 18 24 26 26 22 33 35 38 39 39 39 37 36 38 38 37 38 44 50 56 58 62 61 47 49 43 44 40 41 43 54 55 55 59
16 13 10 12 14 15 14 13 14 19 21 19 25 28 25 24 33 34 34 34 35 35 36 39 40 39 39 45 51 56 62 63 64 56 48 52 49 48 49 49 47 52 55 57
16 11 15 14 15 12 13 10 10 12 19 25 21 29 28 23 32 34 35 34 33 34 34 37 39 41 39 43 47 54 61 64 62 63 55 68 50 47 39 43 41 47 56 55
22 19 19 20 16 12 14 10 10 11 12 19 23 28 25 22 27 33 32 33 31 34 33 35 38 40 38 39 44 50 61 68 66 67 64 53 58 37 37 39 54 59 62 57
18 18 19 16 16 16 14 14 13 12 10 13 18 23 24 21 24 22 27 28 32 32 32 34 35 38 39 38 41 48 63 72 68 64 65 68 63 53 42 49 44 42 42 49
16 17 16 16 19 17 17 17 21 20 16 13 10 16 23 18 17 20 21 25 28 30 33 34 36 38 42 43 44 45 60 72 68 64 64 63 64 64 62 58 48 49 38 38
12 12 14 23 19 19 20 16 20 30 16 11 10 14 14 15 16 15 19 19 24 27 28 33 36 37 41 43 45 47 56 68 67 64 71 71 69 48 47 55 43 41 37 37
16 14 22 20 23 22 20 21 14 17 14 14 9 10 7 11 15 16 16 19 20 26 29 33 35 37 39 43 47 52 57 64 61 57 66 71 68 65 52 59 55 43 52 38
25 17 13 18 17 18 23 14 20 19 32 30 17 16 10 14 18 16 16 16 19 24 29 30 33 35 36 37 40 45 50 59 58 54 56 57 59 64 61 57 61 58 48 54
21 20 16 14 10 11 18 23 22 17 19 24 24 16 11 12 13 17 16 15 15 22 27 29 30 32 34 34 38 42 46 53 55 53 56 56 54 54 59 56 58 60 57 56
26 25 30 16 8 10 13 25 20 23 30 22 21 17 9 11 10 10 13 14 14 18 23 26 27 30 32 35 36 38 41 43 48 52 59 57 56 56 52 60 57 60 63 59
31 31 32 13 9 11 15 13 21 23 24 31 26 22 13 13 14 13 12 12 16 17 20 24 24 28 31 33 36 34 36 36 38 47 48 50 52 53 55 59 58 60 63 63
32 25 31 19 16 16 27 24 21 23 28 27 24 24 19 17 15 15 15 16 13 14 20 21 24 26 31 34 41 40 35 32 34 39 42 52 53 53 52 59 63 58 64 64
38 57 32 26 24 21 20 16 22 34 34 37 26 22 19 19 17 15 14 15 16 17 19 24 25 29 38 41 43 44 37 38 35 43 42 49 57 57 58 62 64 62 64 63
38 54 36 33 24 24 22 16 15 20 27 31 31 30 20 16 18 17 16 16 19 23 20 18 24 27 32 38 44 46 46 41 42 49 47 52 63 65 65 67 69 69 67 66
62 56 52 40 23 20 23 19 20 17 21 27 34 26 20 21 24 22 21 21 28 31 32 33 28 25 28 32 40 44 49 44 49 54 56 58 66 69 70 68 72 72 72 67
55 77 71 41 28 52 22 16 16 18 17 22 26 25 22 26 30 43 48 50 50 48 46 43 35 34 28 24 26 38 41 54 56 59 62 62 67 69 71 72 73 75 69 70
44 76 78 77 56 37 32 27 30 21 22 25 27 24 19 22 29 51 56 60 63 60 59 55 46 41 40 30 29 37 40 49 55 60 64 64 65 68 69 72 74 70 68 68
51 63 91 72 79 76 47 70 62 52 50 42 40 32 24 27 36 33 65 62 63 64 62 62 54 46 42 43 27 31 41 48 57 58 61 64 66 69 70 72 75 72 68 65
80 92 95 76 77 63 44 64 71 98 65 48 52 64 62 38 61 72 66 67 68 75 75 60 54 51 46 41 29 40 45 48 52 52 54 62 66 71 70 75 73 73 70 64
85 94 92 87 91 92 74 90 97 81 65 72 68 64 62 60 57 59 62 68 74 84 78 49 41 38 34 33 38 50 57 55 58 57 58 66 69 57 56 76 74 73 72 76
99 95 100 98 92 88 90 97 91 74 89 79 68 58 51 48 55 59 60 63 63 68 85 68 46 42 41 44 43 54 63 66 61 61 66 67 67 65 64 73 75 65 72 59
97 96 100 100 95 97 87 86 90 87 86 76 66 64 60 60 54 58 60 67 68 71 70 89 82 79 65 53 51 54 58 66 64 66 68 66 67 68 62 58 58 56 54 56
98 97 99 99 96 91 87 87 93 85 82 77 67 70 71 59 55 56 67 72 76 81 75 76 93 90 88 83 80 75 65 64 64 65 63 64 59 66 63 59 60 51 53 53
96 99 100 100 96 97 93 93 87 84 84 82 76 75 72 74 71 65 73 73 75 82 84 84 81 86 83 79 78 75 72 72 64 64 57 50 48 54 56 64 62 98 96 99

GFSCGP_sfc_rhum_051.txt.gz
RH
17 19 16 14 14 10 8 7 10 10 13 23 29 37 81 25 25 33 36 36 35 34 31 31 30 30 30 34 40 46 50 61 52 47 47 44 40 42 43 53 48 53 48 52
13 14 12 10 9 10 9 10 10 9 12 22 27 33 29 25 26 30 32 34 33 32 32 33 33 31 30 35 42 52 56 64 58 47 52 44 44 37 37 37 50 50 50 54
17 11 10 10 11 11 11 10 10 14 14 16 27 33 29 31 24 27 27 28 31 31 32 34 35 32 32 37 42 52 61 65 63 56 49 48 46 42 39 48 44 48 50 52
12 10 10 11 11 11 13 9 8 10 17 22 19 36 34 29 29 28 27 27 28 29 30 33 34 34 32 35 39 52 59 65 63 64 52 64 48 43 36 40 38 45 51 51
16 12 10 13 10 10 12 9 8 8 10 14 18 26 30 24 44 26 26 27 25 28 28 31 32 34 32 33 38 43 62 68 65 67 62 51 58 39 35 33 60 55 62 52
15 11 11 10 10 10 10 11 11 9 8 13 15 19 21 24 26 26 22 24 25 26 27 28 30 32 33 32 35 42 63 72 70 68 68 66 64 55 37 42 42 42 42 46
11 12 14 13 14 12 13 14 19 19 15 13 9 16 20 15 21 20 20 22 24 24 26 28 31 32 36 37 39 43 60 72 70 66 65 65 64 66 62 55 40 47 35 35
9 10 9 11 14 15 15 14 16 28 17 11 8 12 13 13 12 36 31 22 20 22 23 26 29 32 38 38 41 44 57 70 69 65 69 70 67 44 41 49 39 37 32 33
9 10 11 14 12 13 16 18 11 12 11 12 9 8 6 8 11 13 16 18 24 21 23 25 27 30 34 38 43 46 55 66 66 58 66 70 68 61 45 54 57 43 49 33
14 20 9 10 14 14 17 14 18 15 25 26 15 13 8 9 10 11 15 16 20 20 22 22 26 28 31 32 36 42 46 60 62 57 60 60 64 67 59 58 62 57 50 53
11 16 11 9 14 11 9 14 18 16 15 19 20 14 9 10 9 10 11 13 15 16 19 21 23 26 28 30 33 37 42 51 56 56 59 58 56 57 62 58 59 61 57 57
13 14 15 11 7 4 5 10 10 18 29 17 14 14 8 8 7 8 10 12 12 14 17 20 21 25 28 31 32 34 37 40 48 52 59 58 57 56 55 60 59 62 65 60
18 22 20 18 12 10 9 9 13 13 13 24 19 15 9 10 10 11 10 10 13 14 15 19 20 24 26 29 33 31 34 34 36 49 49 53 53 55 54 60 59 62 65 66
28 22 24 18 19 14 14 9 9 12 18 19 18 18 13 14 14 13 13 11 11 14 16 17 20 22 26 30 37 37 33 31 32 38 41 52 54 54 52 56 63 60 65 67
26 33 27 21 18 16 15 14 13 16 17 19 17 20 18 17 18 15 12 13 14 12 15 16 19 25 33 35 38 40 34 36 33 40 39 48 56 56 57 59 62 63 64 66
26 44 38 37 20 17 16 14 14 12 11 17 21 23 16 18 18 19 18 15 16 16 16 16 18 21 26 33 37 41 41 37 37 44 43 48 58 61 61 63 65 68 67 68
46 43 51 46 25 20 24 18 15 13 12 11 15 18 17 19 20 20 18 16 16 15 17 19 17 19 21 24 34 36 43 39 42 47 49 52 60 64 65 64 68 70 72 69
54 69 77 60 36 47 19 11 10 11 11 10 12 12 14 17 18 19 22 31 34 30 26 28 24 22 21 18 21 31 34 49 48 50 53 54 60 65 66 68 69 73 69 71
32 65 89 86 55 32 20 14 13 46 41 34 36 24 11 12 14 21 18 37 42 42 40 38 34 31 31 24 22 31 34 46 49 52 55 56 57 64 67 70 72 70 69 70
31 45 90 65 72 68 27 17 40 43 52 25 28 29 17 12 17 18 41 44 44 44 44 45 43 40 37 39 27 24 33 40 52 51 54 58 59 64 69 71 74 72 70 68
72 86 97 77 73 54 28 36 43 71 43 42 55 27 15 16 17 22 51 54 54 55 57 56 54 52 49 42 35 36 33 40 45 48 51 60 62 67 70 73 72 72 71 63
78 90 92 82 86 89 59 54 74 55 80 79 71 19 25 30 47 54 58 59 61 63 62 61 60 47 45 45 45 48 46 44 50 55 56 63 67 57 56 74 74 74 74 76
98 89 100 91 80 77 72 85 75 83 92 88 76 45 42 49 53 57 64 64 67 71 69 69 68 47 36 43 49 54 53 55 56 60 65 65 67 66 64 73 76 68 73 59
94 92 100 100 87 87 81 86 89 88 93 91 83 59 44 52 55 66 67 70 74 75 79 78 83 69 74 54 45 49 57 58 63 68 69 66 68 69 64 58 59 55 53 56
97 97 100 100 94 94 88 84 85 85 87 90 80 75 68 58 62 70 72 75 78 84 88 82 93 90 88 82 78 55 54 60 61 66 63 66 58 65 65 59 54 50 73 61
92 99 100 100 97 98 93 88 90 89 90 88 88 82 80 76 78 73 85 86 88 90 91 91 86 92 93 92 91 90 89 73 64 64 62 55 48 58 60 64 66 99 95 100

GFSCGP_sfc_rhum_054.txt.gz
RH
22 23 25 18 15 14 11 9 7 9 9 21 30 64 54 57 55 44 38 37 36 38 35 31 29 28 34 39 50 57 62 73 65 65 64 69 64 74 76 71 73 69 68 74
17 24 18 11 12 13 14 12 9 7 7 14 43 63 56 52 63 50 34 35 34 33 35 35 32 30 32 42 52 61 65 74 68 66 71 65 64 59 64 78 70 66 62 69
18 13 12 12 12 13 11 12 10 9 9 11 15 60 66 49 45 72 28 30 31 33 34 37 35 33 34 45 53 61 68 73 69 70 68 72 70 71 60 70 64 64 67 65
17 13 11 11 12 11 13 9 9 9 10 16 14 26 61 61 61 85 69 30 30 31 32 36 35 35 34 44 49 61 66 74 68 72 68 74 67 65 57 75 68 64 67 68
15 14 14 13 11 10 12 9 10 10 10 12 16 21 21 44 67 87 78 30 28 30 30 34 35 36 33 41 46 54 67 74 71 73 72 66 71 60 64 59 76 75 77 69
11 9 9 10 9 9 8 10 11 11 9 13 12 15 19 24 47 58 72 54 36 28 29 34 35 36 36 37 43 52 68 75 75 74 75 75 73 71 63 64 65 66 66 67
12 12 12 12 11 9 10 12 18 19 17 14 9 10 14 15 28 51 55 74 61 29 29 33 37 38 39 40 45 51 68 74 74 74 70 75 72 74 78 72 67 64 61 60
11 9 8 11 15 14 13 13 17 27 19 15 12 12 10 8 14 30 43 50 56 26 25 29 34 37 41 40 44 50 67 74 73 73 74 76 75 60 62 67 60 65 62 59
12 11 7 6 10 12 15 17 11 14 12 14 11 10 8 7 9 17 35 36 57 49 32 28 33 35 40 41 45 51 64 72 72 68 74 74 75 71 60 70 69 62 68 54
16 20 10 9 10 10 12 12 18 16 28 30 15 15 11 12 11 15 32 37 48 63 73 40 30 33 37 37 41 46 56 68 70 69 69 68 69 72 70 64 73 68 68 67
14 14 12 10 12 13 13 14 17 18 20 23 22 16 12 15 12 12 32 40 29 39 66 70 80 30 34 36 39 42 49 63 67 68 68 68 68 65 66 67 64 72 68 73
15 13 17 13 8 8 10 11 8 13 31 23 20 15 8 12 8 8 8 11 31 38 60 73 74 66 32 36 37 41 44 50 61 66 69 68 68 67 64 64 68 68 74 69
19 20 23 19 11 8 9 7 7 7 9 22 24 19 10 10 13 10 9 10 15 44 49 55 83 72 30 33 38 38 42 41 50 62 61 64 64 66 67 67 64 69 70 74
25 23 28 23 18 18 17 11 9 8 14 16 12 17 16 20 27 26 20 20 14 18 43 57 54 62 32 36 41 42 40 39 41 52 56 64 64 63 61 67 68 68 72 73
24 33 28 24 21 18 18 16 13 11 11 16 14 14 15 29 30 30 26 23 24 18 17 20 22 59 49 42 44 44 40 42 40 50 54 60 65 64 66 67 70 67 69 71
23 35 32 34 24 22 22 16 14 13 10 9 11 14 12 16 19 23 24 25 26 27 20 26 28 34 37 42 45 45 44 43 44 51 53 59 66 69 69 69 71 73 71 73
39 41 46 47 29 28 32 22 16 14 14 14 15 15 13 14 16 20 22 22 24 27 34 22 28 35 60 36 43 45 46 44 48 54 55 60 67 70 71 70 71 74 75 73
41 62 77 67 47 75 34 21 18 15 14 12 13 13 14 15 13 14 14 18 22 30 40 41 22 28 41 60 72 39 42 52 54 56 59 60 65 68 71 72 73 73 72 75
26 48 85 87 71 45 29 22 20 29 21 12 22 21 18 15 15 21 15 14 18 27 31 39 35 36 48 45 44 42 43 49 51 56 58 60 60 67 70 73 73 71 72 75
34 35 80 76 79 66 32 18 27 28 36 19 18 19 18 18 24 26 21 14 26 71 41 44 42 40 40 47 40 42 39 49 52 52 56 60 60 66 70 72 74 72 73 72
78 78 93 88 79 49 28 20 30 55 39 36 42 43 42 47 45 47 42 24 41 66 56 54 57 57 58 55 50 53 50 44 50 49 51 59 63 65 70 75 74 74 74 72
90 99 94 89 88 86 56 48 57 52 52 52 52 50 51 49 48 55 51 40 51 58 60 58 62 63 62 58 57 61 61 56 54 58 58 65 66 57 59 76 77 76 77 80
100 99 100 100 96 74 60 72 69 68 68 60 62 55 61 64 61 70 49 57 62 71 72 69 72 76 70 78 68 63 65 64 64 65 66 66 68 67 67 75 79 76 80 76
71 94 100 100 72 74 78 76 77 74 78 76 74 68 78 77 78 62 64 72 76 76 80 78 86 84 85 85 82 70 65 64 64 68 71 68 71 72 69 66 69 73 73 74
96 94 99 100 93 93 82 88 90 87 85 86 79 78 86 93 74 71 76 79 81 84 85 84 90 90 90 86 86 81 83 72 60 69 67 68 64 73 73 67 70 70 68 68
95 96 100 100 97 99 96 92 88 95 92 88 90 91 91 95 84 76 79 86 86 87 90 92 87 90 92 90 86 85 87 88 67 66 64 61 60 65 70 69 77 99 96 100

GFSCGP_sfc_rhum_057.txt.gz
RH
31 43 40 30 26 22 20 21 18 12 11 29 46 78 85 78 71 80 82 58 50 48 41 34 31 37 50 50 52 66 64 70 79 86 85 86 80 81 79 80 71 78 85 82
34 40 30 22 21 21 19 20 20 16 10 16 48 63 66 74 70 79 90 56 49 44 43 37 34 40 49 53 54 73 71 70 76 79 82 79 79 74 75 86 85 76 77 83
31 25 21 21 22 18 18 22 20 18 12 24 56 70 68 58 57 72 83 71 52 42 42 39 37 40 48 57 61 71 74 71 73 72 81 85 78 83 79 85 88 84 78 80
25 19 17 20 20 17 23 15 13 12 16 24 49 82 73 66 72 77 78 81 68 46 39 41 39 41 44 54 58 70 74 73 76 69 76 82 76 76 75 75 79 83 75 76
22 18 20 21 16 13 16 14 14 14 17 19 15 24 68 60 87 77 82 71 59 63 39 39 38 37 44 51 54 67 75 72 65 77 68 79 79 72 75 69 72 82 87 79
14 10 14 17 14 13 11 13 15 18 22 26 17 20 30 70 73 76 64 62 56 58 39 38 36 37 45 50 53 63 79 73 70 74 86 77 77 78 67 82 76 71 84 84
16 14 13 12 16 12 14 32 33 37 30 29 19 18 16 54 53 64 62 61 56 54 40 40 40 39 42 52 55 61 71 80 69 74 77 90 77 78 77 84 69 68 83 86
19 18 9 10 19 26 19 19 34 38 36 27 20 25 19 10 45 49 46 55 62 57 64 39 40 38 41 49 54 60 66 71 74 69 71 84 86 68 82 82 78 65 67 68
27 21 13 11 11 18 25 30 17 25 20 30 22 19 14 12 30 47 47 49 59 61 73 70 43 38 40 47 52 58 66 66 74 73 66 73 91 68 79 76 77 70 72 67
25 30 18 11 10 16 21 21 30 27 39 42 29 26 27 19 12 42 48 51 64 68 75 77 79 57 47 40 47 52 64 67 70 70 70 65 71 83 77 75 78 73 66 70
27 29 23 16 18 20 22 29 33 29 39 43 36 27 19 22 25 41 46 46 56 58 73 88 77 85 67 42 41 50 64 68 68 67 71 66 64 76 84 74 70 80 71 86
26 33 34 23 14 12 14 22 24 32 34 40 46 35 18 22 30 30 38 37 55 63 72 75 71 78 74 52 39 44 54 66 68 69 66 71 67 68 70 82 75 66 80 80
32 42 46 30 20 18 20 16 16 16 16 18 26 31 27 25 26 29 34 33 44 58 75 63 68 67 68 56 44 41 45 61 65 67 68 69 70 67 68 62 83 71 78 72
34 39 46 49 41 31 30 23 19 22 20 20 19 19 13 27 27 24 29 28 42 62 70 62 61 63 54 57 73 41 42 48 61 66 70 70 68 69 62 62 60 86 65 90
41 50 42 33 27 26 26 25 21 23 24 30 17 18 34 26 24 24 21 21 25 32 74 71 67 61 86 73 85 60 42 43 51 63 68 70 67 64 67 63 66 56 78 63
48 64 43 41 30 29 31 28 26 25 20 18 18 15 15 16 15 16 14 14 16 19 28 33 40 37 80 66 53 58 52 44 44 59 65 66 67 67 67 69 73 68 63 77
69 83 83 69 42 41 50 31 28 26 23 19 22 20 17 22 20 19 20 20 20 16 22 39 49 56 74 70 51 54 58 43 46 49 62 64 66 70 69 69 69 77 67 64
53 84 91 86 69 90 49 32 28 30 26 25 23 18 24 29 24 22 24 25 25 36 34 69 70 82 79 92 92 92 92 78 50 52 57 62 67 70 72 70 70 70 72 68
42 58 86 95 90 56 42 32 32 40 43 32 32 30 30 39 35 28 28 41 43 46 44 73 51 67 81 94 95 96 92 91 89 55 56 62 64 68 72 71 72 67 71 73
57 71 92 98 93 82 43 28 22 32 48 29 47 51 53 51 62 50 45 42 43 52 54 69 54 66 57 87 94 92 96 93 76 70 57 59 61 67 69 71 67 70 65 66
91 90 96 95 99 87 68 61 44 71 72 69 59 60 61 69 65 55 52 48 45 47 46 64 71 72 70 67 88 95 92 85 66 54 52 63 59 63 66 68 67 66 69 67
91 100 99 98 96 94 66 69 92 86 77 76 73 69 63 61 58 56 61 60 53 56 54 68 78 78 76 88 92 94 91 77 72 71 67 60 62 58 65 69 70 69 69 72
96 99 100 100 98 70 71 83 78 79 84 82 82 72 67 70 67 64 70 67 71 66 78 82 80 84 88 94 95 97 96 84 77 78 73 74 68 60 62 70 71 72 71 72
85 88 100 98 77 78 88 84 80 81 86 83 83 81 78 81 74 78 77 82 80 85 89 85 91 87 86 88 90 95 92 92 96 83 83 66 72 69 57 70 68 71 73 76
96 95 96 99 91 94 83 87 90 86 86 84 84 80 82 83 85 86 85 81 89 86 88 85 91 90 89 86 90 87 91 94 98 91 83 69 62 73 66 66 73 71 68 72
97 96 100 100 89 98 96 92 88 94 91 88 94 91 83 89 93 91 92 92 92 92 92 94 88 90 91 89 88 86 88 90 95 99 80 71 60 75 70 71 99 100 97 100

GFSCGP_sfc_rhum_060.txt.gz
RH
32 47 56 46 35 30 30 30 28 22 17 23 69 86 88 82 74 71 70 65 54 54 49 43 41 51 57 61 64 67 69 78 77 89 89 92 84 86 85 94 83 86 88 84
43 53 39 31 27 27 30 31 28 21 18 24 85 93 86 81 73 68 68 65 57 52 50 46 42 50 54 58 64 68 68 77 76 80 86 84 82 82 80 89 91 85 84 89
46 36 28 31 32 30 32 34 28 24 20 59 73 90 92 83 73 70 70 65 72 52 49 47 45 50 49 55 69 68 71 74 77 79 86 90 85 85 86 93 91 88 83 84
40 28 25 29 31 29 42 22 18 19 23 35 58 90 86 87 86 87 74 69 73 63 46 47 46 52 50 52 65 69 70 75 74 78 84 87 86 88 81 85 84 89 84 85
28 24 28 28 24 24 26 19 19 21 25 26 26 25 71 76 83 92 74 64 64 57 47 45 44 51 50 50 59 72 73 75 72 69 68 78 85 81 82 80 83 88 90 84
16 13 16 20 18 20 16 18 20 25 27 33 26 22 77 80 83 83 79 76 68 54 50 43 41 47 53 53 56 74 75 75 77 72 81 78 82 81 87 81 84 89 94 89
15 14 14 14 21 20 18 26 35 36 32 33 30 24 21 60 50 70 74 69 58 50 49 51 43 45 53 57 60 73 75 74 74 79 85 81 78 80 81 86 74 75 86 96
20 18 13 12 21 26 26 24 34 37 40 35 26 28 19 34 45 51 56 52 54 52 61 54 42 45 48 54 58 69 75 74 71 72 78 89 78 75 86 86 73 70 71 75
32 26 17 13 13 20 28 32 23 30 54 34 31 25 21 25 27 58 54 56 61 58 63 59 40 40 52 53 57 63 74 71 69 69 68 78 90 80 82 85 87 81 72 75
33 28 22 15 14 17 36 23 30 38 42 46 36 33 31 38 46 51 59 58 51 65 66 64 47 40 52 52 53 57 64 69 71 67 65 64 74 88 78 81 81 83 80 78
34 32 26 18 22 26 21 26 30 33 44 47 44 34 36 42 40 43 55 52 51 63 71 76 60 57 60 63 54 57 60 63 73 72 67 64 64 76 92 78 76 79 79 79
38 40 44 28 23 18 19 30 30 37 35 45 50 40 30 31 32 28 35 51 64 67 70 68 67 73 59 59 53 56 58 62 62 70 70 69 65 68 79 87 71 74 81 89
36 49 51 30 31 32 33 29 33 32 28 24 25 25 25 27 31 27 27 58 60 77 73 82 75 74 57 58 50 51 56 61 59 64 68 71 67 66 66 71 91 76 70 85
38 49 51 55 49 37 36 30 29 35 35 32 28 24 27 22 21 20 27 37 81 91 85 88 68 63 64 64 66 57 51 62 60 61 67 70 72 66 62 63 69 93 74 66
48 54 52 48 34 33 33 32 30 39 40 37 27 25 24 26 22 18 19 24 55 80 80 62 58 39 55 71 73 69 64 54 62 65 67 67 69 71 67 61 65 70 87 70
66 73 72 61 42 42 44 39 35 30 31 33 30 26 24 28 24 24 22 22 34 42 48 32 49 58 70 60 47 75 80 73 62 67 68 69 68 72 74 71 64 69 66 79
70 82 86 86 58 53 54 43 38 36 36 37 42 35 30 34 31 27 47 45 46 46 46 55 63 83 88 85 79 70 82 86 81 67 68 70 74 74 74 74 72 68 67 59
69 86 94 95 80 90 48 41 35 36 34 38 39 42 51 54 50 49 48 47 43 40 50 49 48 75 82 88 94 93 92 92 87 90 70 70 74 76 75 73 75 72 71 65
75 82 92 94 95 65 48 54 62 61 50 68 71 65 56 56 47 42 50 48 47 45 44 47 51 72 84 81 86 96 91 92 91 88 88 74 71 76 76 76 74 73 75 75
74 87 93 98 98 96 88 65 56 61 61 78 76 79 78 68 76 63 58 50 53 48 44 42 54 69 72 94 94 91 90 91 86 87 78 79 72 70 73 74 72 71 68 71
92 94 95 96 99 92 69 66 66 79 75 79 79 82 83 88 78 66 60 55 52 51 44 46 58 83 81 84 94 94 91 91 87 88 84 83 70 65 68 70 71 70 71 68
93 97 97 97 97 98 68 67 83 89 85 76 76 78 86 82 77 72 65 62 57 55 49 64 81 94 86 88 96 96 97 88 78 76 83 77 68 65 61 67 71 70 71 73
95 94 96 98 94 80 87 92 88 86 85 79 77 81 80 79 81 74 75 71 67 65 65 75 88 94 85 96 96 94 90 95 96 96 90 82 81 63 59 65 69 72 70 74
91 93 99 98 80 84 80 82 80 80 85 76 77 82 78 89 86 80 76 77 80 78 79 91 94 88 92 88 84 96 87 88 94 97 96 95 91 86 86 60 90 69 70 72
91 95 90 94 90 89 87 84 85 86 83 83 78 81 83 92 92 89 89 84 83 86 82 96 94 96 93 90 87 93 82 85 90 91 96 97 96 94 92 83 83 74 79 74
96 94 99 98 87 94 91 88 82 89 86 86 89 88 84 88 94 92 91 93 94 90 89 98 96 95 94 92 88 88 92 85 92 96 94 95 92 90 85 89 97 100 96 98

GFSCGP_sfc_rhum_063.txt.gz
RH
32 38 49 44 43 38 36 37 35 30 22 23 80 80 86 77 77 73 72 67 56 53 50 50 53 55 58 63 68 66 69 84 89 89 88 93 90 92 92 94 90 92 90 85
47 51 41 37 35 33 33 37 38 28 22 27 43 84 88 86 77 73 72 68 60 54 51 51 51 58 63 64 67 70 67 82 84 84 89 86 86 90 91 93 94 88 91 87
49 39 33 36 40 38 42 42 39 32 25 76 88 87 95 89 79 75 73 66 65 54 52 53 58 62 61 65 69 71 68 79 82 83 88 93 88 87 89 95 94 90 89 87
43 32 33 35 38 38 53 33 29 26 28 28 72 86 88 92 91 82 79 75 68 54 50 55 53 61 61 62 64 68 69 75 78 83 86 88 86 88 85 89 90 91 89 86
38 30 39 35 29 31 35 27 26 26 25 31 32 43 64 96 93 85 85 77 69 59 51 52 51 54 57 57 63 66 73 74 73 78 74 87 89 84 83 85 89 93 93 87
16 14 19 26 23 24 24 29 25 30 30 33 26 27 61 90 82 76 77 75 67 60 56 54 52 52 53 53 61 68 76 77 77 76 82 85 86 87 88 88 89 94 97 94
19 16 16 17 24 22 24 29 38 38 36 34 33 27 23 62 70 62 69 72 58 62 57 54 52 55 54 56 64 71 75 77 80 76 80 81 83 83 86 87 85 92 97 96
21 19 16 15 22 25 25 27 36 40 41 34 34 28 25 35 42 57 55 58 58 62 66 54 50 54 54 54 61 72 75 73 76 76 81 83 80 77 82 88 86 84 80 85
33 28 18 16 16 20 28 31 26 38 57 34 34 28 27 40 43 45 62 67 68 64 64 57 48 51 55 55 58 68 73 70 74 74 75 87 81 80 80 85 90 86 84 78
37 32 26 18 17 17 26 27 38 38 41 41 38 38 53 48 41 42 67 66 66 65 62 59 50 47 52 53 54 61 67 68 70 70 68 75 84 84 84 83 90 92 86 83
54 35 26 22 26 26 30 35 38 41 42 45 45 52 40 49 39 39 52 60 59 57 64 66 56 50 50 54 55 59 66 66 68 68 67 66 74 92 92 85 81 85 90 86
45 46 40 35 28 23 27 39 41 44 44 46 50 51 26 37 32 28 70 68 59 68 67 79 83 87 81 79 76 70 64 65 66 66 66 66 66 74 89 90 84 81 81 84
46 50 46 36 31 34 36 34 46 42 38 38 32 35 21 24 22 25 61 82 89 85 88 85 88 90 85 80 68 67 67 65 63 66 67 66 65 67 69 80 93 84 82 82
40 57 52 54 54 44 42 36 36 44 50 45 32 33 24 26 26 25 32 50 78 88 75 84 88 88 83 73 72 70 63 58 64 66 70 70 69 65 64 64 78 90 80 80
50 69 75 57 43 43 42 43 38 43 48 50 38 37 26 29 28 31 41 48 53 66 58 67 85 84 80 81 80 72 66 58 62 63 68 71 70 67 64 64 66 81 90 76
67 78 76 66 56 50 48 40 38 37 34 36 36 42 33 36 36 54 54 48 47 48 50 62 57 70 65 83 88 79 72 78 61 68 67 77 70 73 71 69 67 67 79 84
74 81 84 83 71 54 54 48 45 44 42 40 48 50 60 59 53 63 62 55 52 49 43 50 60 73 80 86 91 91 91 89 78 68 76 77 79 75 78 74 71 68 68 69
77 85 90 90 77 82 54 66 52 44 68 76 69 70 71 70 62 63 61 60 57 55 52 45 39 58 71 82 89 94 93 91 86 86 72 70 73 77 79 80 78 71 67 69
80 90 96 94 95 70 59 76 75 85 85 80 86 78 72 68 60 61 60 58 57 55 52 48 42 49 69 82 93 95 94 94 91 89 90 73 73 78 77 81 80 77 71 71
81 90 93 96 96 95 82 64 58 72 91 77 77 82 82 76 86 62 66 62 61 53 51 49 46 53 61 78 90 97 95 95 93 88 82 83 83 76 81 77 77 74 76 73
94 96 96 89 96 91 76 68 63 91 89 84 76 80 82 82 71 72 69 72 64 59 53 48 46 55 70 66 91 93 97 97 92 91 90 89 80 89 83 90 92 84 80 83
94 96 99 95 96 96 77 73 82 88 91 74 70 71 73 72 72 68 72 76 72 67 60 52 51 55 63 75 92 93 97 96 94 93 91 88 86 89 90 89 81 90 92 90
97 92 95 92 92 84 90 88 75 77 77 71 71 68 73 76 72 72 79 80 76 71 67 61 61 61 66 88 88 99 94 96 96 98 97 94 92 79 90 89 76 77 77 77
84 93 99 96 80 84 84 86 87 77 80 80 78 78 77 81 78 81 85 91 79 72 74 73 75 73 74 75 84 79 93 94 95 96 96 96 95 95 96 90 89 70 74 77
93 94 87 92 87 87 83 88 86 84 81 82 76 79 80 84 86 86 89 83 79 81 77 75 85 83 84 79 87 80 87 95 98 96 92 95 96 97 98 96 92 80 66 74
92 92 97 96 86 86 83 83 83 88 85 79 87 84 83 86 90 88 89 88 91 88 85 92 88 85 87 94 91 86 94 95 97 97 89 88 95 97 96 98 97 100 96 99

GFSCGP_sfc_rhum_066.txt.gz
RH
39 44 49 48 44 43 42 40 40 33 33 42 43 76 88 80 80 80 77 67 61 59 53 54 54 56 62 72 82 83 86 90 90 92 92 93 90 92 91 94 88 91 91 91
48 45 37 33 42 42 38 43 43 31 28 29 51 72 90 82 81 76 78 67 62 60 57 55 57 53 62 74 78 82 82 89 88 87 90 89 89 92 92 91 91 89 88 87
50 42 33 40 43 40 50 52 43 37 29 58 88 90 90 86 84 80 76 69 65 58 61 55 61 60 62 71 76 78 79 86 87 88 91 93 89 88 89 93 93 90 88 86
45 36 36 40 41 44 70 36 32 36 33 33 72 77 94 92 94 86 82 79 71 60 56 56 56 66 67 70 72 74 76 83 85 89 89 89 88 88 86 88 89 90 90 88
42 36 42 42 37 36 43 30 32 30 34 33 36 72 55 96 97 90 85 78 69 63 54 58 57 67 67 67 69 72 77 82 85 86 85 85 89 85 86 92 89 92 92 89
27 16 30 36 32 29 26 28 28 32 33 36 28 56 30 96 89 79 76 77 71 64 56 55 55 63 66 65 67 72 81 83 85 86 87 88 87 88 87 88 88 89 92 94
19 20 19 18 25 27 29 34 46 42 40 36 37 29 31 43 42 53 74 75 73 66 60 57 57 62 67 69 69 71 80 82 83 84 86 86 86 87 87 87 86 90 91 92
21 23 19 17 20 20 32 31 42 41 45 35 40 32 32 43 42 40 63 68 69 69 62 57 58 57 63 66 68 70 78 79 82 83 85 87 88 83 85 86 86 86 87 86
31 29 20 17 17 23 29 34 36 39 54 37 37 38 35 35 31 32 40 69 72 68 64 63 57 57 60 62 67 71 76 76 80 78 81 86 86 87 84 88 87 86 87 80
42 31 26 20 18 21 30 32 38 40 42 43 40 60 61 46 39 35 46 64 74 68 63 64 59 55 58 56 60 67 70 72 75 76 77 77 80 83 83 86 89 89 87 86
56 32 28 28 34 39 36 41 40 43 44 42 56 63 36 44 42 35 78 89 71 71 75 73 78 59 62 56 58 64 69 71 72 74 76 78 82 83 84 80 84 87 90 89
43 39 40 42 32 31 34 45 45 45 44 44 57 52 26 28 28 37 69 92 92 88 91 86 84 87 76 77 74 66 64 68 68 72 76 76 80 84 83 82 83 85 86 89
52 52 45 52 33 36 40 40 48 44 41 51 51 38 22 28 31 48 63 53 62 80 88 87 87 91 89 85 80 80 76 67 64 71 67 74 77 82 85 86 85 84 83 85
44 65 47 40 46 48 47 42 41 47 54 53 44 46 32 36 42 55 54 46 52 60 62 72 84 88 92 87 86 84 81 72 69 69 70 73 75 75 74 81 89 84 84 83
53 78 70 60 48 47 46 48 41 47 46 46 36 48 40 53 53 64 56 49 47 49 51 57 66 72 73 85 90 90 79 76 68 71 72 72 73 74 76 78 83 86 85 80
70 86 75 73 62 56 50 44 42 39 40 44 42 45 66 60 60 64 64 59 59 58 48 51 48 60 66 81 82 87 89 84 71 74 70 76 77 79 79 80 80 85 87 85
77 84 79 74 76 59 67 61 52 48 53 68 52 68 77 76 70 68 68 65 62 59 58 53 50 61 69 77 86 92 90 93 88 77 77 81 81 82 82 80 81 82 84 86
80 85 90 89 75 58 59 69 64 59 80 84 84 80 76 76 70 64 65 69 67 64 61 58 51 46 56 70 85 93 90 93 92 90 80 81 88 84 83 84 84 82 77 80
85 88 96 93 95 71 80 74 73 83 72 82 87 80 75 70 64 66 66 63 65 68 65 60 54 50 48 61 80 90 91 93 93 90 90 83 80 84 87 86 86 82 79 79
79 90 94 95 89 86 85 66 61 70 92 84 82 79 76 73 87 62 66 63 65 66 67 67 62 54 47 50 74 84 88 93 93 92 89 88 88 83 84 88 88 90 84 78
96 94 98 92 93 90 80 70 68 90 84 87 79 70 68 79 70 66 64 68 65 66 67 69 67 64 56 47 67 83 87 89 94 93 91 91 87 90 86 89 92 92 92 90
93 94 100 93 97 92 76 69 69 78 90 85 76 67 68 65 65 65 66 69 67 72 74 71 71 68 63 58 72 83 90 85 91 92 94 92 92 86 86 92 90 93 95 95
97 90 94 89 90 78 85 79 77 83 85 74 73 63 70 76 73 69 68 70 73 72 75 73 72 72 70 70 69 73 78 92 94 95 94 94 92 90 93 92 95 96 93 87
86 93 96 94 80 87 84 85 84 82 86 78 62 70 76 81 76 76 71 70 76 75 82 78 79 80 80 70 66 67 66 84 92 97 96 95 95 94 93 92 86 83 81 88
92 94 91 90 86 86 82 85 82 82 85 87 77 79 86 84 84 84 86 84 82 79 78 77 71 71 77 81 78 68 66 83 91 92 92 95 94 94 92 92 92 86 78 74
96 93 97 96 83 81 75 77 81 86 87 86 85 89 82 81 88 86 86 86 86 86 84 88 84 85 82 81 83 79 73 87 91 92 87 90 93 96 94 95 92 100 100 100

GFSCGP_sfc_rhum_069.txt.gz
RH
22 29 35 38 39 32 30 28 27 24 31 32 22 25 48 66 68 68 67 62 55 53 52 52 60 52 54 56 63 67 71 77 72 68 65 65 63 62 62 61 68 70 71 76
23 25 27 32 35 33 33 31 30 24 22 24 24 28 64 58 64 68 61 55 52 50 50 52 53 50 52 57 63 69 72 78 75 65 68 64 65 61 61 64 70 67 71 77
21 19 24 32 33 36 32 32 30 26 23 36 53 54 65 69 66 66 65 54 50 49 48 49 51 50 50 56 63 68 74 76 76 72 70 72 69 69 66 67 63 64 70 69
26 22 28 35 36 32 37 27 26 26 25 21 36 27 56 65 71 73 65 61 51 49 46 46 47 49 50 53 57 65 70 75 74 78 71 76 62 60 55 60 58 63 70 70
30 32 29 37 34 30 35 26 26 25 25 22 26 28 39 61 68 74 69 61 50 48 46 45 45 47 46 50 54 60 70 75 74 79 75 68 69 56 58 60 73 72 76 74
22 17 26 30 26 24 24 21 21 21 20 24 19 25 27 37 43 37 53 59 55 48 45 46 43 45 49 48 53 58 71 78 75 77 76 78 74 69 61 64 63 61 62 88
15 13 12 16 22 25 23 23 28 29 27 24 21 21 37 31 30 33 40 43 55 51 48 46 47 46 51 52 56 58 70 75 74 74 74 74 73 74 73 70 60 65 60 63
27 27 14 13 14 17 24 22 24 34 28 22 23 21 33 22 27 39 51 45 46 53 47 45 47 48 52 54 58 60 67 72 71 72 76 77 75 61 58 65 56 56 55 56
20 19 14 15 15 17 21 23 17 21 24 20 19 25 24 20 33 47 62 56 52 52 51 49 47 47 51 54 58 61 66 70 68 65 72 76 74 73 64 68 67 56 64 54
23 22 18 17 16 17 20 20 20 22 32 28 32 40 31 32 46 60 77 71 52 52 56 51 47 46 48 48 52 56 60 66 66 63 64 64 68 72 69 69 72 67 63 67
24 19 23 21 26 27 20 22 25 21 24 24 30 36 22 38 61 73 65 76 74 61 56 55 52 50 50 46 48 51 55 61 62 62 65 64 63 64 67 66 68 70 67 70
32 23 29 27 23 23 23 28 26 23 36 30 26 30 24 43 52 54 65 62 64 72 75 74 62 58 55 57 48 48 50 54 61 62 69 65 65 65 63 67 65 68 71 68
30 29 31 27 22 23 27 26 25 21 23 36 25 25 26 44 47 44 50 54 53 54 53 56 62 78 76 62 55 50 50 48 55 66 67 67 63 63 65 66 64 66 69 69
32 34 31 20 30 28 32 29 26 23 23 28 26 29 33 47 47 43 42 44 48 51 51 52 52 62 80 84 79 71 65 49 48 54 64 69 72 70 62 67 68 66 70 69
36 40 39 37 33 31 31 30 27 25 28 26 29 28 40 50 48 45 41 40 44 51 51 52 52 55 65 77 77 76 74 74 62 56 55 59 65 70 74 74 70 69 68 68
40 51 44 47 40 35 33 33 31 28 25 25 25 36 49 48 47 48 48 46 47 46 47 52 52 54 52 70 78 77 76 82 82 74 63 63 67 70 71 73 76 74 72 71
50 50 46 45 47 38 33 40 36 34 46 36 28 55 56 52 53 52 48 50 53 51 49 49 50 51 53 57 65 76 83 85 83 86 74 68 69 73 75 71 73 75 75 72
49 68 68 48 44 48 48 47 48 47 60 57 55 60 58 58 51 45 43 53 54 52 52 51 44 50 54 54 61 68 77 81 87 87 78 69 70 71 73 74 75 77 72 74
49 55 78 69 52 47 50 50 49 50 63 65 62 58 53 51 45 47 52 48 50 51 49 48 46 49 55 54 56 68 74 77 77 85 81 75 67 71 72 74 77 74 72 72
52 57 68 76 60 54 53 47 47 51 45 64 61 60 55 51 46 36 49 47 48 49 49 50 50 52 50 53 52 60 68 75 76 81 79 78 80 78 77 75 77 74 74 72
67 76 80 69 71 58 53 48 53 67 59 64 60 58 58 59 54 52 48 50 49 50 53 53 54 56 56 54 53 68 71 71 72 64 80 80 75 80 75 79 80 78 76 74
70 85 91 84 90 84 53 52 61 60 63 59 58 57 60 56 54 54 53 54 54 54 53 52 55 56 56 57 59 63 73 71 71 77 79 72 83 72 67 79 77 85 84 87
91 81 94 79 74 58 58 50 52 51 56 57 58 51 51 53 56 57 57 58 56 57 56 53 54 59 58 59 63 68 70 74 75 76 78 76 75 75 74 79 81 80 97 87
73 71 93 85 60 61 60 59 58 58 56 55 51 48 48 59 58 57 56 61 62 63 65 60 61 62 63 61 62 63 64 68 78 75 78 76 73 77 75 69 68 69 63 84
71 77 82 82 65 63 61 60 58 60 60 60 57 58 59 65 59 59 63 68 67 71 70 68 66 65 66 62 64 60 62 65 70 74 73 81 71 78 75 75 71 71 82 70
72 77 94 96 63 61 55 62 61 63 63 62 65 64 62 67 67 64 67 73 76 76 77 79 76 73 68 62 63 64 65 72 76 74 74 78 74 76 79 69 75 92 99 100

GFSCGP_sfc_rhum_072.txt.gz
RH
15 18 17 16 16 18 16 21 23 21 28 26 23 19 39 45 48 57 71 51 44 39 37 37 44 49 41 43 46 52 55 62 57 53 50 48 48 47 46 44 54 57 54 59
17 18 13 15 19 25 22 22 22 20 17 20 17 17 32 33 42 49 66 56 44 39 37 39 43 42 38 43 45 53 57 64 61 48 50 46 47 43 43 45 55 51 55 61
15 12 14 24 26 27 22 20 22 21 18 17 21 24 38 39 37 51 49 42 40 39 38 40 44 43 37 42 46 53 60 64 62 54 53 59 55 62 77 55 49 51 58 58
12 13 16 22 26 22 22 19 21 22 20 20 17 24 32 43 46 62 60 46 38 38 38 38 39 40 36 39 43 50 59 63 61 63 58 65 50 45 42 47 44 50 58 56
17 14 17 22 23 22 22 21 21 21 22 20 17 19 36 33 43 69 65 53 38 43 44 36 36 38 35 37 39 45 59 65 62 66 62 56 62 43 45 41 72 61 67 57
18 12 15 19 21 23 21 21 20 20 18 24 17 16 23 27 32 30 43 47 44 36 41 38 34 35 36 36 38 42 58 69 67 67 69 68 61 57 44 50 78 51 56 53
20 20 17 18 25 22 23 20 22 22 21 19 14 17 30 26 28 33 34 30 40 37 36 36 37 36 38 38 40 43 55 68 66 65 65 66 65 69 62 71 47 49 44 44
20 23 18 18 22 24 24 18 16 28 19 16 17 19 25 24 33 40 40 31 28 37 33 35 37 37 39 39 42 44 53 64 63 62 67 67 66 51 50 52 40 42 40 42
19 19 12 12 12 13 22 23 12 14 14 13 15 26 20 23 39 45 53 39 35 37 36 38 36 36 38 40 43 47 51 60 60 56 62 66 66 64 51 55 53 43 49 39
16 22 14 13 12 13 15 14 19 16 25 24 17 24 25 36 50 50 65 74 46 40 40 37 39 36 37 36 38 43 46 54 56 55 55 55 59 63 60 57 60 55 46 53
15 16 18 15 17 17 15 16 16 12 14 17 21 23 22 44 56 58 58 64 68 71 68 69 61 40 38 37 38 40 43 48 51 51 54 55 53 54 59 57 59 59 55 55
19 13 18 18 17 16 17 18 17 17 26 18 16 25 29 38 48 58 56 54 53 55 59 68 74 84 70 44 39 38 40 40 43 47 55 55 56 54 51 58 56 58 60 55
24 21 23 21 16 18 18 18 18 16 16 23 17 27 32 38 44 52 50 49 49 48 49 51 52 74 85 77 80 50 39 35 37 51 50 56 56 56 54 54 56 57 59 59
28 21 30 19 21 17 23 19 18 16 16 19 18 32 38 39 41 40 43 44 44 46 46 46 60 76 80 74 74 77 64 49 41 39 46 54 60 56 51 54 57 56 59 60
24 29 26 25 22 20 19 18 18 20 21 21 23 27 36 38 37 36 34 35 44 46 46 46 47 55 71 79 78 73 74 73 63 62 48 50 57 57 57 57 59 58 59 59
23 33 29 30 25 23 22 21 20 18 18 20 20 32 31 36 36 36 37 37 39 41 46 46 43 47 50 57 70 72 69 76 79 75 65 64 56 58 61 64 65 62 61 62
32 29 34 27 28 24 23 20 20 20 22 20 22 35 35 36 39 39 35 38 43 41 41 40 44 46 49 48 44 54 65 61 70 75 79 68 69 66 64 62 65 68 68 63
34 40 33 23 30 33 34 30 27 24 34 31 38 41 40 41 37 34 36 40 42 40 41 40 33 39 48 49 50 48 47 55 60 74 80 80 67 64 69 74 71 68 65 66
31 33 36 41 29 30 31 33 29 35 40 40 38 39 36 34 30 40 38 36 38 38 37 37 35 36 44 44 52 60 62 63 59 71 76 81 80 75 73 68 75 77 73 67
32 39 45 41 51 40 35 34 32 30 33 42 40 41 37 32 22 41 39 35 36 36 37 40 39 38 37 44 41 44 47 62 67 69 62 67 76 82 80 76 84 86 87 77
48 50 68 44 56 39 36 34 35 42 47 43 39 40 39 36 39 41 38 40 40 40 42 42 42 42 43 43 44 52 50 49 56 63 64 71 67 75 82 83 83 91 89 86
52 72 78 56 65 83 36 41 48 50 43 39 40 40 42 40 39 40 40 42 44 45 44 43 45 45 44 45 47 54 58 55 58 65 74 73 72 67 57 76 82 78 88 92
80 59 86 62 64 47 43 40 42 35 42 41 40 36 37 37 41 41 41 42 44 48 48 45 47 52 50 49 50 56 59 60 60 60 62 74 65 56 65 69 70 80 74 73
47 47 83 69 36 44 44 40 40 39 38 39 36 35 36 40 41 41 40 41 43 45 51 49 55 56 58 55 54 54 56 56 58 62 62 57 65 60 57 49 43 53 68 49
45 51 60 64 48 44 42 41 42 43 42 42 39 41 43 43 43 43 43 46 45 49 51 55 59 61 61 57 60 55 54 54 54 56 53 54 46 52 54 53 45 45 61 66
44 54 83 84 44 51 38 44 45 47 46 45 44 46 44 45 48 47 47 48 53 53 59 65 60 66 65 62 60 59 58 60 62 56 48 44 42 41 40 43 46 62 86 87

GFSCGP_sfc_rhum_075.txt.gz
RH
13 13 16 13 12 9 11 14 17 16 19 20 24 43 39 39 41 47 60 68 41 40 34 34 30 37 39 36 41 46 48 57 50 48 43 41 66 72 70 69 51 53 69 55
13 15 12 10 10 10 12 12 15 16 19 19 18 17 29 35 38 45 58 65 47 40 37 35 33 37 44 38 43 48 52 61 56 46 50 40 65 59 76 66 50 48 52 56
13 10 10 10 12 15 16 15 16 18 16 17 15 18 27 26 29 46 56 45 49 42 39 37 41 41 44 39 42 48 54 60 60 53 47 48 46 54 55 60 43 47 55 52
11 8 10 12 15 17 16 12 12 16 18 20 15 22 27 27 30 52 59 47 43 42 38 36 40 43 46 36 36 46 54 59 58 56 55 65 52 57 42 53 70 47 52 51
12 9 11 16 18 16 15 11 13 16 17 14 17 18 47 29 36 49 48 42 40 41 37 40 42 40 47 33 36 44 56 63 62 63 69 53 70 56 43 73 70 61 59 52
12 8 9 11 12 15 16 16 16 15 15 18 15 13 37 32 57 41 41 53 40 39 37 44 41 44 44 32 33 41 60 67 62 61 64 64 62 68 67 80 51 46 43 47
17 16 10 10 14 16 18 19 23 24 20 17 12 13 28 24 24 24 35 41 38 47 34 41 51 38 45 40 32 38 56 66 63 60 61 62 62 59 64 59 49 58 67 40
17 19 12 11 15 20 20 17 16 26 17 14 12 17 25 25 31 33 30 25 34 36 35 33 36 45 47 41 33 36 50 63 62 61 65 65 64 49 47 52 50 45 71 72
16 16 12 13 14 15 19 21 11 11 9 11 14 22 22 29 34 44 50 31 24 36 44 37 35 38 46 46 37 37 49 57 59 55 61 65 65 63 49 56 52 44 61 85
17 20 12 12 12 13 14 13 18 14 23 20 15 24 22 36 40 48 54 53 56 71 85 90 68 45 42 40 35 34 39 52 54 52 54 55 59 62 59 52 57 52 64 48
11 17 16 13 15 14 14 16 15 12 12 16 18 25 26 44 46 50 57 51 50 62 67 70 84 89 85 77 43 40 36 44 49 49 51 53 53 54 58 55 55 57 52 53
12 13 18 16 12 12 13 13 14 17 22 13 14 29 28 43 46 49 55 52 48 56 65 72 77 84 86 86 89 88 40 35 40 44 52 50 51 52 51 57 55 58 61 54
16 13 20 19 15 14 15 14 13 11 11 20 16 34 30 46 48 48 50 50 51 48 48 62 63 71 89 84 82 81 78 59 34 40 40 46 47 50 52 53 55 58 60 60
35 15 23 21 18 13 18 15 14 14 16 17 17 39 36 40 48 47 46 46 45 48 52 53 63 67 70 82 87 79 73 63 67 75 39 47 51 51 54 54 57 54 61 62
18 25 20 18 15 13 14 15 14 16 15 16 31 34 34 35 36 39 40 41 44 45 44 47 48 63 75 79 80 84 71 77 76 78 73 74 50 57 62 57 59 57 59 60
16 27 24 23 18 16 16 14 14 14 15 16 23 34 28 30 32 34 36 38 42 43 40 40 43 48 52 56 70 74 68 66 76 73 75 71 62 75 66 62 62 63 62 64
27 20 26 26 21 21 23 16 15 13 13 16 23 31 31 32 33 32 33 36 37 36 38 37 37 38 45 42 50 53 71 67 69 75 71 76 78 70 75 75 76 71 68 64
29 34 26 23 25 38 22 22 14 15 18 26 30 29 28 32 30 28 31 34 35 35 35 35 29 37 46 41 44 44 41 52 59 68 65 74 77 77 77 80 80 80 79 77
19 29 34 34 28 23 25 25 24 27 32 27 30 30 28 26 26 37 32 31 32 33 31 32 30 32 38 39 50 56 46 52 54 54 62 76 69 78 79 83 84 79 74 69
20 30 34 33 39 32 30 22 22 20 34 29 27 29 26 23 23 38 34 31 32 32 33 35 34 32 32 38 36 41 45 55 51 63 58 64 67 73 81 77 78 88 86 67
37 36 48 37 43 31 30 25 23 35 39 31 26 28 28 25 35 36 32 34 34 36 37 39 38 39 40 39 40 47 46 46 49 50 51 56 59 64 70 70 66 78 87 89
41 61 66 43 48 70 28 30 35 44 36 32 30 31 32 33 31 33 33 34 35 38 38 38 40 42 43 44 44 50 53 51 53 55 56 58 59 53 47 69 70 66 70 81
66 43 82 48 58 45 36 34 38 32 38 33 32 28 28 28 32 33 34 35 35 37 40 38 40 46 46 48 50 54 57 57 57 57 59 58 58 55 58 61 66 54 63 62
34 34 65 48 35 37 35 31 30 28 29 30 27 27 27 31 32 33 34 35 36 37 41 40 46 48 52 52 52 53 55 55 57 60 60 54 52 52 51 44 54 46 34 39
38 36 45 45 37 34 33 33 33 32 31 31 29 31 33 34 34 36 37 40 39 42 42 46 51 52 54 53 56 51 53 54 54 55 51 50 44 45 46 46 38 38 51 42
32 42 66 74 38 42 40 34 33 37 36 35 34 37 37 37 39 38 39 42 45 44 45 51 54 57 56 56 56 56 56 59 58 55 47 43 41 39 36 37 36 60 64 68

GFSCGP_sfc_rhum_078.txt.gz
RH
16 18 17 15 13 13 14 15 18 25 25 20 43 69 72 42 39 43 41 54 40 38 36 40 37 32 35 42 49 55 62 72 66 64 62 74 66 71 74 85 75 83 84 69
14 16 11 11 11 11 12 12 13 27 28 37 47 54 62 48 44 43 43 57 55 42 41 41 35 35 36 46 52 61 67 73 68 64 71 65 68 72 78 84 75 77 74 71
13 10 9 10 11 11 10 11 14 26 44 32 31 53 65 46 40 42 45 50 53 45 46 41 41 47 41 57 54 61 69 73 70 70 70 74 91 94 94 95 82 65 73 66
10 8 8 10 11 10 13 10 12 21 22 23 18 29 35 37 52 54 50 48 51 45 45 47 44 49 45 65 50 61 66 73 68 73 70 75 71 82 76 69 77 68 67 70
12 10 10 10 10 10 14 11 12 20 19 16 16 19 28 38 65 57 52 46 44 42 42 41 37 44 47 48 44 57 66 75 71 74 79 75 76 89 89 77 85 82 78 68
9 7 8 9 9 12 13 14 12 14 19 21 17 16 44 57 72 68 48 46 58 42 40 38 38 45 46 46 39 54 68 77 75 73 73 79 78 95 97 92 89 90 71 69
14 11 7 8 11 13 14 17 20 23 24 22 13 16 36 57 74 79 37 48 66 58 51 40 42 46 47 47 43 56 69 76 73 72 71 75 77 78 89 87 76 70 75 64
19 19 14 10 10 14 16 16 20 31 22 17 14 18 33 35 64 68 30 32 38 42 42 64 40 46 50 49 50 56 70 76 73 72 76 78 77 83 70 91 76 83 83 88
24 18 11 10 9 11 16 20 14 14 13 14 18 30 32 36 41 42 46 51 69 82 87 78 46 45 64 47 47 54 70 73 72 68 74 77 76 77 69 72 71 74 89 81
18 25 13 9 9 12 18 14 19 17 28 30 24 34 40 42 47 50 50 54 64 79 92 93 88 68 73 49 42 47 62 69 68 66 68 69 73 75 74 77 74 68 87 90
14 19 20 14 16 17 18 24 18 15 17 23 34 44 32 46 47 53 51 55 64 75 87 96 96 92 87 79 78 93 56 63 63 63 66 68 68 68 72 71 70 70 66 88
13 14 27 15 11 11 13 16 16 20 28 19 48 63 39 44 47 51 54 53 54 67 77 85 92 95 94 91 84 90 88 88 56 59 68 66 67 67 68 71 69 72 76 72
21 16 23 20 13 12 13 14 13 12 14 27 40 42 41 47 50 52 53 51 52 58 67 73 84 86 92 97 95 89 91 94 91 78 55 59 62 69 66 74 70 72 74 75
32 16 27 46 28 15 17 14 13 13 16 18 37 54 54 54 54 52 50 49 48 50 58 75 79 76 80 91 91 90 90 93 95 90 93 73 60 60 60 74 76 74 76 75
16 20 18 19 16 14 13 13 13 15 16 27 44 48 50 52 50 48 45 45 46 46 46 50 59 67 70 74 75 90 91 86 88 89 89 96 96 70 66 73 76 75 75 71
15 24 29 26 16 16 16 12 13 13 13 17 33 38 33 39 42 42 43 42 44 45 41 42 45 48 57 61 70 75 84 86 81 82 85 86 93 92 83 79 78 77 74 77
22 23 37 33 18 19 23 17 14 14 13 40 51 41 32 35 36 39 39 38 40 39 38 38 41 43 47 43 50 62 80 77 88 84 75 81 86 90 93 84 79 79 82 81
28 40 31 34 28 39 20 14 14 15 16 26 34 36 32 33 31 33 33 35 37 36 37 36 32 39 42 42 43 50 49 63 66 68 70 75 74 77 88 88 92 92 88 86
17 26 36 39 59 37 26 23 20 18 23 25 29 29 29 28 32 37 31 30 34 34 34 34 32 33 42 44 46 54 50 55 55 60 66 70 72 71 75 89 90 92 93 92
18 26 38 35 38 39 32 20 17 18 33 27 29 30 30 26 38 39 33 30 32 33 36 38 35 33 36 44 39 46 51 55 55 59 62 65 67 72 76 82 84 84 84 89
31 33 42 38 39 39 30 22 20 38 36 28 25 26 25 29 39 38 33 36 34 37 38 38 39 42 46 45 45 53 53 52 56 57 59 64 66 71 72 75 76 89 93 88
42 54 58 38 49 69 26 26 32 44 35 28 30 32 34 36 34 33 33 35 36 37 38 36 41 46 46 49 51 57 64 63 64 66 66 68 69 60 54 73 75 76 77 81
62 41 80 47 67 49 35 37 38 33 37 33 32 29 30 30 33 32 34 35 35 36 40 36 41 46 48 52 55 59 66 66 67 68 70 68 68 66 67 70 71 66 67 68
34 30 52 51 39 40 41 32 32 30 34 30 27 27 24 27 30 32 33 36 37 39 42 42 46 49 54 56 55 58 63 65 66 70 70 65 64 62 61 54 52 50 52 49
39 33 39 42 37 33 30 31 30 28 26 28 25 26 27 30 33 34 37 40 42 42 43 47 50 52 55 57 61 54 60 62 61 64 62 60 52 55 56 55 50 48 51 48
32 45 68 70 39 44 41 32 31 33 32 30 31 32 32 34 37 37 38 45 44 45 45 52 52 54 56 56 58 63 62 65 62 60 55 53 53 50 50 52 51 56 65 69

GFSCGP_sfc_rhum_081.txt.gz
RH
20 29 34 28 24 19 21 26 28 28 34 60 72 76 66 68 73 50 43 42 42 45 39 43 38 41 46 58 57 68 60 82 72 81 86 90 87 86 93 95 92 88 79 78
27 33 23 17 17 18 17 18 22 33 42 64 71 72 64 49 69 45 46 48 42 46 45 44 42 38 49 57 63 77 80 82 76 75 85 79 86 91 90 94 90 83 86 80
26 22 17 13 16 17 18 20 21 40 41 50 56 76 78 70 53 46 48 49 46 45 48 47 40 42 50 60 68 79 78 81 80 77 85 90 94 96 92 94 93 89 78 78
19 14 13 13 14 16 22 14 12 36 43 59 58 86 79 69 58 55 49 59 52 52 48 48 44 52 53 59 62 77 79 83 76 82 80 76 87 93 92 90 94 93 80 74
18 13 13 13 12 13 16 13 17 31 41 42 58 61 76 66 73 74 65 60 51 46 49 47 53 49 56 56 57 68 84 84 74 81 86 85 87 94 94 93 92 89 85 75
15 11 11 13 10 10 11 15 20 29 32 42 32 37 73 79 69 68 85 71 54 55 59 54 50 52 57 56 57 65 86 85 83 82 84 84 90 88 88 93 93 92 88 78
18 13 10 9 14 13 17 30 44 37 53 44 30 33 80 76 76 79 83 77 61 49 57 48 51 56 58 58 58 65 81 90 89 86 84 86 90 82 79 90 89 90 93 90
29 28 17 9 15 19 23 30 42 45 45 38 25 68 76 56 56 60 48 64 63 63 76 68 54 52 54 58 59 63 75 91 89 86 88 88 88 94 93 88 94 95 95 89
32 28 15 12 12 14 22 25 22 30 29 33 56 67 65 60 65 65 72 80 91 91 93 85 83 81 60 65 55 63 73 77 83 82 92 88 87 92 91 88 91 91 89 83
30 35 22 16 14 12 16 25 30 38 51 40 66 73 92 88 72 70 74 78 82 91 96 96 95 94 91 84 68 62 72 76 77 81 82 92 89 89 90 93 87 88 93 92
24 37 29 21 18 17 33 38 47 35 38 41 69 89 78 81 70 75 74 74 82 86 94 97 98 97 95 93 95 95 96 94 90 84 88 89 92 86 89 89 85 92 94 94
29 20 46 34 20 17 21 32 36 44 42 58 75 86 70 74 64 65 73 67 72 80 89 92 95 96 97 98 96 96 97 96 95 96 95 86 88 84 89 88 84 83 91 95
36 36 39 36 25 18 21 18 22 26 30 42 72 85 64 72 68 62 66 62 62 70 80 84 88 95 98 98 98 96 97 98 97 95 96 96 93 90 91 89 83 84 92 93
44 26 35 53 42 30 25 18 18 31 34 57 52 84 69 64 65 64 59 56 60 63 69 82 90 90 93 97 98 96 97 97 97 95 96 98 97 97 96 90 88 89 88 87
28 36 33 29 27 23 20 18 17 22 33 55 76 75 72 66 62 54 50 49 51 54 59 64 75 80 90 92 87 91 93 94 96 95 95 97 98 96 95 94 95 90 89 85
25 43 37 37 25 22 21 19 16 16 38 56 57 71 59 54 54 51 48 46 49 56 52 54 57 62 70 81 88 88 88 94 92 95 94 94 96 96 97 96 97 89 90 89
37 49 55 49 35 27 33 24 20 40 38 45 73 64 52 55 52 52 48 46 52 52 53 56 60 63 63 64 76 84 89 90 88 88 91 94 94 93 95 96 97 98 96 90
42 55 55 66 54 57 31 22 20 22 34 42 47 51 48 48 49 47 48 51 51 50 51 51 55 61 61 60 61 65 63 73 86 84 84 86 90 87 90 95 97 96 98 98
29 46 54 73 79 52 34 27 27 27 44 40 43 41 38 41 43 48 43 46 50 52 53 49 48 60 65 62 68 70 68 71 69 68 74 77 80 73 78 89 92 94 97 96
31 43 59 64 72 66 48 28 24 27 56 44 48 40 40 43 63 62 44 44 49 53 55 56 55 58 60 64 61 67 70 73 73 71 70 72 74 73 74 81 85 83 96 97
53 55 66 66 73 59 45 26 25 46 59 45 41 43 43 64 65 55 50 52 52 55 50 56 62 66 69 68 72 78 80 78 74 72 69 72 71 77 70 71 76 88 92 93
70 83 92 66 75 76 44 36 57 59 43 46 46 47 52 52 49 52 50 53 51 54 50 55 65 68 71 71 74 81 84 80 76 77 77 78 75 67 60 75 74 73 79 77
75 68 92 73 86 62 52 60 54 48 50 48 45 45 45 46 48 49 54 53 51 55 59 60 62 68 75 74 77 80 82 80 80 81 82 80 77 74 71 74 72 66 64 75
55 46 83 68 67 61 53 46 45 45 46 42 40 37 38 47 44 48 52 56 61 61 66 64 66 73 77 80 75 77 79 79 78 80 78 72 76 70 70 60 62 66 66 55
63 56 57 63 55 52 48 51 45 40 44 38 40 35 35 46 47 54 56 66 61 65 67 66 74 76 79 76 79 78 78 79 78 76 72 70 64 65 62 59 61 58 56 58
56 60 83 93 67 73 60 55 46 47 40 42 41 42 45 45 53 51 69 65 61 65 74 71 70 72 79 79 79 79 77 80 85 78 72 71 68 66 64 64 63 68 72 72

GFSCGP_sfc_rhum_084.txt.gz
RH
29 30 33 29 30 27 27 28 32 45 57 75 84 85 81 70 72 57 47 45 44 44 42 43 55 58 61 64 66 68 76 79 82 89 91 96 92 86 94 94 83 87 89 81
30 35 26 23 24 25 26 29 24 49 50 64 79 80 74 73 76 66 50 47 47 49 46 44 50 54 56 61 67 75 77 79 78 78 90 86 92 93 94 95 90 89 88 85
34 27 22 23 24 23 25 30 28 50 59 63 72 78 72 61 66 71 57 43 49 46 50 46 49 49 60 63 74 75 79 78 78 85 90 97 96 95 94 94 94 93 85 86
26 20 21 24 25 21 30 19 17 48 55 66 62 77 86 77 66 72 63 53 56 47 57 56 50 53 60 63 75 73 79 80 78 88 83 87 91 94 92 88 93 93 85 82
23 21 21 20 20 16 18 16 18 35 50 70 72 82 76 79 84 82 80 71 67 51 61 58 46 56 57 61 72 71 78 83 84 90 89 79 86 92 95 96 89 92 91 84
20 15 15 15 12 12 12 22 35 42 47 61 52 68 83 83 76 72 79 73 64 57 61 60 57 55 56 57 64 78 81 78 81 86 87 90 89 91 95 94 97 96 94 87
24 21 15 13 15 15 18 35 46 46 56 57 44 62 56 66 68 69 73 62 61 56 68 59 60 59 62 60 66 79 81 86 85 86 87 92 90 86 87 91 82 93 95 93
36 30 19 15 14 17 22 32 47 44 54 44 37 68 77 80 70 77 75 73 60 66 76 70 67 61 66 70 69 69 86 85 91 90 89 93 92 94 91 88 95 96 96 92
38 33 23 19 13 14 22 31 28 34 44 34 82 83 70 79 83 80 83 88 92 96 95 88 90 93 78 75 70 67 85 84 88 94 92 91 92 90 91 92 92 92 94 84
32 38 28 18 18 16 17 24 38 43 53 53 92 94 95 92 90 85 85 87 90 93 96 97 96 96 94 91 94 85 72 85 85 90 89 93 90 92 90 93 87 94 90 91
45 32 26 28 29 21 29 38 44 41 47 47 88 94 85 91 89 89 88 86 88 95 96 97 98 97 98 97 97 98 98 96 96 96 96 95 95 92 93 95 93 95 93 94
47 34 37 41 27 25 29 37 43 42 42 74 89 96 74 86 88 84 85 80 83 90 92 96 96 98 98 96 98 98 98 97 98 97 96 96 97 95 94 94 92 95 92 93
33 36 46 37 30 30 25 23 39 39 54 65 62 94 82 85 83 75 78 71 78 85 87 90 95 98 98 98 98 98 98 98 96 96 97 98 97 98 97 95 90 95 93 93
41 34 36 48 43 40 30 22 23 35 40 65 87 94 87 79 77 71 70 64 71 74 78 88 93 93 97 98 98 98 99 98 98 97 97 98 98 98 97 97 98 96 96 92
27 40 41 26 27 28 27 23 22 32 34 52 86 85 83 75 70 68 64 62 63 64 63 72 83 85 92 93 96 97 97 98 98 98 98 99 99 98 97 95 94 94 97 95
36 53 46 37 32 32 29 25 32 39 50 72 82 93 68 64 59 58 56 54 57 59 59 61 65 72 82 83 89 96 95 95 95 96 97 98 97 96 97 98 96 96 97 97
47 55 58 61 44 29 38 33 29 51 54 71 87 82 64 63 56 52 48 48 52 52 53 56 62 64 68 71 78 78 90 89 89 91 95 96 96 95 94 95 96 96 96 97
41 61 66 64 53 54 34 28 25 47 56 64 67 63 59 58 56 57 51 53 56 58 53 53 54 58 62 72 69 75 80 83 86 83 87 90 93 94 94 92 92 94 97 97
36 55 56 65 76 52 35 28 30 35 65 59 61 57 55 53 52 60 52 52 55 58 60 68 70 69 67 69 74 78 79 78 75 75 76 79 83 79 78 91 93 94 95 95
39 55 57 78 79 65 50 30 27 29 61 61 52 53 50 47 66 62 55 53 58 58 62 64 68 66 69 78 76 74 81 82 82 79 75 73 70 73 75 81 90 92 94 95
77 63 65 76 81 67 53 38 30 57 58 51 49 45 45 65 56 59 59 59 56 60 63 68 71 76 78 80 81 86 88 88 84 80 77 75 73 71 66 69 72 83 89 94
78 86 93 77 80 73 53 47 50 58 59 61 58 57 61 57 54 55 56 60 56 63 66 67 76 81 79 77 79 86 91 87 82 84 82 79 74 66 62 68 65 65 68 68
74 73 88 80 86 70 66 58 59 49 52 61 67 56 50 51 52 54 59 60 60 64 68 68 77 83 88 84 82 91 92 84 81 81 83 80 77 64 63 63 64 59 58 57
70 62 81 69 72 60 54 54 48 47 46 46 46 46 46 51 52 53 60 68 67 68 69 71 78 86 84 85 84 90 85 81 82 85 84 81 80 78 73 62 60 63 62 62
68 62 59 67 62 56 57 52 45 41 44 43 40 40 46 48 53 56 62 67 68 72 72 76 81 84 88 87 86 84 83 84 86 87 85 88 85 86 81 76 73 64 68 69
67 65 86 89 73 71 64 63 56 45 44 45 42 43 52 53 60 60 64 66 72 75 81 79 78 87 87 86 88 87 87 85 90 91 88 90 89 90 85 86 75 75 77 79

GFSCGP_sfc_rhum_087.txt.gz
RH
34 35 36 31 30 29 30 33 28 52 59 70 73 82 80 75 74 54 47 49 46 47 54 56 63 64 67 72 78 81 82 88 86 93 94 95 94 92 96 94 84 86 92 91
35 38 27 23 26 29 32 34 38 71 70 74 82 78 78 78 81 66 51 51 50 47 60 65 66 64 68 72 74 80 80 85 88 87 93 89 95 92 95 95 90 88 87 88
39 29 24 25 29 29 33 34 28 70 74 74 77 82 81 76 75 79 72 56 51 48 54 65 67 67 64 71 74 74 83 81 85 88 96 98 96 95 94 95 95 91 87 87
32 25 24 30 30 27 51 22 22 65 68 82 73 84 87 76 78 79 78 62 54 51 52 63 63 66 64 66 69 71 80 80 82 92 90 90 90 94 94 92 94 92 88 86
30 25 26 27 26 23 25 19 19 57 62 74 79 80 76 74 79 78 85 67 57 54 52 57 57 62 64 63 70 75 80 83 86 90 91 88 92 93 94 92 88 92 94 87
23 20 20 21 18 18 17 22 32 51 61 76 65 63 78 88 69 71 76 66 59 54 56 53 54 72 76 62 71 76 80 82 91 91 91 86 90 93 95 96 95 96 96 96
28 25 20 15 21 19 24 35 45 72 72 69 62 72 72 87 68 69 74 71 64 70 72 62 69 67 74 69 76 73 79 87 90 91 92 92 89 92 90 92 95 94 96 96
40 33 22 17 18 20 26 26 46 55 67 56 66 74 85 88 84 77 80 83 73 81 78 71 72 72 78 74 72 73 80 79 88 89 93 94 92 94 92 91 95 96 96 93
40 36 24 22 17 15 27 35 30 40 61 47 91 92 85 79 88 90 93 91 91 94 96 86 80 79 79 80 69 75 78 74 87 88 94 95 93 92 89 89 93 96 94 87
37 42 31 22 20 19 20 24 33 45 53 62 94 97 91 91 93 92 93 94 94 95 96 97 98 96 92 94 86 80 79 84 87 94 94 94 95 93 92 94 93 92 91 93
48 39 26 32 31 28 27 41 48 44 51 61 96 92 90 93 92 96 93 91 95 96 97 97 98 98 97 95 94 96 96 97 97 95 95 94 95 94 95 94 93 91 94 93
45 35 39 43 26 29 25 36 52 44 59 79 88 94 82 90 91 92 92 84 91 94 96 97 98 98 98 98 98 98 97 98 98 98 97 96 96 95 96 96 94 96 96 95
33 40 49 42 39 33 27 26 51 50 68 78 66 85 82 89 90 88 90 90 88 91 92 97 98 99 99 99 98 98 98 98 97 98 98 98 98 98 97 96 95 94 96 96
37 36 41 56 44 42 36 28 29 39 42 67 68 92 95 93 88 81 76 81 85 82 88 94 97 99 99 99 99 99 99 98 98 99 98 98 99 99 99 97 96 96 97 96
29 41 42 37 32 32 31 30 36 35 39 59 76 94 92 90 83 79 74 69 70 71 73 82 89 93 96 98 98 98 98 98 99 99 98 99 99 98 98 98 97 97 96 97
43 48 45 47 35 34 34 31 31 54 75 87 88 94 82 76 70 71 71 66 65 63 65 66 72 78 86 88 95 96 98 97 96 97 99 99 98 96 96 98 98 96 97 98
56 53 52 63 50 45 56 39 36 58 71 82 84 83 74 73 66 66 64 64 63 58 58 60 64 69 75 76 79 82 92 91 90 92 94 96 97 97 96 94 92 96 98 96
42 69 70 58 54 74 49 30 41 67 69 76 80 73 68 65 63 59 56 54 55 55 57 58 62 67 73 76 77 84 82 82 83 79 85 89 89 93 94 95 95 94 95 94
45 59 73 62 72 53 39 31 29 49 79 69 70 66 63 61 61 66 59 58 57 61 68 66 64 68 74 73 70 71 72 71 71 72 75 79 81 75 76 88 91 93 94 94
50 55 58 84 73 52 45 33 31 36 66 65 61 64 63 56 78 76 64 61 68 66 65 70 74 76 77 83 76 77 81 79 82 81 77 70 71 77 70 75 88 88 90 91
74 72 66 83 81 66 52 45 41 49 57 67 59 58 57 58 67 64 64 67 68 70 74 76 77 83 87 84 81 88 87 90 85 78 75 74 73 70 67 71 72 77 82 89
73 83 92 80 81 71 53 48 48 49 68 68 60 55 53 65 62 63 60 66 70 75 76 76 81 87 87 85 86 93 91 87 80 79 78 79 75 66 64 69 64 65 61 61
77 74 88 78 83 64 68 70 67 59 63 70 67 64 61 61 60 58 63 69 70 72 79 82 89 91 90 89 87 90 91 82 80 82 84 82 78 73 72 72 70 66 66 64
72 74 86 76 75 63 61 59 54 55 57 64 65 58 61 60 54 61 62 70 72 74 78 85 84 90 94 92 88 90 87 84 83 86 87 86 85 85 84 77 71 75 73 71
72 59 66 68 66 61 60 57 53 52 54 53 57 55 56 55 58 60 72 70 68 74 82 84 85 93 94 90 90 89 87 84 88 90 88 90 89 93 90 86 85 79 80 81
71 66 86 88 61 64 59 61 59 56 52 52 51 53 57 51 56 60 70 70 72 78 84 86 90 93 94 92 92 91 90 87 90 92 91 93 94 94 92 93 92 82 80 81

GFSCGP_sfc_rhum_090.txt.gz
RH
36 43 46 48 33 31 44 48 52 52 68 79 84 85 80 73 68 60 58 64 60 60 60 62 64 70 76 80 85 86 85 88 92 94 93 93 96 95 95 94 86 88 90 89
37 46 33 37 28 29 33 36 78 83 73 78 90 88 74 75 78 59 53 52 54 56 59 67 69 71 74 78 84 88 85 91 90 91 93 89 94 91 93 94 90 86 85 88
41 35 25 25 29 29 37 37 36 75 84 81 80 89 84 79 76 82 71 51 49 52 67 70 72 73 74 79 83 84 87 91 90 89 95 97 95 95 94 94 93 89 86 86
36 30 27 31 30 29 53 25 28 76 75 81 78 90 92 81 83 82 80 63 52 53 61 69 70 72 73 75 76 83 87 89 87 92 91 90 91 93 93 92 93 90 88 85
34 28 30 32 28 26 28 23 22 69 74 85 88 76 65 84 88 83 79 74 58 54 64 69 65 66 68 67 72 78 87 87 87 93 92 89 92 92 92 93 89 92 92 86
27 22 23 24 23 23 26 24 43 54 74 78 76 68 71 95 80 73 71 71 65 55 61 67 61 66 72 67 68 75 87 87 89 92 91 89 90 93 95 95 95 95 93 90
33 28 24 19 23 23 25 31 44 79 76 77 79 71 64 89 90 74 67 74 68 61 65 71 69 78 80 71 71 78 84 86 88 90 91 91 90 91 90 91 95 95 97 94
40 36 26 21 23 25 27 28 50 74 80 67 77 73 68 85 87 85 74 80 78 86 79 71 76 78 80 74 74 77 78 80 88 91 92 93 91 93 91 89 95 97 96 90
44 37 26 20 18 17 31 29 27 47 60 66 87 86 88 83 90 91 93 93 96 92 86 81 82 75 86 86 72 75 82 81 86 87 93 93 92 91 88 88 92 95 93 85
35 42 34 25 20 24 27 28 38 47 56 65 94 93 83 96 96 94 96 93 95 95 97 96 93 84 86 86 89 81 82 87 91 88 90 92 91 90 88 90 91 92 90 90
43 41 31 34 35 28 32 48 49 47 54 76 94 87 90 93 90 94 93 96 96 97 97 98 98 95 93 92 90 93 94 95 98 97 92 92 93 92 92 91 90 91 89 89
40 34 45 44 31 31 32 42 53 48 63 87 81 73 86 92 92 91 90 95 95 95 97 97 98 98 97 94 96 96 98 97 98 98 96 95 94 93 94 95 93 91 92 92
30 39 50 38 37 32 31 31 47 56 76 84 60 58 89 92 93 92 89 92 93 94 96 97 98 100 99 99 98 98 97 98 98 99 98 97 97 97 98 96 95 93 93 93
38 38 42 48 45 42 38 36 42 42 50 66 61 81 95 98 94 87 87 90 86 89 94 97 98 99 99 99 99 98 98 96 97 97 98 98 97 96 96 95 94 94 95 94
31 38 43 39 34 35 40 37 43 71 44 56 55 76 92 95 90 83 82 78 77 81 85 90 95 98 98 99 98 98 98 99 98 98 97 99 98 97 96 96 95 93 94 95
44 50 43 49 42 45 48 38 50 67 77 86 91 84 88 84 79 80 78 75 72 71 76 77 80 88 96 97 98 98 98 98 96 98 98 98 98 97 97 95 95 95 94 94
54 49 48 57 51 47 52 44 63 70 77 84 84 83 83 82 78 78 75 71 73 73 73 72 72 74 79 84 88 94 94 91 91 93 95 96 96 96 94 92 92 94 93 92
56 67 64 56 62 79 54 40 55 69 74 78 85 84 77 74 70 67 67 71 71 69 69 72 70 76 81 84 86 82 79 77 80 79 82 85 88 90 90 90 91 91 93 93
53 67 77 57 72 53 41 36 38 52 66 76 78 72 68 65 62 69 62 63 67 66 65 67 72 75 73 71 72 73 78 76 71 72 73 77 81 75 79 86 89 91 91 92
51 60 65 80 62 55 44 44 44 42 56 74 70 69 65 62 83 75 67 67 68 64 68 74 73 68 68 70 66 71 76 75 75 74 74 72 72 78 82 81 89 89 90 89
67 74 70 82 75 62 56 50 49 54 57 72 63 64 63 65 75 70 69 75 70 73 77 78 80 82 84 80 74 81 79 81 78 74 75 76 74 69 74 77 75 76 80 87
62 79 89 80 79 62 55 50 49 51 66 64 67 67 65 68 72 66 70 75 74 78 80 78 81 84 86 83 78 84 84 80 80 80 78 79 79 67 66 80 71 72 75 77
80 74 89 73 80 64 67 66 64 63 64 66 70 66 70 70 71 71 74 74 74 76 81 81 82 88 88 85 80 82 86 82 81 82 83 80 78 75 77 77 78 71 76 68
74 76 81 78 72 72 64 61 58 61 64 69 66 66 74 82 77 81 80 82 81 78 84 80 82 87 90 84 83 84 83 81 82 84 83 81 80 79 77 71 70 73 73 71
72 65 70 71 62 65 57 60 58 58 63 66 66 66 68 71 74 77 75 75 75 77 82 78 83 86 88 86 86 82 80 80 81 82 80 81 78 80 79 77 76 73 74 76
74 67 84 85 60 66 62 64 59 58 61 65 65 66 70 69 69 68 69 72 75 78 82 84 87 85 87 86 87 87 83 82 83 82 79 80 77 78 78 78 77 83 84 85

GFSCGP_sfc_rhum_093.txt.gz
RH
25 35 41 31 22 25 46 47 52 46 55 61 68 81 82 74 60 63 54 54 55 59 46 47 49 50 52 58 64 67 69 75 70 69 68 66 63 70 68 62 70 71 70 68
30 38 31 26 22 21 25 35 34 62 56 66 78 82 81 68 63 56 55 52 53 48 49 49 49 51 52 58 64 69 71 76 73 67 68 63 68 63 64 66 70 68 67 71
26 28 24 25 25 22 22 23 53 48 73 71 79 88 77 66 63 56 54 46 46 46 48 52 52 52 52 59 65 69 72 75 73 72 71 73 72 72 69 70 64 63 67 66
29 22 23 21 24 21 24 19 30 60 53 76 62 89 73 65 74 70 52 46 43 44 46 49 50 52 52 56 60 66 71 74 72 76 71 82 75 83 62 61 64 64 67 65
26 24 24 24 21 21 23 18 24 52 55 57 64 80 57 68 73 76 63 49 39 39 43 48 50 51 50 54 57 62 71 75 71 76 75 65 82 60 61 62 74 76 75 69
22 18 19 19 19 20 19 26 35 45 43 44 49 47 49 68 62 59 60 58 52 41 42 50 61 60 56 53 56 61 72 76 76 76 76 77 76 81 68 69 65 64 62 64
23 20 16 15 17 20 17 18 39 36 41 28 43 52 36 56 66 61 54 55 57 46 47 54 63 62 62 59 65 76 69 76 74 73 73 76 74 76 77 72 64 66 68 73
26 28 20 16 17 18 20 16 29 41 42 34 50 42 38 68 74 71 65 47 53 51 48 51 57 70 80 78 63 65 64 73 72 70 74 76 76 62 61 70 65 63 76 80
25 23 19 16 15 14 20 19 15 29 33 30 42 49 66 70 83 75 61 54 56 56 56 54 56 61 66 83 71 62 70 72 69 65 70 74 73 74 67 75 73 65 72 61
25 26 20 18 14 17 17 15 19 24 40 39 55 56 44 73 89 90 84 85 83 74 65 71 66 62 64 78 90 84 83 72 77 73 72 73 75 77 72 74 73 73 69 74
21 24 24 24 22 18 20 20 25 20 27 28 37 43 64 64 76 89 93 90 92 94 90 90 84 79 82 87 91 88 91 73 84 94 90 76 72 70 78 72 71 75 75 76
22 20 27 25 20 19 19 26 25 19 40 43 32 36 69 69 70 76 84 82 80 88 91 96 95 88 82 82 91 91 91 87 90 81 94 92 79 71 81 79 75 77 75 75
26 29 30 26 21 22 28 25 28 32 35 44 25 29 68 74 80 82 83 86 89 87 91 95 97 97 91 80 83 94 98 95 97 97 97 98 96 82 84 82 77 78 76 80
37 29 31 26 29 26 36 36 24 22 21 36 27 46 80 75 76 81 80 82 85 86 89 95 97 98 99 92 95 89 93 93 97 97 97 98 97 89 83 78 79 78 80 77
28 35 31 29 28 26 30 42 41 24 28 28 33 35 53 67 69 69 70 79 80 82 86 91 96 98 98 99 98 98 97 96 96 96 97 98 97 90 82 81 81 78 78 77
30 47 39 37 32 33 26 33 46 47 50 49 52 46 59 61 64 67 70 76 76 77 82 85 89 94 97 98 99 98 98 98 96 96 97 96 94 99 96 85 84 82 80 81
40 36 51 43 38 35 36 31 32 42 50 49 39 52 64 68 66 66 66 67 69 69 73 77 84 87 94 98 96 97 97 95 96 95 95 94 93 92 94 90 85 80 79 75
43 48 42 37 43 43 36 30 33 37 47 51 57 62 62 62 59 59 56 59 63 61 64 66 70 83 87 87 91 87 80 84 86 82 82 82 86 82 80 79 82 82 81 78
36 41 48 47 42 36 32 31 31 33 35 54 58 61 58 54 54 59 51 51 56 57 58 60 60 70 74 76 78 82 80 77 74 76 76 75 74 72 71 76 72 71 70 73
32 43 34 46 38 41 35 32 32 31 35 51 54 57 55 52 61 54 51 49 52 55 64 69 70 66 64 66 64 69 77 72 73 71 72 74 72 74 76 77 73 73 71 72
39 42 41 44 40 34 36 35 36 43 41 48 52 53 52 54 57 51 49 53 53 64 68 70 66 67 71 65 59 65 62 65 66 65 62 65 63 71 76 71 69 69 68 66
42 54 58 50 49 57 42 37 36 44 43 46 52 52 52 53 58 52 54 59 60 66 65 62 64 64 61 60 62 68 70 66 68 67 64 66 67 53 60 71 68 70 71 73
70 50 77 49 51 50 50 48 45 42 45 46 51 49 49 52 57 56 59 60 62 62 60 53 56 63 62 62 58 62 70 66 64 64 65 65 63 61 63 64 66 52 62 56
51 54 62 61 52 53 47 42 39 42 41 46 47 50 49 54 56 58 59 58 59 60 61 56 59 61 66 64 63 63 65 64 63 66 66 62 61 62 58 47 48 48 48 49
46 54 53 51 47 50 46 46 40 39 44 47 50 50 50 53 57 61 65 67 62 63 61 60 60 62 66 66 65 60 62 60 58 61 59 59 54 56 56 56 52 49 59 60
45 50 62 62 45 49 44 46 44 43 41 46 48 53 54 53 58 60 66 74 71 68 68 65 64 64 66 65 65 65 61 59 55 54 50 49 47 47 47 47 50 84 83 87

GFSCGP_sfc_rhum_096.txt.gz
RH
15 27 35 24 19 20 45 59 40 39 53 86 82 86 88 86 81 42 35 35 34 34 33 34 34 36 38 41 48 52 55 64 68 63 49 47 46 48 45 44 57 57 54 56
16 24 24 24 18 20 28 37 36 38 46 53 86 87 86 88 81 52 37 32 32 32 32 36 36 35 37 44 47 54 57 64 64 52 56 46 47 44 44 46 56 53 54 58
13 13 23 25 19 20 23 28 29 44 56 54 65 79 77 77 88 61 39 31 32 36 33 36 38 36 37 44 50 54 60 62 62 57 56 69 62 57 64 53 51 51 54 54
10 14 22 25 25 19 22 18 30 44 45 74 57 83 69 71 88 79 48 36 35 34 33 34 36 38 36 40 46 52 58 63 61 64 57 69 84 75 69 47 46 49 55 52
14 16 22 23 24 22 20 15 22 29 38 55 63 44 59 75 70 63 49 36 30 31 30 33 35 36 35 37 42 47 59 64 60 66 62 56 59 74 44 45 68 60 61 56
15 14 15 16 18 20 16 17 21 26 31 43 39 38 54 50 55 45 47 40 34 29 29 31 32 35 36 36 40 45 60 68 65 65 66 67 64 58 81 68 56 48 46 52
17 18 14 14 19 18 19 20 29 30 29 25 29 35 33 37 50 42 51 46 38 30 30 31 36 38 39 41 44 47 58 66 64 62 61 63 63 66 62 67 73 50 66 57
19 20 16 14 14 19 23 18 25 43 30 24 29 38 31 33 42 46 38 44 39 36 30 31 51 59 62 44 48 65 67 63 62 62 65 65 65 50 60 53 51 75 54 48
16 17 12 12 12 12 19 24 16 20 22 21 25 26 49 48 50 46 43 41 38 40 36 34 38 42 50 68 62 70 73 60 59 55 61 65 71 67 52 64 62 73 72 47
17 19 12 12 11 11 12 13 20 19 33 30 25 28 26 55 52 68 47 42 36 41 42 40 39 47 61 74 83 69 58 79 65 59 55 62 56 57 56 59 67 66 55 64
15 16 16 13 14 13 14 14 12 14 17 21 24 24 34 39 51 67 70 72 62 48 49 52 50 49 52 71 84 94 91 74 68 70 66 71 60 51 55 56 56 59 60 64
16 15 20 15 14 13 10 12 13 14 25 18 18 29 42 44 48 56 71 72 77 78 82 76 64 64 73 70 82 88 94 94 89 69 77 72 62 60 52 57 56 62 62 68
18 19 23 21 16 16 14 12 12 11 11 24 21 20 44 50 55 59 64 68 75 81 85 87 77 71 68 72 82 90 91 80 84 93 89 82 86 71 64 63 57 59 62 63
28 18 23 19 17 14 22 19 14 13 14 16 16 25 48 52 57 63 67 72 76 76 84 92 96 89 85 74 72 75 88 91 95 97 96 97 95 91 82 65 65 60 62 67
24 27 21 19 17 17 18 16 14 16 13 16 15 17 33 47 51 57 62 66 71 70 72 87 95 96 97 94 80 78 81 84 84 92 96 93 92 93 90 83 74 66 64 60
22 33 28 28 22 18 23 24 20 17 18 16 19 20 35 42 48 54 60 70 67 68 69 79 88 91 96 98 97 92 88 88 82 88 88 90 84 88 90 85 77 72 70 69
31 29 35 32 26 25 24 23 22 26 25 22 19 34 39 48 53 52 54 61 62 62 66 76 85 87 93 96 97 97 98 96 96 96 96 95 92 86 89 97 92 78 71 69
32 36 30 29 32 41 29 22 22 25 28 27 32 37 41 45 47 48 48 51 58 60 67 71 79 87 91 91 94 91 90 94 93 89 88 87 88 87 85 85 88 84 76 70
24 28 30 34 32 28 28 27 25 24 26 29 37 42 42 44 47 53 46 46 50 52 54 61 66 76 84 90 92 90 84 81 88 81 77 75 74 75 73 72 70 68 67 69
21 28 25 27 34 36 31 25 23 23 29 29 34 42 44 44 44 43 46 44 46 46 49 55 62 70 71 70 71 74 87 78 73 74 70 69 68 69 71 70 74 70 68 65
28 29 31 26 29 25 28 25 25 36 40 34 37 38 40 43 59 47 43 45 46 50 54 56 57 61 64 62 68 69 69 78 68 73 69 67 69 72 69 70 70 68 61 65
33 36 36 31 36 44 30 28 34 40 32 32 38 40 42 46 43 44 46 48 50 54 59 60 62 65 65 61 58 66 75 69 73 73 72 71 63 46 51 66 70 62 66 67
54 32 49 30 36 41 38 37 34 30 34 34 37 35 40 42 44 46 50 50 50 54 60 54 55 58 56 59 63 68 70 64 62 64 67 63 56 53 57 59 66 54 58 46
39 38 41 39 33 35 35 33 30 31 30 29 33 36 37 42 42 45 47 47 49 52 53 46 48 51 55 54 52 54 59 57 57 60 61 58 53 54 50 36 36 36 37 38
28 38 36 37 36 39 37 35 31 31 31 29 33 37 40 42 43 44 47 50 48 50 48 48 50 50 54 55 55 49 53 52 50 52 48 49 40 46 48 45 44 39 53 57
31 32 39 35 29 34 29 30 34 33 32 31 33 38 40 42 46 46 47 50 50 53 52 54 52 51 54 54 55 53 51 51 46 43 38 34 33 35 34 38 41 84 80 85

GFSCGP_sfc_rhum_099.txt.gz
RH
10 20 27 22 21 50 67 77 83 55 62 71 74 77 86 81 70 61 33 32 30 29 28 28 27 28 31 37 42 44 67 57 57 56 48 69 71 66 56 68 51 51 49 51
11 16 16 20 18 18 29 56 90 69 55 57 82 86 86 92 74 70 52 31 29 28 31 33 30 28 29 37 42 48 57 64 65 52 78 67 72 65 66 72 50 50 48 53
10 9 11 19 21 19 20 45 64 89 68 67 80 94 91 94 88 76 64 36 29 27 28 30 33 28 30 38 42 47 52 64 58 73 70 55 58 74 49 64 51 48 49 50
10 7 10 23 24 17 22 42 68 84 46 81 75 91 77 88 89 92 53 42 30 31 36 29 30 28 28 37 40 48 52 58 57 54 69 64 83 81 54 90 81 59 50 48
10 8 11 20 20 17 23 19 68 74 46 46 62 54 66 62 87 89 53 44 35 33 30 46 28 29 27 32 38 43 53 58 56 59 69 54 58 67 50 85 68 82 58 50
8 8 10 13 13 16 17 16 17 31 33 74 38 35 52 52 74 83 71 54 41 35 38 37 26 30 30 32 42 41 56 62 58 59 60 59 60 56 75 73 70 54 58 46
11 13 10 11 12 15 19 18 27 31 85 33 32 32 36 37 60 72 74 60 39 50 28 36 31 39 40 41 43 48 55 63 60 59 56 56 59 63 62 64 48 87 85 89
11 14 13 11 13 16 20 17 24 37 30 30 34 34 36 27 32 31 40 40 36 32 44 32 34 46 39 43 36 44 53 64 59 56 59 58 57 47 46 51 66 44 80 42
11 12 10 11 10 11 16 23 15 24 20 42 31 39 36 26 28 33 38 32 39 34 39 34 32 35 54 44 44 46 59 66 55 52 58 66 66 59 65 61 56 51 57 78
14 15 10 10 9 9 10 12 20 18 34 42 33 30 29 47 43 35 35 35 36 37 33 36 43 41 54 67 66 66 63 74 64 52 52 57 58 58 54 55 60 61 79 77
14 14 13 11 12 12 11 12 15 14 15 22 33 29 30 41 38 43 34 33 32 34 36 40 44 42 45 54 62 88 82 74 76 60 60 67 54 61 56 53 52 55 55 62
14 14 16 12 9 8 8 10 11 15 25 15 17 61 26 34 37 41 53 56 54 51 43 42 39 58 61 70 80 78 91 88 85 83 72 68 58 54 68 54 52 54 58 57
16 15 19 19 10 9 10 10 8 8 9 18 16 33 30 39 48 48 54 60 61 70 66 62 58 58 66 74 64 63 76 88 92 90 87 84 65 66 72 75 55 53 55 62
30 16 17 22 19 12 14 11 9 8 11 12 16 40 38 39 46 54 64 71 73 72 75 75 74 72 71 68 71 70 76 79 90 94 96 94 90 91 90 86 85 76 63 59
17 23 18 16 18 13 10 9 10 12 12 14 12 20 31 38 43 45 56 62 66 70 74 90 89 91 81 75 70 68 68 79 80 76 75 80 94 93 89 88 87 85 79 63
20 33 27 19 19 13 13 12 12 11 10 10 13 24 28 33 41 47 53 59 61 62 68 79 92 92 95 93 79 73 75 72 73 76 76 77 80 83 85 78 86 87 83 80
31 44 34 39 17 19 21 17 14 13 11 11 16 32 26 35 41 45 50 52 57 57 64 70 81 84 93 96 96 94 92 81 80 85 88 84 81 78 79 78 82 92 87 80
33 74 52 38 42 31 27 19 16 19 19 17 22 28 29 33 36 38 40 46 52 57 61 65 70 84 89 93 96 96 96 96 93 92 92 90 89 87 84 79 78 86 79 76
23 34 46 54 72 40 27 24 21 20 23 21 26 28 30 33 37 44 39 41 48 52 54 59 65 76 87 94 94 93 93 95 92 91 87 82 81 80 76 78 77 76 86 73
16 26 33 28 51 43 57 21 19 19 28 23 24 30 33 36 38 44 42 41 43 49 55 60 68 72 77 84 88 88 92 91 93 92 80 72 71 72 73 71 71 69 68 68
25 27 28 26 28 60 34 20 19 29 43 28 25 28 33 39 47 43 40 44 44 51 57 62 64 70 70 66 68 78 76 83 74 70 77 81 72 70 69 71 71 72 74 68
31 38 32 29 56 42 22 20 26 37 29 28 30 31 33 39 38 40 42 46 48 52 52 51 56 55 61 62 65 75 77 66 74 77 73 79 71 50 57 68 70 74 76 72
40 28 41 28 44 38 29 35 29 26 31 29 29 29 32 35 39 41 45 47 48 50 51 46 50 57 56 56 53 72 74 75 70 73 79 66 72 70 65 73 65 49 61 66
26 32 34 34 30 27 26 25 25 25 27 24 26 26 28 33 37 42 44 45 47 48 50 47 51 54 58 62 64 62 58 58 69 74 66 72 76 76 71 60 42 33 33 37
21 31 31 31 31 29 28 26 26 26 24 23 25 28 29 32 36 39 44 46 47 50 47 48 50 49 52 50 53 53 59 60 59 58 55 56 48 53 48 49 56 46 55 56
21 27 27 29 26 34 29 28 26 27 26 25 26 29 33 35 38 39 42 46 47 49 47 49 48 49 51 52 52 50 48 49 45 43 37 34 29 35 33 38 41 81 76 82

GFSCGP_sfc_rhum_102.txt.gz
RH
11 13 23 26 25 27 57 84 70 84 71 62 75 88 85 67 52 60 33 32 32 29 26 27 32 33 38 42 53 62 69 79 72 70 74 75 70 73 74 72 70 69 64 61
10 12 12 17 25 54 63 71 89 89 76 92 78 85 84 86 76 70 62 53 30 27 28 33 36 33 35 45 57 75 70 74 72 70 85 87 77 76 77 67 69 64 68 68
11 9 9 13 20 35 43 47 83 86 89 90 76 92 88 87 90 76 66 57 68 32 34 35 36 34 36 47 53 69 78 77 74 75 84 87 94 85 90 83 69 67 66 63
8 7 8 11 16 27 63 58 64 81 90 94 73 94 93 94 85 85 72 64 56 44 38 34 33 35 34 43 46 62 74 79 73 84 86 83 89 87 88 91 98 94 67 66
8 8 9 10 14 23 38 44 59 74 90 95 80 64 79 86 91 86 77 63 58 44 34 39 33 35 36 39 42 53 67 77 74 79 79 77 79 77 88 93 95 94 81 69
7 6 7 8 11 15 26 34 60 76 95 98 58 50 86 85 73 78 66 61 65 47 32 47 40 41 39 39 44 53 68 77 75 72 76 82 72 79 91 97 91 90 88 74
8 7 8 8 11 12 22 25 58 85 97 77 81 48 68 59 52 62 68 78 69 54 43 35 46 40 41 47 47 55 68 74 71 67 68 68 78 77 76 88 83 83 95 94
12 11 11 10 12 13 18 27 32 67 66 75 79 53 51 44 43 50 55 53 68 64 56 47 57 70 47 57 53 70 70 75 70 68 72 75 74 66 71 79 91 95 97 97
13 12 6 9 9 10 15 20 16 25 38 44 68 54 41 37 42 47 45 58 68 65 69 67 61 48 74 77 78 71 73 72 71 63 71 72 70 70 76 74 73 76 94 94
14 21 10 9 9 10 12 12 18 37 45 51 47 71 56 47 47 49 49 51 51 56 67 53 68 72 69 76 94 76 66 68 71 66 66 68 71 74 69 70 75 78 97 92
11 16 17 10 12 12 11 12 13 13 22 40 42 56 58 38 37 39 38 40 44 47 59 80 73 75 72 64 71 76 69 74 77 71 81 77 75 68 69 70 68 70 94 92
15 15 20 15 9 9 9 10 11 16 25 19 23 40 59 61 41 36 37 35 52 40 57 75 76 84 65 72 69 79 85 86 89 89 87 70 94 90 75 82 90 68 75 79
20 20 22 19 14 10 11 9 9 8 11 24 21 65 62 64 50 52 54 57 68 59 57 64 67 76 74 71 70 74 79 82 86 85 86 88 84 82 82 84 94 98 76 75
32 19 23 20 26 20 13 10 9 9 11 12 12 36 49 48 54 53 57 58 68 71 74 67 70 74 80 76 74 70 70 72 83 90 86 90 93 87 87 82 79 82 83 82
17 26 21 16 16 17 17 10 10 12 10 13 15 28 31 39 49 51 61 63 67 71 76 76 91 91 83 81 74 69 70 75 79 88 83 83 85 90 93 90 88 89 88 86
17 28 30 31 19 19 18 15 10 9 9 10 21 40 56 76 82 58 60 66 69 69 73 81 81 81 91 87 84 78 79 77 76 83 85 85 87 87 86 88 91 89 88 87
28 35 45 42 39 24 22 22 20 10 10 11 45 48 42 64 73 61 58 62 68 75 77 82 86 87 94 97 93 94 85 80 82 85 83 88 88 84 83 83 87 87 92 92
31 49 52 69 50 43 40 21 20 25 12 28 30 47 42 57 50 50 46 53 59 69 74 77 83 90 95 94 98 94 94 96 96 96 90 88 86 84 82 80 81 82 87 92
23 45 69 95 81 61 33 37 28 34 38 25 26 26 38 75 40 44 40 47 56 62 67 70 73 82 90 95 95 96 96 96 94 94 92 90 86 84 83 83 86 80 90 90
27 48 60 56 70 62 61 44 31 28 84 56 29 28 31 32 41 55 48 49 50 64 67 71 78 82 85 86 91 95 96 94 96 93 87 86 83 84 84 82 85 82 79 84
46 51 58 80 84 62 53 47 30 36 52 27 27 29 40 52 47 49 52 60 57 60 65 68 71 77 78 75 79 90 87 89 87 88 90 87 79 82 79 82 79 79 79 82
41 37 39 42 64 68 34 35 33 54 30 29 29 31 40 39 42 47 49 60 61 63 64 64 70 72 69 71 70 76 80 76 79 80 80 84 81 79 69 80 79 78 81 84
37 34 43 39 70 51 38 41 34 29 33 30 30 28 35 34 38 43 49 56 60 53 56 52 57 64 65 68 67 71 80 79 69 70 76 77 74 74 75 71 79 78 79 76
27 27 33 35 45 32 27 25 24 25 27 24 25 25 27 33 35 40 45 48 54 56 53 51 56 60 64 62 63 64 72 76 75 79 79 68 73 76 76 76 93 83 64 61
25 30 27 29 31 29 26 24 25 26 23 21 24 26 27 30 34 40 47 60 56 60 56 54 58 59 63 65 63 58 63 65 61 63 62 64 61 63 70 67 65 65 67 67
18 25 28 29 32 43 32 28 24 27 24 23 25 27 31 31 34 38 57 66 68 67 63 65 59 60 61 62 65 67 65 67 63 61 55 56 48 56 54 58 59 78 76 80

GFSCGP_sfc_rhum_105.txt.gz
RH
20 26 31 25 26 30 66 74 79 90 90 91 85 84 86 82 69 69 38 43 35 34 34 39 41 45 47 55 56 72 77 82 77 77 87 85 82 75 78 74 70 68 70 70
20 24 16 14 29 43 59 74 85 92 84 82 88 86 84 87 80 80 71 62 50 35 33 42 46 46 47 63 58 73 80 78 80 85 90 92 88 88 84 80 76 72 67 69
18 15 11 11 39 41 60 69 80 79 89 87 93 95 86 80 84 79 67 65 66 53 39 45 48 47 50 66 72 81 86 84 84 88 88 92 89 92 94 92 92 83 72 69
12 9 10 11 42 44 70 58 66 79 83 94 95 98 95 87 81 75 72 63 67 68 46 43 45 46 50 58 66 74 76 88 84 87 86 87 92 90 94 94 94 92 81 71
12 9 9 11 13 43 69 58 61 66 92 88 88 99 94 88 83 71 63 62 65 59 47 40 40 45 48 56 62 72 82 87 85 87 88 92 88 88 95 95 88 83 91 78
12 8 8 10 13 38 49 61 70 81 92 96 82 93 94 88 71 61 59 63 62 64 57 54 39 42 50 51 64 71 81 85 88 87 84 85 86 94 95 94 94 94 94 92
17 10 8 8 29 47 60 77 94 95 93 90 78 84 83 65 67 62 64 63 61 70 68 54 48 58 44 50 60 74 80 90 85 85 81 80 85 86 89 90 90 92 95 95
25 20 10 12 15 45 59 54 76 79 92 86 73 87 81 54 53 55 58 58 66 68 66 66 48 76 78 55 60 73 84 91 85 85 85 82 83 86 92 92 97 96 96 97
27 23 12 11 12 15 27 43 34 72 78 80 88 82 76 55 61 55 61 65 72 68 70 69 63 83 87 95 70 79 89 89 87 80 86 83 88 85 84 86 97 98 98 94
18 29 19 14 11 13 18 22 36 51 84 86 84 91 90 61 69 60 60 56 50 55 61 70 77 86 92 97 92 84 89 88 85 80 84 83 82 84 83 91 97 96 94 92
30 32 24 20 20 19 20 30 28 45 45 58 86 82 71 62 54 58 52 51 52 56 62 76 82 88 88 92 91 80 84 88 88 87 89 90 90 88 83 85 86 94 94 89
31 32 37 27 14 13 16 18 21 32 36 44 41 90 66 59 57 48 53 56 58 51 54 79 85 90 91 87 92 90 88 88 90 91 95 93 96 91 92 90 89 91 93 91
30 42 45 31 23 19 17 16 19 19 19 27 37 80 56 57 53 48 62 63 62 63 81 89 92 90 91 81 84 92 90 95 97 96 95 96 95 90 91 92 89 87 88 90
40 34 40 43 32 24 30 16 14 28 22 24 24 72 76 57 52 76 94 93 95 68 79 90 94 90 90 88 87 91 95 95 95 94 91 90 95 96 94 92 93 92 91 88
30 39 34 29 28 21 21 21 16 17 22 30 56 62 84 95 74 88 87 89 91 90 92 90 90 92 94 97 96 95 89 96 96 95 94 94 91 95 92 91 89 89 90 88
32 43 55 48 46 39 37 22 22 18 13 41 71 95 90 85 81 82 78 76 87 92 92 95 97 98 100 98 94 85 90 94 94 96 95 95 96 94 94 94 94 91 90 90
45 60 68 72 57 49 44 44 34 47 50 30 53 74 82 80 72 75 76 70 81 84 94 94 96 98 99 99 98 99 94 92 95 96 95 95 95 95 95 95 95 96 94 94
51 68 73 88 72 73 64 44 40 54 59 60 54 56 58 65 54 58 73 80 82 85 90 92 99 98 99 98 98 97 98 98 98 97 97 96 94 93 94 94 92 92 94 95
40 61 76 94 91 68 55 58 48 53 66 62 81 74 66 65 84 76 67 75 79 85 83 85 90 95 96 99 98 97 98 97 96 97 94 93 92 95 94 92 95 94 94 94
50 60 78 92 91 89 78 46 47 41 82 58 70 86 88 83 94 88 70 76 80 81 85 90 87 86 88 93 95 96 97 96 96 94 96 94 88 89 93 89 90 91 91 96
59 68 74 86 91 80 58 48 46 73 68 64 69 83 90 93 96 88 85 83 78 82 85 84 82 85 83 82 88 95 95 97 95 94 93 90 79 87 87 88 84 86 91 94
69 90 88 88 93 84 43 42 44 55 47 54 88 88 90 90 81 78 83 81 77 83 82 78 77 78 76 76 80 88 91 89 86 84 85 87 88 78 74 75 80 86 85 88
65 54 76 77 88 72 50 53 52 48 45 45 47 63 63 70 69 69 77 79 78 79 79 77 80 79 77 76 78 76 85 84 82 83 76 74 72 73 75 70 78 69 74 72
48 48 74 65 59 56 48 41 41 41 36 36 38 41 46 55 64 65 70 74 66 65 75 73 80 87 88 85 81 84 87 78 84 87 85 82 81 78 76 73 92 77 67 65
49 45 43 64 59 44 40 40 40 34 32 32 35 43 47 48 60 64 63 66 64 65 64 75 82 84 85 86 88 87 88 90 91 83 80 83 78 77 64 70 69 58 60 68
40 48 52 67 60 61 52 47 43 39 38 37 40 47 46 52 60 66 75 69 64 69 69 74 80 86 87 87 82 82 83 84 84 82 83 83 84 80 80 74 71 77 76 79

GFSCGP_sfc_rhum_108.txt.gz
RH
22 28 34 28 26 29 67 83 89 89 85 86 96 92 95 79 54 58 49 42 41 45 41 50 56 56 62 63 67 72 78 82 78 86 90 84 88 86 85 81 77 73 76 83
25 30 22 20 22 30 73 89 92 84 84 79 93 92 80 85 86 78 67 44 39 44 46 54 54 55 58 64 67 78 78 82 81 87 93 94 92 90 86 91 82 77 73 79
24 19 16 17 23 63 70 73 89 81 82 85 90 94 83 82 86 77 73 70 63 43 55 55 52 52 61 66 74 74 83 85 89 92 92 93 94 94 92 93 92 85 86 81
17 12 13 15 23 53 87 62 65 83 84 95 90 97 96 90 86 82 72 66 69 59 53 53 53 53 61 65 71 76 80 92 89 88 88 86 91 91 94 94 93 89 74 86
18 13 12 14 14 47 79 58 65 74 92 93 88 92 94 95 87 79 70 65 66 65 52 53 53 51 60 64 69 76 81 91 91 90 88 93 92 85 95 94 89 85 86 82
19 15 11 11 32 53 54 67 71 76 92 95 82 85 94 95 83 69 61 67 62 63 59 56 51 52 56 62 71 81 88 89 92 88 90 90 89 92 95 94 95 95 94 93
22 18 22 50 65 58 68 85 97 94 92 89 89 90 85 74 70 61 59 77 66 67 67 63 56 61 60 63 72 80 87 92 93 86 87 86 90 92 90 92 91 94 95 94
30 28 15 30 60 74 73 66 72 80 96 87 84 88 80 62 52 49 50 59 69 69 68 65 61 66 67 66 70 75 86 92 94 86 86 84 90 92 93 93 96 96 95 94
31 28 16 15 37 54 67 59 49 76 86 88 88 79 72 57 64 59 59 56 67 66 73 70 70 81 88 82 79 78 87 89 91 85 87 89 88 91 93 94 95 97 94 93
24 27 20 17 16 33 42 37 52 66 87 93 88 86 88 61 64 68 68 63 64 69 78 76 81 87 93 94 96 94 88 87 86 90 83 85 94 89 91 96 96 96 95 92
37 29 26 25 28 21 22 34 38 50 64 82 95 89 72 57 57 69 68 62 63 60 70 87 94 94 94 88 90 95 96 90 90 87 94 93 93 91 93 94 94 94 92 90
44 41 41 29 23 18 18 21 31 36 34 56 59 78 52 55 51 61 62 62 60 54 66 87 89 91 93 91 91 91 96 96 93 95 95 95 95 92 92 94 95 95 94 91
31 42 46 36 33 26 28 26 45 28 30 42 49 68 50 69 66 64 61 70 72 71 84 89 91 92 93 87 87 86 94 95 97 97 97 98 95 92 94 93 94 94 94 95
42 44 44 41 36 37 37 28 28 28 27 26 32 53 70 60 92 92 86 84 86 82 85 91 95 93 92 91 86 91 92 92 98 98 97 97 96 95 96 96 95 93 92 93
31 37 38 31 48 44 40 45 40 43 34 23 28 64 86 79 98 97 98 94 90 85 87 90 96 97 94 96 96 93 97 98 97 96 96 95 96 97 96 96 96 94 92 91
39 42 61 60 42 46 46 50 52 60 64 77 82 96 94 90 89 94 95 91 93 84 84 92 94 94 96 96 96 97 98 98 96 98 97 95 96 95 93 94 94 94 90 90
65 65 65 77 62 46 72 57 61 65 66 79 77 77 92 89 83 90 90 91 96 96 96 97 98 98 98 99 96 93 95 97 98 97 97 97 97 96 95 96 96 95 93 96
70 73 83 81 69 77 66 67 49 60 64 79 81 75 80 84 76 86 88 92 94 94 97 98 98 99 99 99 99 99 99 97 98 98 97 98 98 98 98 96 96 94 96 98
62 72 92 85 90 75 62 60 62 60 66 78 92 86 84 82 86 94 86 90 96 97 98 99 97 98 99 99 99 99 99 99 99 99 99 96 92 94 97 97 96 96 98 98
59 77 81 91 84 77 72 55 54 56 81 79 86 88 92 85 94 97 94 90 94 95 97 98 94 95 98 98 97 98 99 98 99 98 98 97 96 95 95 96 94 94 98 98
77 82 82 92 91 80 69 56 52 72 70 73 81 85 93 97 99 97 93 93 90 93 94 89 84 88 89 95 93 98 97 98 97 95 94 94 94 93 86 91 92 94 97 89
82 89 97 91 88 75 51 54 60 60 69 81 83 81 92 86 88 92 91 91 86 88 84 77 82 82 80 84 88 94 97 94 93 90 93 94 92 85 77 78 84 90 97 95
73 78 93 91 85 66 62 61 56 58 82 82 80 89 82 80 86 93 92 86 85 86 86 75 77 79 77 77 74 79 85 78 80 79 80 83 77 75 77 77 82 73 83 81
60 61 76 63 56 60 54 50 60 57 43 51 72 86 81 88 87 85 86 84 85 84 86 85 83 84 90 89 86 90 90 87 85 85 84 81 82 79 67 69 84 72 63 68
53 46 61 69 59 55 47 40 36 39 41 46 48 61 81 79 81 76 79 78 76 78 79 86 92 93 92 92 88 90 89 89 90 88 82 83 79 72 71 78 78 59 60 69
50 43 62 73 57 53 50 48 38 38 42 50 49 51 65 75 79 76 74 75 78 78 83 87 86 86 89 92 87 89 89 91 92 91 93 94 94 93 72 66 64 74 72 75

GFSCGP_sfc_rhum_111.txt.gz
RH
26 27 32 29 31 32 72 81 89 87 92 91 91 94 91 83 67 48 52 49 52 55 57 59 58 58 64 69 74 78 87 88 85 92 89 92 91 92 91 87 88 87 88 88
27 33 26 25 25 36 68 85 93 84 87 91 94 93 94 88 86 78 54 49 50 48 63 65 63 60 66 67 72 81 81 85 82 88 93 93 93 93 90 93 90 83 85 85
28 23 19 21 34 72 85 79 86 81 85 84 87 94 97 88 89 79 70 53 49 50 64 69 64 66 65 67 76 76 83 85 86 91 94 97 95 96 94 94 93 91 85 84
22 16 16 19 22 68 83 63 70 86 87 94 89 97 97 92 90 84 75 71 54 50 60 65 63 66 63 65 73 80 88 92 91 91 89 88 92 92 95 96 95 91 78 86
23 20 21 17 16 56 72 63 73 78 94 94 90 97 91 92 90 82 77 72 69 52 58 60 58 60 62 66 72 77 88 94 92 91 89 92 91 89 94 94 90 89 86 85
20 18 18 20 45 45 59 72 80 87 92 94 79 87 89 94 82 68 74 72 68 55 54 56 52 56 63 66 73 81 90 93 94 89 90 90 88 91 96 95 95 95 95 93
22 23 60 56 70 63 71 87 91 88 92 87 89 92 84 72 76 66 74 77 66 67 58 58 62 62 73 73 78 83 88 94 95 91 89 90 90 92 92 92 93 95 96 96
28 25 58 53 68 72 82 75 75 75 92 91 89 90 79 66 66 74 71 71 70 70 58 62 62 66 70 72 77 80 89 92 95 92 92 90 90 94 94 92 96 97 97 94
29 27 18 43 53 51 70 74 59 83 90 92 89 78 69 61 58 60 66 53 72 70 79 61 62 70 79 76 79 80 87 89 95 91 90 90 93 93 94 93 94 97 95 92
34 30 22 19 45 54 55 48 64 78 84 98 88 87 84 70 68 65 62 65 65 68 76 73 69 72 78 82 85 86 88 88 90 94 92 90 93 93 92 96 94 96 95 94
40 32 25 28 29 47 34 50 48 59 73 90 95 81 66 48 52 69 63 57 64 65 75 81 84 82 81 87 89 93 92 92 94 95 94 93 95 93 94 96 94 94 94 94
38 44 46 30 28 25 27 43 44 44 42 77 75 65 67 58 58 72 73 64 66 60 69 80 89 96 92 90 93 94 97 96 95 94 95 94 94 94 95 95 93 93 93 93
32 39 49 41 39 34 32 37 49 34 41 57 58 53 70 62 66 75 78 79 72 72 86 93 96 96 93 91 94 95 96 97 98 97 97 98 97 97 98 98 96 96 94 93
48 42 43 59 45 46 54 54 51 28 32 35 41 28 64 70 80 78 81 79 77 83 81 88 94 95 96 96 95 94 96 94 97 97 95 96 97 98 97 98 97 97 97 95
39 40 43 43 52 48 60 65 65 67 78 30 25 27 62 88 92 91 88 84 83 86 86 89 94 95 96 97 97 96 94 94 97 96 94 94 96 97 96 98 98 97 96 95
48 53 66 66 48 47 58 58 63 69 78 74 87 87 99 97 98 98 93 86 84 83 75 78 81 88 94 94 95 94 97 99 98 98 96 95 97 96 96 98 97 96 94 93
70 60 63 72 61 41 60 64 66 70 78 92 95 98 74 83 93 97 99 98 98 90 94 97 98 96 96 95 96 98 99 99 98 97 97 98 99 97 96 96 96 97 96 98
68 75 79 72 72 68 59 69 61 59 71 89 90 81 80 95 98 98 98 96 97 97 98 99 98 99 99 99 99 98 98 99 99 98 99 99 98 98 98 98 98 97 98 99
71 82 86 78 87 74 59 63 62 68 68 86 96 86 90 91 88 96 95 96 98 98 98 99 98 99 99 99 99 99 98 98 99 99 99 99 98 99 98 97 96 98 99 96
73 78 79 89 80 83 70 56 60 61 82 85 91 92 93 91 97 99 96 96 98 97 98 98 98 98 98 99 99 99 99 99 99 96 98 98 97 97 98 98 97 97 98 98
80 89 87 93 89 76 64 58 57 73 70 82 88 94 94 97 97 98 92 95 97 97 94 86 90 96 98 98 97 99 99 99 99 99 99 98 98 98 96 96 97 99 99 95
75 88 93 93 87 70 58 60 62 63 86 74 87 92 85 96 97 95 95 95 95 94 84 80 87 90 89 92 96 98 99 99 98 98 98 98 97 96 85 83 92 97 96 89
80 76 88 84 82 66 71 70 63 72 87 86 87 81 85 86 94 92 95 93 87 86 83 78 82 81 83 80 82 92 84 88 90 89 88 92 88 86 87 87 72 78 89 91
65 75 82 67 75 68 70 68 64 64 67 74 86 79 80 94 94 94 92 88 88 87 87 82 77 79 82 83 81 78 82 77 75 74 72 75 81 67 61 67 69 61 62 63
62 60 72 74 74 67 58 50 49 57 61 65 79 83 88 92 94 92 92 92 86 85 83 81 82 86 90 91 91 91 90 83 84 80 81 85 81 72 75 76 66 58 67 72
56 50 69 69 59 58 52 47 50 56 58 62 66 73 85 88 91 87 94 93 90 90 89 94 94 94 95 88 88 87 88 86 90 89 91 94 92 77 73 71 65 72 72 76

GFSCGP_sfc_rhum_114.txt.gz
RH
29 27 35 37 31 41 76 85 91 85 85 86 91 93 95 83 80 66 54 54 58 61 60 61 60 61 72 76 79 84 89 93 89 91 93 94 91 90 90 91 88 91 89 89
29 36 26 26 28 39 82 90 95 86 84 82 93 91 92 86 89 79 62 55 58 65 69 67 62 61 71 75 80 87 88 93 87 88 92 93 93 92 88 93 90 88 89 89
32 26 22 24 56 68 86 81 93 83 88 88 89 92 93 90 90 83 77 60 58 64 72 69 69 66 71 73 80 85 90 89 89 90 93 96 95 96 94 94 93 90 86 87
27 19 19 23 24 63 84 69 73 90 90 94 89 95 97 88 93 91 80 69 56 57 65 68 69 70 70 70 76 83 89 90 89 93 90 90 91 92 95 95 95 92 80 87
22 24 23 20 19 52 59 69 82 82 91 94 95 96 90 94 94 86 82 77 53 54 62 68 66 66 65 66 76 80 90 92 92 92 90 92 92 89 94 94 91 91 87 83
23 21 21 23 48 48 66 77 83 86 94 97 90 89 95 95 85 79 72 76 66 51 60 65 60 64 66 70 77 81 89 92 93 91 90 90 90 92 95 95 93 94 93 90
26 27 65 62 75 66 78 84 96 93 97 91 92 92 82 78 87 79 80 77 70 55 62 66 62 67 70 79 79 82 87 92 93 91 90 89 89 91 91 92 90 93 95 95
36 30 69 61 74 81 86 71 86 74 92 89 92 93 79 58 60 65 58 66 70 65 58 64 60 67 71 74 79 81 88 89 93 91 91 91 90 89 92 92 95 95 96 94
36 30 25 56 59 58 77 80 71 87 92 90 91 80 67 68 75 78 75 74 76 73 68 64 62 65 77 78 78 82 88 89 92 90 92 92 91 91 92 92 93 95 94 91
41 39 26 24 56 60 66 59 71 89 88 88 85 85 84 77 74 82 79 74 73 75 74 66 66 69 78 81 84 84 86 87 87 91 89 88 90 91 93 93 93 94 95 94
46 34 28 32 46 65 45 66 63 71 84 87 84 71 68 64 63 79 66 63 59 65 75 73 69 73 78 81 86 89 91 90 92 92 94 93 93 92 91 93 95 93 92 92
48 40 45 32 27 32 38 53 50 62 51 86 78 68 72 59 55 57 59 58 62 58 65 75 73 84 88 87 88 89 92 91 91 93 94 94 94 94 94 93 92 93 94 90
38 44 48 36 40 42 43 57 57 43 56 76 61 50 65 66 70 70 74 74 70 67 74 87 87 86 92 90 89 91 93 92 94 94 95 97 97 97 97 95 94 94 94 92
40 50 42 48 50 46 60 65 73 33 38 42 52 37 78 72 77 85 88 84 81 83 88 91 91 91 94 96 96 96 95 95 96 96 96 98 98 96 92 93 96 94 96 96
43 44 51 39 52 56 66 68 72 73 84 36 62 81 95 96 95 84 88 87 87 87 89 93 95 96 95 96 95 96 97 97 98 97 96 96 96 95 96 98 97 96 96 96
65 50 64 64 49 51 55 61 69 76 88 88 92 94 88 90 94 97 93 86 87 88 82 81 91 91 95 94 95 97 97 96 96 97 96 96 96 95 98 99 99 98 98 98
66 73 60 61 62 51 64 65 70 74 73 82 94 89 76 96 95 97 97 90 93 96 98 99 96 95 96 97 97 97 97 97 98 97 98 99 99 98 99 98 99 99 99 98
58 78 81 74 67 76 62 65 59 66 72 89 87 79 91 95 97 96 92 96 98 98 99 99 99 99 100 99 99 99 98 99 99 99 99 98 98 98 98 97 96 96 97 99
71 80 84 77 81 72 66 63 60 64 66 80 87 81 90 91 92 98 96 96 98 98 98 99 98 99 99 99 99 98 99 99 99 99 99 99 98 98 98 98 98 99 99 93
78 81 73 86 80 81 70 58 56 58 81 75 91 81 90 94 96 99 96 95 96 95 94 97 97 98 98 99 99 99 99 99 99 99 99 99 98 98 99 99 99 99 94 94
76 88 79 91 84 73 62 59 57 75 69 85 84 91 94 94 94 94 96 98 96 91 89 91 95 98 99 98 98 99 98 99 99 99 99 99 99 99 99 99 99 99 97 86
76 84 90 91 82 64 62 62 65 61 86 83 92 94 96 95 95 98 96 98 93 89 85 84 90 96 96 97 96 98 99 99 99 98 98 99 99 99 99 98 99 99 98 96
82 72 84 79 80 66 67 66 64 77 83 82 88 86 92 90 92 93 97 96 91 89 88 81 80 84 83 88 92 96 98 97 97 97 98 99 99 98 96 91 90 93 89 86
75 81 83 69 70 70 71 67 68 72 78 82 81 81 83 93 95 97 95 94 91 86 87 81 80 80 84 79 78 79 77 77 72 80 86 89 94 93 85 90 79 96 81 86
67 69 77 74 73 72 65 61 59 66 74 85 79 77 88 93 93 92 92 90 90 88 84 78 80 81 88 87 87 83 81 78 76 78 75 71 63 65 66 69 73 60 63 68
60 63 71 70 66 64 56 52 61 69 76 83 79 89 91 92 91 90 91 91 88 86 87 89 89 87 86 83 84 84 83 82 80 81 81 82 74 68 68 66 62 70 71 77

GFSCGP_sfc_rhum_117.txt.gz
RH
18 20 27 21 20 27 38 55 62 74 76 78 75 83 84 80 63 57 63 62 49 48 45 47 48 48 51 56 60 64 66 72 69 68 67 66 84 64 63 61 72 70 69 72
19 23 18 19 20 35 41 50 67 76 78 73 79 74 86 93 71 58 64 69 48 47 47 51 50 48 51 57 61 66 69 74 73 64 68 62 66 61 58 66 72 69 68 73
20 18 18 19 31 38 46 36 64 63 78 72 72 73 82 92 85 68 71 50 43 44 47 51 52 49 51 57 62 66 72 76 73 72 70 73 71 88 67 68 66 70 69 70
18 15 16 17 17 24 33 42 55 76 74 71 74 71 81 83 88 69 62 54 46 42 46 47 49 51 50 54 58 64 72 76 73 75 69 81 66 62 78 88 80 65 68 70
18 15 16 17 15 20 23 49 56 66 71 71 79 83 68 75 88 72 63 50 47 42 42 46 48 48 47 51 56 60 71 76 72 76 72 62 81 57 67 70 80 74 72 68
16 15 15 16 40 24 52 58 61 66 70 77 56 67 59 79 75 62 55 48 44 43 40 45 44 47 49 50 54 57 70 78 76 76 74 76 78 80 67 84 67 71 63 60
19 17 33 43 48 48 52 49 58 65 77 58 71 76 58 55 56 51 52 50 49 45 41 45 50 52 53 54 56 59 68 74 74 73 71 72 72 74 78 76 88 81 89 79
22 20 43 44 38 42 46 33 26 42 50 58 72 76 48 45 43 52 51 53 56 46 40 45 50 53 56 56 57 60 65 71 72 72 75 75 74 61 61 70 75 64 63 63
22 22 22 45 46 40 52 49 33 49 61 66 62 57 44 46 48 61 66 58 61 58 46 46 49 59 57 57 59 60 64 67 69 66 72 75 74 74 66 74 73 64 73 66
24 29 20 27 42 44 43 39 55 62 55 49 49 60 53 57 60 61 64 65 56 60 57 49 50 51 55 57 60 60 60 65 65 65 67 67 68 74 73 73 77 77 74 77
23 25 23 22 35 32 42 42 46 51 51 40 46 34 45 51 53 67 65 60 55 63 65 64 66 66 64 59 60 67 66 67 67 69 70 72 70 71 74 75 75 77 79 78
25 24 27 23 20 22 32 33 32 35 46 44 47 32 57 53 46 58 62 62 61 70 66 65 70 75 64 62 62 66 71 70 69 68 75 77 77 76 74 77 76 80 80 76
26 27 28 24 26 30 31 40 33 26 31 39 33 25 46 53 51 55 60 58 56 60 77 77 83 88 80 66 66 69 70 73 71 73 75 77 78 80 80 80 81 80 79 78
36 26 32 25 33 37 47 46 49 38 26 27 25 27 38 68 69 63 63 55 56 58 67 83 77 87 87 80 72 76 80 86 78 74 74 77 77 77 77 81 80 78 81 81
29 33 32 29 38 40 45 46 53 45 54 29 30 54 69 78 82 75 68 69 68 72 65 74 76 76 86 95 88 76 90 92 79 84 75 78 86 87 81 80 80 80 80 77
39 36 42 43 36 34 46 45 52 63 65 61 60 63 75 82 79 74 68 70 71 78 73 77 82 89 91 91 92 91 83 91 95 82 82 85 94 93 87 94 88 85 88 87
46 46 45 40 36 41 52 50 44 54 57 64 58 66 74 87 87 86 72 70 72 74 73 76 82 94 97 98 95 97 94 89 88 88 88 92 95 90 95 96 94 93 97 98
45 54 62 48 46 60 40 48 42 43 48 55 69 69 87 95 96 95 90 84 92 94 97 94 90 95 97 91 92 96 98 97 96 98 99 96 98 98 96 97 96 97 98 99
45 50 57 61 62 47 52 49 52 45 36 48 69 77 87 93 87 97 94 94 96 96 97 97 97 97 97 96 91 92 95 96 95 98 95 98 97 98 98 99 98 99 98 99
50 56 43 60 57 52 46 45 44 44 50 44 66 74 78 75 77 91 89 90 91 90 94 96 96 97 97 98 98 98 98 97 97 99 99 99 99 98 97 98 99 99 99 98
48 54 51 62 59 47 43 43 48 59 50 56 61 69 79 78 76 90 94 94 84 84 89 90 92 97 98 98 98 99 98 100 98 99 98 99 99 99 99 99 99 99 99 98
55 66 76 58 64 55 45 47 56 51 60 64 72 81 87 95 95 89 86 88 85 86 84 82 88 96 97 96 97 98 99 99 98 99 99 99 98 99 99 99 100 99 99 99
68 48 68 58 50 51 52 53 49 58 63 68 75 84 90 85 76 75 85 80 77 77 76 75 79 84 85 94 96 98 99 97 96 97 98 98 98 98 99 99 99 100 99 99
55 56 53 57 52 54 54 53 56 61 57 63 69 69 66 71 70 76 77 73 72 71 72 69 70 76 77 76 77 83 88 89 90 95 95 91 94 96 96 98 98 100 99 99
44 57 57 53 52 51 48 55 48 57 63 62 60 63 66 65 67 67 71 72 70 69 63 62 68 71 72 71 70 65 68 66 66 68 65 66 67 82 92 95 95 95 84 94
43 51 43 32 49 52 46 44 54 62 64 60 61 65 66 66 67 63 66 66 64 66 65 66 65 66 67 64 65 69 67 61 59 56 51 50 52 59 59 59 58 72 74 81

GFSCGP_sfc_rhum_120.txt.gz
RH
10 11 15 17 18 18 24 28 33 51 60 58 53 54 71 70 63 45 36 41 30 31 32 35 36 35 36 41 47 53 54 62 56 54 48 46 47 46 44 43 55 57 54 58
12 11 12 16 16 20 22 25 32 54 60 57 55 57 50 61 63 50 39 57 34 28 30 36 37 36 36 41 47 55 57 64 64 54 59 45 45 43 42 44 53 51 54 57
9 11 14 16 17 19 21 21 25 40 59 54 54 53 53 59 60 57 44 43 42 30 30 35 38 37 37 42 47 52 59 61 62 59 53 56 69 57 58 50 47 49 53 53
11 12 14 15 15 16 18 19 22 46 47 44 50 36 52 54 69 63 56 42 50 31 31 31 35 37 36 40 44 49 56 64 64 61 64 73 58 46 54 54 52 55 52 52
13 13 13 13 12 11 14 20 23 38 41 44 49 48 29 46 67 62 56 44 44 30 28 30 32 35 34 38 42 46 57 66 62 66 65 52 55 44 44 44 60 61 63 55
12 10 11 10 13 12 18 26 34 40 43 40 27 40 29 45 48 50 52 48 40 32 28 30 30 32 35 36 40 44 58 66 62 69 63 64 58 56 53 56 49 51 47 46
12 11 9 12 16 16 23 21 28 34 33 29 37 37 33 29 34 37 44 46 38 32 30 29 32 33 37 39 42 45 56 65 62 64 64 60 58 60 60 59 51 61 49 45
14 16 12 15 16 19 22 16 18 31 21 21 44 40 26 30 28 28 37 42 37 32 29 29 31 35 39 40 44 47 53 62 60 59 61 64 63 67 52 54 60 50 51 51
15 15 14 20 19 20 21 31 15 18 16 23 21 31 27 26 28 28 30 34 34 32 32 30 30 35 40 42 45 48 52 58 56 53 59 63 66 68 52 55 72 55 75 70
17 20 14 18 26 26 28 24 25 20 35 32 21 31 32 32 32 33 35 40 44 39 36 33 32 34 39 41 44 46 48 54 54 51 53 55 57 61 60 59 72 58 57 69
16 17 18 18 24 18 28 30 27 20 23 31 34 27 27 33 37 35 37 38 44 53 50 39 36 37 39 42 42 49 49 51 53 52 54 55 53 53 58 57 61 68 71 66
16 14 19 15 14 15 14 20 18 24 30 25 24 54 35 38 36 32 36 56 48 55 53 56 40 41 43 44 43 48 51 50 52 53 58 60 59 58 55 62 59 64 69 70
16 15 21 17 14 18 18 20 23 19 22 75 32 31 31 43 37 39 43 49 57 51 56 71 72 54 57 67 49 45 50 54 51 57 58 60 60 63 61 62 61 65 65 66
33 12 16 16 21 35 32 30 29 24 22 22 22 23 20 51 54 47 48 48 58 68 70 78 83 68 76 67 70 52 52 52 56 56 59 62 62 60 61 62 66 65 67 66
21 24 17 14 14 22 28 30 30 28 27 30 18 24 26 53 70 59 50 53 52 54 55 65 80 85 86 90 83 60 55 58 61 62 59 62 63 63 70 71 71 68 67 64
21 28 24 23 16 21 24 25 26 30 32 33 32 30 47 55 71 60 48 55 56 55 52 54 75 79 89 85 88 85 64 68 71 72 82 65 75 75 75 69 77 73 68 67
27 26 32 30 21 22 25 22 24 26 27 30 34 38 43 54 78 84 56 54 56 58 57 62 65 75 89 93 93 94 82 68 76 95 89 76 80 73 77 77 81 83 93 86
27 33 28 30 42 59 23 24 23 24 24 25 27 37 56 88 88 91 74 73 85 84 77 71 69 77 97 96 89 94 95 88 74 91 95 84 94 90 79 90 90 95 94 92
21 29 29 39 46 32 27 30 35 36 31 24 27 45 73 86 82 93 91 93 94 94 95 96 97 95 92 96 98 98 98 98 95 95 89 85 95 89 97 98 98 98 99 98
23 35 34 35 57 50 42 34 30 30 40 24 29 50 65 60 59 83 93 88 90 92 93 95 94 93 96 98 93 94 97 97 95 96 90 91 90 92 98 98 99 99 99 99
33 36 34 36 47 36 30 34 34 50 48 42 42 52 64 84 76 93 84 86 83 85 87 89 95 96 96 96 93 96 92 94 95 97 98 97 98 99 99 98 99 99 99 99
37 43 40 35 52 52 30 36 46 48 45 48 50 60 93 85 71 78 80 82 82 82 79 81 89 96 97 95 97 99 98 98 96 97 97 98 98 98 99 99 99 99 99 99
51 33 51 36 41 44 41 40 38 40 52 53 66 70 65 60 63 71 81 76 73 74 77 77 82 88 90 95 96 98 99 98 98 98 98 98 98 95 96 98 99 99 99 99
37 39 35 43 38 39 41 39 39 47 48 56 65 57 50 61 71 78 73 71 69 68 69 67 69 73 78 79 88 94 94 91 92 96 95 95 96 88 88 93 97 99 99 99
31 40 33 32 36 41 41 45 45 48 52 50 44 43 48 61 65 62 63 66 62 58 59 64 64 62 64 64 63 61 68 70 67 69 67 67 68 81 87 91 97 99 98 99
30 32 26 27 29 42 41 40 44 50 50 48 48 48 46 50 55 53 53 51 50 50 52 54 52 51 52 54 57 55 52 52 47 40 36 43 57 54 59 66 64 72 85 92